[[{"header":{"parameterUnit":"m.s-1","parameterCategory":1,"la1":30.6,"la2":29.2853,"lo1":-89.7004,"lo2":-87.6739,"dy":0.0162,"dx":0.0183,"nx":112,"ny":82,"refTime":"2023-08-31T18:00:00:Z","depth":0,"parameterNumber":2,"parameterNumberName":"U-component_of_WINDS"},"data":[0.0,0.0,0.0,0.0,0.0,0.0,0.0,0.0,0.0,0.0,0.0,0.0,0.0,0.0,0.0,0.0,0.0,0.0,0.0,0.0,0.0,0.0,0.0,0.0,0.0,0.0,0.0,0.0,0.0,0.0,0.0,0.0,0.0,0.0,0.0,0.0,0.0,0.0,0.0,0.0,0.0,0.0,0.0,0.0,0.0,0.0,0.0,0.0,0.0,0.0,0.0,0.0,0.0,0.0,0.0,0.0,0.0,0.0,0.0,0.0,0.0,0.0,0.0,0.0,0.0,0.0,0.0,0.0,0.0,0.0,0.0,0.0,0.0,0.0,0.0,0.0,0.0,0.0,0.0,0.0,0.0,0.0,0.0,0.0,0.0,0.0,0.0,0.0,0.0,0.0,0.119,0.2038,0.2423,0.2696,0.2849,0.2981,0.3149,0.3434,0.0,0.0,0.0,0.0,0.0,0.0,0.0,0.0,0.0,0.0,0.0,0.0,0.0,0.0,0.0,0.0,0.0,0.0,0.0,0.0,0.0,0.0,0.0,0.0,0.0,0.0,0.0,0.0,0.0,0.0,0.0,0.0,0.0,0.0,0.0,0.0,0.0,0.0,0.0,0.0,0.0,0.0,0.0,0.0,0.0,0.0,0.0,0.0,0.0,0.0,0.0,0.0,0.0,0.0,0.0,0.0,0.0,0.0,0.0,0.0,0.0,0.0,0.0,0.0,0.0,0.0,0.0,0.0,0.0,0.0,0.0,0.0,0.0,0.0,0.0,0.0,0.0,0.0,0.0,0.0,0.0,0.0,0.0,0.0,0.0,0.0,0.0,0.0,0.0,0.0,0.0,0.0,0.0,0.0,0.0,0.0,0.0,0.0,0.0,0.0,0.0,0.0,0.0,0.0,0.1306,0.0468,0.0446,0.0853,0.1754,0.1581,0.2091,0.3657,0.0,0.0,0.0,0.0,0.0,0.0,0.0,0.0,0.0,0.0,0.0,0.0,0.0,0.0,0.0,0.0,0.0,0.0,0.0,0.0,0.0,0.0,0.0,0.0,0.0,0.0,0.0,0.0,0.0,0.0,0.0,0.0,0.0,0.0,0.0,0.0,0.0,0.0,0.0,0.0,0.0,0.0,0.0,0.0,0.0,0.0,0.0,0.0,0.0,0.0,0.0,0.0,0.0,0.0,0.0,0.0,0.0,0.0,0.0,0.0,0.0,0.0,0.0,0.0,0.0,0.0,0.0,0.0,0.0,0.0,0.0,0.0,0.0,0.0,0.0,0.0,0.0,0.0,0.0,0.0,0.0,0.0,0.0,0.0,0.0,0.0,0.0,0.0,0.0,0.0,0.0,0.0,0.0,0.0,0.0,0.0,0.0,0.0,0.0,0.0,0.0,0.0,0.0,0.0835,0.0611,0.0077,0.0,0.0216,0.0674,0.0599,0.1187,0.2831,0.2741,0.0,0.0,0.0,0.0,0.0,0.0,0.0,0.0,0.0,0.0,0.0,0.0,0.0,0.0,0.0,0.0,0.0,0.0,0.0,0.0,0.0,0.0,0.0,0.0,0.0,0.0,0.0,0.0,0.0,0.0,0.0,0.0,0.0,0.0,0.0,0.0,0.0,0.0,0.0,0.0,0.0,0.0,0.0,0.0,0.0,0.0,0.0,0.0,0.0,0.0,0.0,0.0,0.0,0.0,0.0,0.0,0.0,0.0,0.0,0.0,0.0,0.0,0.0,0.0,0.0,0.0,0.0,0.0,0.0,0.0,0.0,0.0,0.0,0.0,0.0,0.0,0.0,0.0,0.0,0.0,0.0,0.0,0.0,0.0,0.0,0.0,0.0,0.0,0.0,0.0,0.0,0.0,0.0,0.0,0.0,0.0,0.0,0.0,0.0,0.0,0.0,0.0,0.0095,0.0,0.0,0.0,0.0,0.0,0.0,0.0628,0.2092,0.1956,0.0,0.0,0.0,0.0,0.0,0.0,0.0,0.0,0.0,0.0,0.0,0.0,0.0,0.0,0.0,0.0,0.0,0.0,0.0,0.0,0.0,0.0,0.0,0.0,0.0,0.0,0.0,0.0,0.0,0.0,0.0,0.0,0.0,0.0,0.0,0.0,0.0,0.0,0.0,0.0,0.0,0.0,0.0,0.0,0.0,0.0,0.0,0.0,0.0,0.0,0.0,0.0,0.0,0.0,0.0,0.0,0.0,0.0,0.0,0.0,0.0,0.0,0.0,0.0,0.0,0.0,0.0,0.0,0.0,0.0,0.0,0.0,0.0,0.0,0.0,0.0,0.0,0.0,0.0,0.0,0.0,0.0,0.0,0.0,0.0,0.0,0.0,0.0,0.0,0.0,0.0,0.0,0.0,0.0,0.0,0.0,0.0,0.0,0.0,0.0,0.0,0.0,0.0353,0.0,0.0,0.0,0.0,0.0,0.0,0.0628,0.2118,0.1958,0.0,0.0,0.0,0.0,0.0,0.0,0.0,0.0,0.0,0.0,0.0,0.0,0.0,0.0,0.0,0.0,0.0,0.0,0.0,0.0,0.0,0.0,0.0,0.0,0.0,0.0,0.0,0.0,0.0,0.0,0.0,0.0,0.0,0.0,0.0,0.0,0.0,0.0,0.0,0.0,0.0,0.0,0.0,0.0,0.0,0.0,0.0,0.0,0.0,0.0,0.0,0.0,0.0,0.0,0.0,0.0,0.0,0.0,0.0,0.0,0.0,0.0,0.0,0.0,0.0,0.0,0.0,0.0,0.0,0.0,0.0,0.0,0.0,0.0,0.0,0.0,0.0,0.0,0.0,0.0,0.0,0.0,0.0,0.0,0.0,0.0,0.0,0.0,0.0,0.0,0.0,0.0,0.0,0.0,0.0,0.0,0.0,0.0,0.0,0.0,0.0,0.0,0.0126,0.0,0.0,0.0,0.0,0.0,0.0,0.0619,0.2097,0.0,0.0,0.0,0.0,0.0,0.0,0.0,0.0,0.0,0.0,0.0,0.0,0.0,0.0,0.0,0.0,0.0,0.0,0.0,0.0,0.0,0.0,0.0,0.0,0.0,0.0,0.0,0.0,0.0,0.0,0.0,0.0,0.0,0.0,0.0,0.0,0.0,0.0,0.0,0.0,0.0,0.0,0.0,0.0,0.0,0.0,0.0,0.0,0.0,0.0,0.0,0.0,0.0,0.0,0.0,0.0,0.0,0.0,0.0,0.0,0.0,0.0,0.0,0.0,0.0,0.0,0.0,0.0,0.0,0.0,0.0,0.0,0.0,0.0,0.0,0.0,0.0,0.0,0.0,0.0,0.0,0.0,0.0,0.0,0.0,0.0,0.0,0.0,0.0,0.0,0.0,0.0,0.0,0.0,0.0,0.0,0.0,0.0,0.0,0.0,0.0,0.0,0.0,0.0,0.0,0.0,0.0,0.0,0.0,0.0,0.0521,0.1778,0.0,0.0,0.0,0.0,0.0,0.0,0.0,0.0,0.0,0.0,0.0,0.0,0.0,0.0,0.0,0.0,0.0,0.0,0.0,0.0,0.0,0.0,0.0,0.0,0.0,0.0,0.0,0.0,0.0,0.0,0.0,0.0,0.0,0.0,0.0,0.0,0.0,0.0,0.0,0.0,0.0,0.0,0.0,0.0,0.0,0.0,0.0,0.0,0.0,0.0,0.0,0.0,0.0,0.0,0.0,0.0,0.0,0.0,0.0,0.0,0.0,0.0,0.0,0.0,0.0,0.0,0.0,0.0,0.0,0.0,0.0,0.0,0.0,0.0,0.0,0.0,0.0,0.0,0.0,0.0,0.0,0.0,0.0,0.0,0.0,0.0,0.0,0.0,0.0,0.0,0.0,0.0,0.0,0.0,0.0,0.0,0.0,0.0,0.0,0.0,0.0,0.0,0.0,0.0,0.0,0.0,0.0,0.0,0.0,0.0,0.0317,0.0,0.0,0.0,0.0,0.0,0.0,0.0,0.0,0.0,0.0,0.0,0.0,0.0,0.0,0.0,0.0,0.0,0.0,0.0,0.0,0.0,0.0,0.0,0.0,0.0,0.0,0.0,0.0,0.0,0.0,0.0,0.0,0.0,0.0,0.0,0.0,0.0,0.0,0.0,0.0,0.0,0.0,0.0,0.0,0.0,0.0,0.0,0.0,0.0,0.0,0.0,0.0,0.0,0.0,0.0,0.0,0.0,0.0,0.0,0.0,0.0,0.0,0.0,0.0,0.0,0.0,0.0,0.0,0.0,0.0,0.0,0.0,0.0,0.0,0.0,0.0,0.0,0.0,0.0,0.0,0.0,0.0,0.0,0.0,0.0,0.0,0.0,0.0,0.0,0.0,0.0,0.0,0.0,0.0,0.0,0.0,0.0,0.0,0.0,0.0,0.0,0.0,0.0,0.0,0.0,0.0,0.0,0.0,0.0,0.0,0.0,0.0314,0.104,0.0,0.0,0.0,0.0,0.0,0.0,0.0,0.0,0.0,0.0,0.0,0.0,0.0,0.0,0.0,0.0,0.0,0.0,0.0,0.0,0.0,0.0,0.0,0.0,0.0,0.0,0.0,0.0,0.0,0.0,0.0,0.0,0.0,0.0,0.0,0.0,0.0,0.0,0.0,0.0,0.0,0.0,0.0,0.0,0.0,0.0,0.0,0.0,0.0,0.0,0.0,0.0,0.0,0.0,0.0,0.0,0.0,0.0,0.0,0.0,0.0,0.0,0.0,0.0,0.0,0.0,0.0,0.0,0.0,0.0,0.0,0.0,0.0,0.0,0.0,0.0,0.0,0.0,0.0,0.0,0.0,0.0,0.0,0.0,0.0,0.0,0.0,0.0,0.0,0.0,0.0,0.0,0.0,0.0,0.0,0.0,0.0,0.0,0.0,0.0,0.0,0.0,0.0,0.0,0.0,0.0,0.0,0.0,0.0,0.0,0.0195,0.0633,0.0,0.0,0.0,0.0,0.0,0.0,0.0,0.0,0.0,0.0,0.0,0.0,0.0,0.0,0.0,0.0,0.0,0.0,0.0,0.0,0.0,0.0,0.0,0.0,0.0,0.0,0.0,0.0,0.0,0.0,0.0,0.0,0.0,0.0,0.0,0.0,0.0,0.0,0.0,0.0,0.0,0.0,0.0,0.0,0.0,0.0,0.0,0.0,0.0,0.0,0.0,0.0,0.0,0.0,0.0,0.0,0.0,0.0,0.0,0.0,0.0,0.0,0.0,0.0,0.0,0.0,0.0,0.0,0.0,0.0,0.0,0.0,0.0,0.0,0.0,0.0,0.0,0.0,0.0,0.0,0.0,0.0,0.0,0.0,0.0,0.0,0.0,0.0,0.0,0.0,0.0,0.0,0.0,0.0,0.0,0.0,0.0,0.0,0.0,0.0,0.0,0.0,-0.0112,-0.0168,-0.0168,-0.0112,-0.0112,-0.0084,0.0,0.0,0.0,0.0,0.0,0.0,0.0,0.0,0.0,0.0,0.0,0.0,0.0,0.0,0.0,0.0,0.0,0.0,0.0,0.0,0.0,0.0,0.0,0.0,0.0,0.0,0.0,0.0,0.0,0.0,0.0,0.0,0.0,0.0,0.0,0.0,0.0,0.0,0.0,0.0,0.0,0.0,0.0,0.0,0.0,0.0,0.0,0.0,0.0,0.0,0.0,0.0,0.0,0.0,0.0,0.0,0.0,0.0,0.0,0.0,0.0,0.0,0.0,0.0,0.0498,0.1332,0.0,0.0,0.0,0.0,0.0,0.0,0.0,0.0,0.0,0.0,0.0,0.0,0.0,0.0,0.0,0.0,0.0,0.0,0.0,0.0,0.0,0.0,0.0,0.0,0.0,0.0,0.0,0.0,0.0,0.0,0.0,0.0,0.0,0.0,0.0,0.0,0.0,0.0,0.0,0.0,-0.0866,-0.1369,-0.1507,-0.0923,-0.0866,-0.0643,-0.0056,0.0,0.0,0.0,0.0,0.0,0.0,0.0,0.0,0.0,0.0,0.0,0.0,0.0,0.0,0.0,0.0,0.0,0.0,0.0,0.0,0.0,0.0,0.0,0.0,0.0,0.0,0.0,0.0,0.0,0.0,0.0,0.0,0.0,0.0,0.0,0.0,0.0,0.0,0.0,0.0,0.0,0.0,0.0,0.0,0.0,0.0,0.0,0.0,0.0,0.0,0.0,0.0,0.0,0.0,0.0,0.0,0.0,0.0,0.0,0.0,0.0,0.0,0.0,-0.1471,-0.0626,0.0,0.0,0.0,0.0,0.0,0.0,0.0,0.0,0.0,0.0,0.0,0.0,0.0,0.0,0.0,0.0,0.0,0.0,0.0,0.0,0.0,0.0,0.0,0.0,0.0,0.0,0.0,0.0,0.0,0.0,0.0,0.0,0.0,0.0,0.0,0.0,0.0,0.0,0.0,0.0,-0.1619,-0.1952,-0.2063,-0.1675,-0.1619,-0.148,-0.109,-0.1045,-0.0905,-0.0559,-0.0542,0.0,0.0,0.0,0.0,0.0,0.0,0.0,0.0,0.0,0.0,0.0,0.0,0.0,0.0,0.0,0.0,0.0,0.0,0.0,0.0,0.0,0.0,0.0,0.0,0.0,0.0,0.0,0.0,0.0,0.0,0.0,0.0,0.0,0.0,0.0,0.0,0.0,0.0,0.0,0.0,0.0,0.0,0.0,0.0,0.0,0.0,0.0,0.0,0.0,0.0,0.0,0.0,0.0,-0.3712,-0.3943,-0.4079,-0.4313,-0.4643,-0.4929,-0.3913,-0.3243,-0.2733,-0.2062,0.0,0.0,0.0,0.0,0.0,0.0,0.0,0.0,0.0,0.0,0.0,0.0,0.0,0.0,0.0,0.0,0.0,0.0,0.0,0.0,0.0,0.0,-0.3929,-0.3554,-0.3999,-0.4294,-0.3405,0.0,0.0,0.0,0.0,0.0,0.0,0.0,0.0,0.0,0.0,0.0,-0.2397,-0.2508,-0.2538,-0.2397,-0.2397,-0.2343,-0.2204,-0.2202,-0.1952,-0.134,-0.1305,-0.1031,0.0,0.0,0.0,0.0,0.0,0.0,0.0,0.0,0.0,0.0,0.0,0.0,0.0,0.0,0.0,0.0,0.0,0.0,0.0,0.0,0.0,0.0,0.0,0.0,0.0,0.0,0.0,0.0,0.0,0.0,0.0,0.0,-0.2091,-0.2174,0.0,0.0,0.0,0.0,0.0,0.0,0.0,0.0,0.0,0.0,0.0,0.0,0.0,-0.3169,-0.3461,-0.4258,-0.4662,-0.468,-0.5636,-0.6025,-0.597,-0.7204,-0.7153,-0.6151,-0.7041,0.0,-0.3944,-0.3749,0.0,0.0,0.0,0.0,0.0,0.0,0.0,0.0,0.0,0.0,0.0,0.0,0.0,0.0,0.0,0.0,0.0,0.0,0.0,0.0,0.0,0.0,-0.5955,-0.7016,-0.7377,-0.7413,-0.7262,-0.5233,-0.3378,-0.3195,-0.3148,-0.2954,0.0,0.0,0.0,0.0,0.0,0.0,-0.3148,-0.3763,-0.3929,-0.3231,-0.3204,-0.2954,-0.2259,-0.2202,-0.2147,-0.2063,-0.2055,-0.2,-0.1924,-0.1917,0.0,0.0,0.0,0.0,0.0,0.0,0.0,0.0,0.0,0.0,0.0,0.0,0.0,0.0,0.0,0.0,0.0,0.0,0.0,0.0,0.0,0.0,0.0,0.0,0.0,0.0,0.0,0.0,0.0,-0.3697,-0.4138,-0.3574,-0.3983,-0.411,0.0,0.0,0.0,0.0,0.0,0.0,0.0,0.0,0.0,-0.6802,-0.688,-0.709,-0.7421,-0.7947,-0.8271,-0.8341,-0.8917,-0.9199,-0.9222,-0.9862,-0.9809,-0.926,-0.9809,-0.9292,-0.7833,-0.5403,-0.4134,-0.3661,0.0,0.0,0.0,0.0,-0.3012,-0.3119,-0.365,-0.3801,-0.3824,-0.4261,0.0,0.0,0.0,0.0,0.0,0.0,0.0,-0.6194,-0.7127,-0.7396,-0.7601,-0.8188,-0.8395,-0.8419,-0.8359,-0.7202,-0.6042,-0.5543,-0.5098,-0.4643,-0.4135,-0.4051,0.0,0.0,0.0,-0.3984,-0.3984,-0.4294,-0.4377,-0.4015,-0.4012,-0.3876,-0.3511,-0.3483,-0.3287,-0.2843,-0.2818,-0.2623,-0.223,-0.2189,-0.2051,0.0,0.0,0.0,0.0,0.0,0.0,0.0,0.0,0.0,0.0,0.0,0.0,0.0,0.0,0.0,0.0,0.0,0.0,0.0,0.0,0.0,0.0,0.0,0.0,0.0,0.0,0.0,0.0,-0.5237,-0.5946,-0.512,-0.602,-0.6348,0.0,0.0,0.0,0.0,0.0,0.0,-0.887,-0.9098,-0.9473,-1.0008,-1.012,-1.0356,-1.0697,-1.0873,-1.103,-1.1178,-1.131,-1.1466,-1.1631,-1.1951,-1.1919,-1.159,-1.1913,-1.173,-1.086,-0.7599,-0.6136,-0.588,-0.5126,-0.4882,-0.492,-0.5024,-0.5069,-0.5156,-0.5919,-0.6073,-0.601,-0.6527,-0.6459,-0.6111,-0.5801,0.0,0.0,0.0,0.0,-0.8212,-0.8673,-0.8871,-0.9007,-0.9366,-0.9529,-0.9572,-0.9468,-0.9124,-0.8554,-0.7532,-0.6816,-0.6316,-0.6042,-0.5949,0.0,-0.5322,-0.5147,-0.5013,-0.4956,-0.4838,-0.4695,-0.457,-0.4511,-0.4491,-0.4491,-0.4491,-0.4236,-0.3649,-0.362,-0.3363,-0.2811,-0.2801,-0.2688,-0.248,0.0,0.0,0.0,0.0,0.0,0.0,0.0,0.0,0.0,0.0,0.0,0.0,0.0,0.0,0.0,0.0,0.0,0.0,0.0,0.0,0.0,0.0,0.0,0.0,0.0,0.0,0.0,0.0,0.0,-0.6527,-0.7762,0.0,0.0,0.0,0.0,-0.9111,-0.942,-0.9799,-1.0286,-1.0324,-1.0498,-1.0937,-1.0925,-1.1102,-1.1455,-1.144,-1.1518,-1.1655,-1.1665,-1.174,-1.1915,-1.3208,-1.2989,-1.178,-1.3064,-1.2766,-1.1409,-1.0777,-1.0256,-0.9906,-0.9642,-0.9684,-0.9807,-0.9642,-0.9705,-0.9823,-0.9711,-0.9458,-0.9301,-0.9609,-0.9396,-0.9016,-0.8536,-0.8346,0.0,0.0,-0.8329,-0.8614,-0.9589,-0.9832,-1.0172,-1.1438,-1.1731,-1.1731,-1.1753,-1.1173,-1.0122,-0.8323,-0.7653,-0.7413,-0.7387,0.0,-0.7084,-0.7327,-0.6854,-0.6406,-0.6147,-0.5733,-0.5258,-0.475,-0.4576,-0.4491,-0.4491,-0.4491,-0.4491,-0.4432,-0.4453,-0.4426,-0.4377,-0.437,-0.4036,-0.3259,-0.3317,0.0,0.0,0.0,0.0,0.0,0.0,0.0,0.0,0.0,0.0,0.0,0.0,0.0,0.0,0.0,0.0,0.0,0.0,0.0,0.0,0.0,0.0,0.0,0.0,0.0,0.0,0.0,0.0,-0.8382,-0.973,0.0,-0.9273,-0.9895,-1.0484,-1.0822,-1.1519,-1.2192,-1.2745,-1.2939,-1.3286,-1.3801,-1.382,-1.3948,-1.4266,-1.4272,-1.4274,-1.4325,-1.4325,-1.4374,-1.4424,-1.4902,-1.4851,-1.4372,-1.4858,-1.4747,-1.4247,-1.4101,-1.2792,-1.0879,-1.0689,-1.0641,-1.0721,-1.08,-1.0837,-1.091,-1.0931,-1.0658,-1.0272,-0.9877,-0.9606,-0.9372,-0.9123,-0.9455,-0.9927,-0.9927,-1.0561,-1.1323,-1.1685,-1.189,-1.2114,-1.2394,-1.2469,-1.2415,-1.2184,-1.1824,-1.1316,-1.0648,-0.9586,-0.871,-0.8518,-0.8256,-0.7945,-0.7556,-0.7314,-0.7152,-0.7042,-0.6895,-0.6635,-0.6297,-0.62,-0.5905,-0.5199,-0.5136,-0.4948,-0.4515,-0.4491,-0.4491,-0.4491,-0.4491,-0.4377,-0.407,-0.4098,-0.3959,0.0,0.0,0.0,0.0,0.0,0.0,0.0,0.0,0.0,0.0,0.0,0.0,0.0,0.0,0.0,0.0,0.0,0.0,0.0,0.0,0.0,0.0,0.0,0.0,0.0,-0.9443,-1.0441,-1.019,-1.165,-1.2257,-1.1254,-1.1846,-1.2441,-1.2806,-1.352,-1.4162,-1.4649,-1.4856,-1.5137,-1.5531,-1.5538,-1.5631,-1.5778,-1.5784,-1.5784,-1.5784,-1.5784,-1.5784,-1.5784,-1.5784,-1.5784,-1.5784,-1.5784,-1.5784,-1.5784,-1.5784,-1.4627,-1.278,-1.2566,-1.2463,-1.2486,-1.2613,-1.2676,-1.2688,-1.2672,-1.2421,-1.1943,-1.1364,-1.1064,-1.0857,-1.0667,-1.1083,-1.1601,-1.1601,-1.2252,-1.2945,-1.2945,-1.306,-1.316,-1.2991,-1.2945,-1.2857,-1.2556,-1.2342,-1.2174,-1.2074,-1.1004,-1.0037,-0.9724,-0.9451,-0.915,-0.874,-0.8447,-0.8254,-0.8231,-0.802,-0.7717,-0.7345,-0.7273,-0.6906,-0.6101,-0.5862,-0.5598,-0.5234,-0.5032,-0.4901,-0.4842,-0.4842,-0.4732,-0.4519,-0.4491,-0.4491,-0.4491,0.0,0.0,0.0,0.0,0.0,0.0,0.0,0.0,0.0,0.0,0.0,0.0,0.0,0.0,0.0,0.0,0.0,0.0,0.0,0.0,0.0,0.0,0.0,-0.9352,-1.0738,-1.1948,-1.2096,-1.3622,-1.4307,-1.3494,-1.4146,-1.4764,-1.506,-1.5335,-1.5624,-1.5859,-1.5879,-1.5879,-1.5879,-1.5825,-1.5784,-1.5784,-1.5825,-1.5879,-1.5879,-1.5879,-1.5879,-1.5879,-1.5825,-1.5784,-1.5784,-1.5784,-1.5784,-1.5784,-1.5784,-1.5784,-1.5751,-1.5518,-1.5411,-1.5411,-1.5411,-1.5411,-1.5364,-1.5122,-1.4783,-1.4489,-1.4208,-1.3908,-1.3567,-1.3333,-1.324,-1.324,-1.3227,-1.3233,-1.324,-1.3227,-1.3233,-1.324,-1.3227,-1.3227,-1.314,-1.2864,-1.279,-1.2697,-1.2371,-1.185,-1.1329,-1.1069,-1.0814,-1.0713,-1.0962,-1.0274,0.0,-0.9754,-0.911,-0.8425,-0.785,-0.7688,-0.7464,-0.7177,-0.6617,-0.6381,-0.6586,-0.6113,-0.5736,-0.555,-0.5538,-0.5218,-0.457,-0.457,-0.457,-0.457,0.0,0.0,0.0,0.0,0.0,0.0,0.0,0.0,0.0,0.0,0.0,0.0,0.0,0.0,0.0,0.0,0.0,0.0,0.0,0.0,0.0,-1.3008,-1.376,-1.3781,-1.483,-1.5913,-1.6651,-1.7589,-1.8045,-1.7806,-1.799,-1.7795,-1.7001,-1.785,-1.8026,-1.7217,-1.7178,-1.7178,-1.7178,-1.6292,-1.5784,-1.5784,-1.6709,-1.7178,-1.7178,-1.7178,-1.7178,-1.7131,-1.6197,-1.5784,-1.5784,-1.5784,-1.5784,-1.5784,-1.5784,-1.5784,-1.5771,-1.5745,-1.5712,-1.5712,-1.5712,-1.5712,-1.5671,-1.5378,-1.5084,-1.4874,-1.4794,-1.4376,-1.3988,-1.4122,-1.4015,-1.3801,-1.354,-1.3681,-1.3801,-1.354,-1.3681,-1.3788,-1.3533,-1.3487,-1.34,-1.3146,-1.2945,-1.2757,-1.2677,-1.2318,-1.1971,-1.1712,-1.1383,-1.1216,-1.1296,-1.0922,0.0,-1.0626,-1.0308,-0.9999,-0.9813,-0.9756,-0.9334,-0.8276,-0.8036,-0.7546,-0.6645,-0.6452,-0.6348,-0.6312,-0.6312,-0.6204,-0.6018,-0.6018,-0.6018,0.0,0.0,0.0,0.0,0.0,0.0,0.0,0.0,0.0,0.0,0.0,0.0,0.0,0.0,0.0,0.0,0.0,0.0,0.0,0.0,0.0,0.0,-1.555,-1.675,-1.8069,-1.7952,-1.802,-1.8721,-1.9239,-1.9497,-1.9497,-1.9497,-1.9222,-1.8503,-1.9085,-1.9177,-1.8503,-1.8457,-1.8457,-1.8457,-1.7762,-1.7343,-1.7343,-1.8087,-1.8457,-1.8457,-1.8457,-1.8457,-1.8411,-1.7669,-1.7343,-1.7343,-1.7343,-1.7343,-1.7343,-1.7343,-1.7343,-1.7257,0.0,0.0,0.0,0.0,-1.5784,-1.5758,-1.5631,-1.5391,-1.5169,-1.5048,-1.4649,-1.4282,-1.4322,-1.4222,-1.4048,-1.3874,-1.3955,-1.4048,-1.3874,-1.3955,-1.4168,-1.4427,-1.4461,-1.454,-1.4731,-1.4276,-1.3956,-1.4265,-1.3647,0.0,-1.3476,-1.2473,-1.157,-1.1409,-1.1182,-1.1035,-1.1156,-1.0847,-1.064,-1.076,-1.0667,-1.0197,-0.9164,-0.8824,0.0,0.0,0.0,-0.7116,-0.7052,-0.675,0.0,0.0,0.0,-0.6588,-0.6588,-0.6588,0.0,0.0,-0.6118,-0.6199,0.0,0.0,0.0,0.0,0.0,0.0,0.0,0.0,0.0,0.0,0.0,0.0,0.0,0.0,0.0,0.0,-1.8033,-1.9411,-2.1646,-2.0331,-1.922,-1.9516,-1.9749,-1.9906,-1.9906,-1.9906,-1.9852,-1.9716,-1.9807,-1.9852,-1.9724,-1.9716,0.0,0.0,0.0,-1.9497,-1.9497,-1.9625,-1.9716,-1.9716,-1.9716,-1.9716,-1.9716,-1.9534,-1.9497,-1.9497,-1.9497,-1.9497,-1.9497,-1.9497,-1.9497,-1.926,-1.707,-1.6244,-1.6244,-1.6244,-1.6244,-1.619,-1.6156,0.0,0.0,-1.5275,-1.4889,-1.4476,-1.4215,-1.4193,-1.4292,-1.4292,-1.437,-1.4454,-1.4454,-1.4454,-1.4699,-1.5662,-1.5861,-1.6065,-1.6786,-1.6174,-1.5661,-1.6256,-1.531,-1.4664,-1.5569,-1.3721,-1.2001,-1.1702,-1.1344,-1.1182,-1.1443,-1.0969,-1.0754,-1.1009,0.0,0.0,-0.978,-0.9252,-0.8893,-0.8805,-0.8291,-0.7964,-0.7884,-0.7247,-0.6911,-0.6964,-0.6964,-0.6964,-0.6964,-0.6911,-0.7236,-0.7919,-0.7101,-0.6777,0.0,0.0,0.0,0.0,0.0,0.0,0.0,0.0,0.0,0.0,0.0,0.0,0.0,0.0,0.0,-1.8581,-1.9869,-2.105,-2.2204,-2.2279,-2.2239,-2.2324,-2.2356,-2.2403,-2.2403,-2.2403,-2.1996,-2.1025,-2.1854,-2.1996,-2.098,-2.0935,-2.0935,-2.0935,-1.9988,-1.9497,-1.9497,-2.0486,-2.0935,-2.0935,-2.0935,0.0,-2.0935,-1.9943,-1.9497,-1.9497,-1.9497,-1.9497,-1.9497,-1.9497,-1.9497,-1.9443,-1.8985,-1.8764,-1.8764,-1.8764,-1.8764,-1.8724,-1.8401,-1.7673,-1.68,-1.6396,-1.5484,-1.4509,-1.4456,-1.4887,0.0,-1.5372,-1.5992,-1.669,-1.669,-1.669,-1.6731,-1.6927,-1.6968,-1.7033,-1.7203,-1.6908,-1.6509,-1.6294,-1.5827,-1.5454,-1.5347,-1.4227,-1.3345,-1.3244,-1.2374,-1.1752,-1.1812,-1.1303,-1.1022,-1.1275,-1.1082,-1.0675,-1.008,-0.9929,-0.9558,-0.8831,-0.8692,-0.8716,-0.8898,-0.876,-0.8813,-0.9099,-0.9099,-0.9099,-0.9099,-0.8813,-0.891,-0.9299,-0.8054,-0.7803,0.0,0.0,0.0,0.0,0.0,0.0,0.0,0.0,0.0,0.0,0.0,-1.5689,-1.6263,0.0,-1.919,-2.0401,-2.1309,-2.2257,-2.3463,-2.3831,-2.3757,-2.3178,-2.3091,-2.3091,-2.3091,-2.3091,-2.2862,-2.2262,-2.2765,-2.2818,-2.2217,-2.2217,-2.2217,-2.2217,-2.1632,-2.1311,-2.1311,-2.1898,-2.2217,-2.2217,-2.2217,-2.2217,-2.2173,-2.1587,-2.1311,-2.1311,-2.1311,-2.1311,-2.1311,-2.1311,-2.1311,-2.1311,-2.1311,-2.0539,-1.9497,-1.9497,-1.9497,-1.9439,-1.8994,-1.8463,-1.7953,-1.7616,-1.6891,-1.6191,-1.6485,-1.6672,-1.6901,-1.7109,-1.7372,-1.7656,-1.7656,-1.7656,-1.7729,-1.8072,-1.8288,-1.8536,-1.8873,-1.843,-1.8031,-1.8341,-1.7528,-1.6909,-1.746,-1.6368,-1.5168,-1.4316,-1.37,-1.3314,-1.3314,-1.2702,-1.2425,-1.2721,-1.1927,-1.1206,-1.0732,-1.0046,-0.9524,-0.9265,-0.9105,-0.9124,-0.9452,-0.9459,-0.9532,-0.9708,-0.9715,-0.9715,-0.9715,-0.9532,-0.9539,-0.9673,-0.9006,-0.8905,0.0,0.0,0.0,0.0,0.0,0.0,0.0,0.0,-1.466,-1.5535,-1.683,-1.8084,-1.8907,-2.0101,-2.1252,-2.2205,-2.2681,-2.3355,-2.4618,-2.4999,-2.4798,-2.3854,-2.3767,-2.3681,-2.3464,-2.343,-2.343,-2.343,-2.3222,-2.3091,-2.3091,-2.3299,-2.3343,-2.3101,-2.3299,-2.3299,-2.3091,-2.3091,-2.3091,-2.3091,-2.3091,-2.3091,-2.3091,-2.3091,-2.3091,-2.3091,-2.3091,-2.3091,-2.3091,-2.3091,-2.3091,-2.3091,-2.3091,-2.1908,-2.0223,-2.0223,-2.0127,-2.0024,-1.9628,-1.935,-1.9106,-1.8834,-1.8437,-1.8135,-1.8478,-1.8506,-1.8507,-1.8803,-1.8845,-1.8748,-1.8748,-1.8748,-1.8861,-1.9334,-1.969,-2.0052,-2.0498,-1.9923,-1.9532,-2.0294,-1.9184,-1.8462,-1.9597,-1.8579,-1.7054,-1.5419,-1.5032,-1.4904,-1.4794,-1.4214,-1.3899,-1.4098,-1.2925,-1.1982,-1.1606,-1.0436,-0.9869,-1.015,-0.9925,-0.9841,-1.0009,-1.0022,-0.9962,-0.9883,-0.9883,-0.9883,-0.9883,-0.9793,-0.98,-0.9883,-0.9793,-0.974,-1.1791,-1.2112,-1.3049,-1.3883,-1.4615,-1.5726,0.0,-1.8305,-1.827,-1.9145,-2.0062,-2.0957,-2.1652,-2.206,-2.2641,-2.3743,-2.4294,-2.4607,-2.4777,-2.5672,-2.6265,-2.6141,-2.6099,-2.5724,-2.4713,-2.4617,-2.4617,-2.4617,-2.3681,-2.3091,-2.3091,-2.4049,-2.4168,-2.3135,-2.4092,-2.4125,-2.3091,-2.3091,-2.3091,-2.3091,-2.3091,-2.3091,-2.3091,-2.3091,-2.3091,-2.3091,-2.3091,-2.3091,-2.3091,-2.3091,-2.3091,-2.3091,-2.3091,-2.2916,-2.2687,-2.2687,-2.2457,-2.2174,-2.2083,-2.1392,-2.0427,-2.0119,-1.9514,-1.8918,-1.8671,-1.9238,-1.9973,-2.0018,-2.0708,-2.1467,-2.1467,-2.1467,-2.1402,-2.1059,-2.0991,-2.0944,-2.0664,-2.0527,-2.0333,-2.0021,-1.9789,-1.9587,-1.9414,-1.9204,-1.8564,-1.7153,-1.6192,-1.5569,-1.5174,-1.4811,-1.4454,-1.4115,-1.3686,-1.3137,-1.2501,-1.2044,-1.1803,-1.1844,-1.1803,-1.1567,-1.1152,-1.113,-1.0925,-1.0517,-1.0492,-1.0492,-1.0492,-1.0194,-1.02,-1.0486,-1.0194,-0.9927,-1.3179,-1.3914,-1.4982,-1.559,-1.6699,-1.8018,-1.9346,-1.9707,-2.0189,-2.169,-2.2501,-2.3297,-2.4476,-2.4783,-2.4974,-2.5472,-2.5677,-2.6005,-2.6644,-2.7105,-2.7336,-2.6994,-2.7538,-2.7327,-2.5942,-2.5797,-2.5797,-2.5797,-2.5347,-2.5062,-2.5062,-2.5515,-2.5557,-2.5105,-2.5557,-2.5557,-2.5062,-2.4425,-2.4082,-2.4092,-2.343,-2.3091,-2.3091,-2.3091,-2.3091,-2.3091,-2.3091,-2.3091,-2.3091,-2.3091,-2.3091,-2.3091,-2.3091,-2.3091,-2.3091,-2.3091,-2.2984,-2.2799,-2.2598,-2.2159,-2.1717,-2.158,-2.1179,-2.0805,-2.1133,-2.137,-2.158,-2.1816,-2.2072,-2.2246,-2.2246,-2.2246,-2.2139,-2.1719,-2.1807,-2.1865,-2.1426,-2.1378,-2.1201,-2.0771,-2.0469,-2.0234,-2.0096,-1.9814,-1.9442,-1.8879,-1.8025,-1.7359,-1.7194,-1.6661,-1.5821,-1.4702,-1.4428,-1.3929,-1.2917,-1.2572,-1.2455,-1.2605,-1.248,-1.2348,-1.2274,-1.2289,-1.2209,-1.1996,-1.2004,-1.1756,-1.1288,-1.1645,-1.1614,-1.132,-1.1645,-1.1715,-1.4643,-1.5806,-1.7175,-1.7913,-1.9349,-2.0708,-2.1244,-2.1724,-2.2463,-2.3996,-2.4596,-2.5226,-2.647,-2.6463,-2.6352,-2.6678,-2.6718,-2.7036,-2.7952,-2.8215,-2.8183,-2.7796,-2.8311,-2.8221,-2.7039,-2.68,-2.6775,-2.6912,-2.6678,-2.6524,-2.6524,-2.676,-2.6801,-2.6513,-2.6801,-2.6801,-2.6524,-2.5672,-2.5252,-2.5252,-2.4425,-2.4059,-2.4059,-2.4059,-2.3854,-2.3551,-2.3551,-2.3387,-2.3091,-2.3091,-2.3091,-2.3091,-2.3091,-2.3091,-2.3091,-2.3091,-2.3023,-2.2896,-2.2711,-2.2607,-2.2529,-2.2646,-2.248,-2.2344,-2.2916,-2.2886,-2.2744,-2.3013,-2.2877,-2.2685,-2.2685,-2.2685,-2.2578,-2.2158,-2.2295,-2.2402,-2.1982,-2.1885,-2.1787,-2.1475,-2.1152,-2.0967,-2.0967,-2.0664,-2.042,-2.0293,-1.9648,-1.9007,-1.8646,-1.79,-1.6934,-1.5722,-1.538,-1.4845,-1.3939,-1.3572,-1.3468,-1.3648,-1.3473,-1.3359,-1.3326,-1.3334,-1.3221,-1.3009,-1.3009,-1.2696,-1.2143,-1.2734,-1.2696,-1.2143,-1.2726,-1.3009,-1.6004,-1.7699,-1.961,-2.1249,-2.2719,-2.3985,-2.484,-2.5357,-2.5771,-2.6285,-2.6397,-2.659,-2.7184,-2.637,-2.5972,-2.7089,-2.7296,-2.7474,-2.8012,-2.8549,-2.8875,-2.885,-2.8424,-2.8098,-2.8074,-2.7559,-2.751,-2.8008,-2.7087,-2.6524,-2.6524,-2.7493,-2.7562,-2.6524,-2.7522,-2.7562,-2.6513,-2.6483,-2.6431,-2.6431,-2.6389,-2.64,-2.64,-2.64,-2.5797,-2.4745,-2.4745,-2.4125,-2.3091,-2.3091,-2.3091,-2.3091,-2.3091,-2.3091,-2.3091,-2.3091,-2.2838,-2.2588,-2.2945,-2.2808,-2.2578,-2.2945,-2.3062,-2.3062,-2.3091,-2.3081,-2.3081,-2.3091,-2.3081,-2.3081,-2.3081,-2.3081,-2.2974,-2.2598,-2.25,-2.2402,-2.1982,-2.1885,-2.1885,-2.1865,-2.1855,-2.1846,-2.1846,-2.1836,-2.168,-2.122,-2.0801,-2.0049,-1.8763,-1.79,-1.7373,-1.7344,-1.6572,-1.6055,-1.6015,-1.5585,-1.5313,-1.5323,-1.5313,-1.4982,-1.4213,-1.4154,-1.3786,-1.3009,-1.3009,-1.2978,-1.2948,-1.2978,-1.2978,-1.2978,-1.2978,-1.3009,-1.8382,-2.0053,-2.1707,-2.3231,-2.4382,-2.5318,-2.5914,-2.6154,-2.6425,-2.6936,-2.6446,-2.6094,-2.6662,-2.6116,-2.5984,-2.7127,-2.7594,-2.8149,-2.9112,-2.9372,-2.9227,-2.8473,-2.8222,-2.8109,-2.8109,-2.8251,-2.8433,-2.8617,-2.8663,-2.8712,-2.8712,-2.904,-2.9067,-2.8712,-2.904,-2.9028,-2.8712,-2.7947,-2.7562,-2.7562,-2.6842,-2.6524,-2.6524,-2.6524,-2.6307,-2.5933,-2.5933,-2.5724,-2.5347,-2.5347,-2.5347,-2.5347,-2.5347,-2.5347,-2.5347,-2.5347,-2.4788,-2.3931,-2.3337,-2.3003,-2.2906,-2.3052,-2.3091,-2.3091,-2.3091,-2.3091,-2.3091,-2.3091,-2.3091,-2.3091,-2.3091,-2.3091,-2.3062,-2.2916,-2.2886,-2.2847,-2.2744,-2.2715,-2.2637,-2.2353,-2.2305,-2.2207,-2.1934,-2.1885,-2.1738,-2.1259,-2.0605,-1.9775,-1.8724,-1.8354,-1.7857,-1.7041,-1.6658,-1.6387,-1.6124,-1.5958,-1.5977,-1.6239,-1.6258,-1.6135,-1.5878,-1.5602,-1.5319,-1.5067,-1.4738,-1.4332,-1.3786,-1.4323,-1.4332,-1.3825,-1.4332,-1.4599,-2.0892,-2.2639,-2.4235,-2.5712,-2.6647,-2.7308,-2.7596,-2.7526,-2.7297,-2.7059,-2.6251,-2.5543,-2.5336,-2.4808,-2.4858,-2.6189,-2.6703,-2.7457,-2.8976,-2.9189,-2.8988,-2.8461,-2.8235,-2.8109,-2.8109,-2.8612,-2.8976,-2.9227,-2.9578,-2.9792,-2.9792,-2.9792,-2.9792,-2.9792,-2.9792,-2.9792,-2.9792,-2.9067,-2.8727,-2.8688,-2.7999,-2.7678,-2.7678,-2.7678,-2.7464,-2.7087,-2.7087,-2.6842,-2.6524,-2.6524,-2.6524,-2.6524,-2.6524,-2.6524,-2.6524,-2.6524,-2.6058,-2.5252,-2.4092,-2.343,-2.3091,-2.3091,-2.3091,-2.3091,-2.3091,-2.3091,-2.3091,-2.3091,-2.3091,-2.3091,-2.3091,-2.3091,-2.3091,-2.3091,-2.3091,-2.3091,-2.3091,-2.3091,-2.3013,-2.275,-2.2691,-2.2646,-2.2383,-2.209,-2.1787,-2.1514,-2.0713,-1.9834,-1.8975,-1.8695,-1.8227,-1.7262,-1.7051,-1.6846,-1.6594,-1.6418,-1.6426,-1.6687,-1.6697,-1.6697,-1.6697,-1.6299,-1.6173,-1.6299,-1.5869,-1.5398,-1.4881,-1.5398,-1.5291,-1.4628,-1.5167,-1.541,-2.3462,-2.5308,-2.7002,-2.8574,-2.939,-2.9779,-2.9716,-2.9239,-2.8335,-2.6713,-2.5845,-2.4858,0.0,-2.256,-2.2833,-2.452,-2.4917,-2.5794,-2.7978,-2.8306,-2.8508,-2.9012,-2.8609,-2.828,-2.828,-2.876,-2.9315,-2.9896,-2.9856,-2.9792,-2.9792,-2.9792,-2.9792,-2.9792,-2.9792,-2.9792,-2.9792,-2.9792,-2.9792,-2.9792,-2.9792,-2.9792,-2.9792,-2.9792,-2.9197,-2.8176,-2.8176,-2.7614,-2.6689,-2.6689,-2.6689,-2.6689,-2.6689,-2.6689,-2.6689,-2.6689,-2.6648,-2.6431,-2.5336,-2.4211,-2.3266,-2.3222,-2.3178,-2.3178,-2.3135,-2.3091,-2.3091,-2.3091,-2.3091,-2.3091,-2.3091,-2.3091,-2.3091,-2.3091,-2.3091,-2.3091,-2.3091,-2.3091,-2.3091,-2.3091,-2.3091,-2.3091,-2.3091,-2.2461,-2.1955,-2.1967,-2.1272,-2.036,-1.947,-1.8936,-1.8461,-1.8057,-1.7637,-1.7383,-1.7383,-1.7002,-1.6746,-1.6765,-1.6765,-1.6765,-1.6765,-1.6367,-1.6369,-1.6726,-1.6328,-1.6114,-1.6095,-1.6095,-1.587,-1.541,-1.541,-1.541,-2.5946,-2.7349,-2.8499,-2.9365,-2.9679,-2.9578,-2.8725,-2.7783,-2.665,-2.4971,-2.3206,-2.1685,-2.0803,-2.135,-2.2493,-2.422,-2.6418,-2.8592,-3.0441,-3.1123,-3.137,-3.1072,0.0,-3.085,-3.085,-3.0986,-3.1289,-3.1861,-3.0608,-2.9792,-2.9792,-2.9792,-2.9792,-2.9792,-2.9792,-2.9792,-2.9792,-2.9792,-2.9792,-2.9792,-2.9792,-2.9792,-2.9792,-2.9792,-2.9624,-2.9365,-2.9365,-2.9209,-2.8961,-2.8961,-2.8961,-2.8961,-2.8961,-2.8961,-2.8961,-2.8961,-2.841,-2.7643,-2.7348,-2.6532,-2.5473,-2.4628,-2.4382,-2.4211,-2.3343,-2.3091,-2.3091,-2.3091,-2.3091,-2.3091,-2.3091,-2.3091,-2.3091,-2.3091,-2.3091,-2.3091,-2.3091,-2.3091,-2.3091,-2.3091,-2.3091,-2.3091,-2.3091,-2.2705,-2.2478,-2.2879,-2.2506,-2.1586,-1.9976,-1.9385,-1.8838,-1.8086,-1.7637,-1.7383,-1.7383,-1.7285,-1.7353,-1.7666,-1.7686,-1.7686,-1.7686,-1.7275,-1.7132,-1.7217,-1.6787,-1.6396,-1.6095,-1.6095,-1.587,-1.541,-1.541,-1.541,-2.8777,-2.9911,-3.06,-3.0941,-3.0579,-2.9839,-2.863,-2.7067,-2.5243,-2.2965,-2.1142,-1.9775,-1.921,-1.9734,-2.1004,-2.3258,-2.5531,-2.7828,-3.0157,-3.1233,-3.1875,0.0,-3.2166,0.0,-3.2166,-3.2166,-3.2269,-3.2579,-3.1623,-3.1033,-3.1033,-3.1033,-3.1033,-3.1033,-3.1033,-3.1033,-3.1033,-3.1033,-3.0809,-3.0419,-3.0419,-3.0216,-2.9792,-2.9792,-2.9792,-2.9792,-2.9792,-2.9792,-2.9792,-2.9792,-2.9792,-2.9792,-2.9792,-2.9792,-2.9792,-2.9792,-2.9404,-2.8858,-2.8858,-2.845,-2.7678,-2.6088,-2.5546,-2.5336,-2.4178,-2.4178,-2.4478,-2.4006,-2.3844,-2.3844,-2.3844,-2.3464,-2.3091,-2.3091,-2.3091,-2.3091,-2.3091,-2.3091,-2.3266,-2.3757,-2.3844,-2.4006,-2.452,-2.4221,-2.3958,-2.4035,-2.3679,-2.2917,-2.1632,-2.1115,-2.0525,-1.9607,-1.8959,-1.8478,-1.8243,-1.7879,-1.7764,-1.7998,-1.8008,-1.8008,-1.8008,-1.7607,-1.7471,-1.7656,-1.7236,-1.6894,-1.6672,-1.6445,-1.6133,-1.5693,-1.5693,-1.5693,-3.1413,-3.2242,-3.2593,-3.2593,-3.1523,-3.0143,-2.8771,-2.6543,-2.3925,-2.1088,-1.9636,-1.8736,-1.8275,-1.8433,-1.9551,-2.2311,-2.3958,-2.5966,-2.9041,-3.0452,-3.1626,-3.2856,-3.2996,-3.2996,-3.2996,-3.2996,-3.2996,-3.2996,-3.2996,-3.2855,-3.2593,-3.2593,-3.2593,-3.2593,-3.2593,-3.2593,-3.2593,-3.2593,-3.2177,-3.1389,-3.1389,-3.0983,-3.019,-3.019,-3.019,-3.019,-3.019,-3.0113,-3.0011,-3.0011,-2.9895,-2.9792,-2.9792,-2.9792,-2.9792,-2.9792,-2.9792,-2.9792,-2.9792,-2.9792,-2.9456,-2.7383,-2.6719,-2.6513,-2.5378,-2.5724,-2.6307,-2.5294,-2.5041,-2.5041,-2.5041,-2.4296,-2.3551,-2.3551,-2.3551,-2.3517,-2.3343,-2.3343,-2.3637,-2.4628,-2.4914,-2.5336,-2.6348,-2.6154,-2.5745,-2.5357,-2.4898,-2.4438,-2.405,-2.336,-2.2577,-2.1677,-2.0858,-2.019,-1.9719,-1.8944,-1.8383,-1.8291,-1.8207,-1.811,-1.8008,-1.7656,-1.7637,-1.8008,-1.7656,-1.7412,-1.7295,-1.6973,-1.6553,-1.6095,-1.6153,-1.6183,-3.2248,-3.2524,-3.2593,-3.2593,-3.122,-2.9416,-2.7687,-2.4996,0.0,0.0,-1.9043,-1.8235,-1.8119,-1.939,-2.1148,-2.3243,-2.5555,-2.819,-3.1427,-3.2549,-3.3509,0.0,-3.5001,-3.5001,-3.5001,-3.5001,-3.5001,-3.5001,-3.5001,-3.4308,-3.2678,-3.2593,-3.2593,-3.2593,-3.2593,-3.2593,-3.2593,-3.2593,-3.2522,-3.2357,-3.2357,-3.2285,-3.2105,-3.2105,-3.2105,-3.2105,-3.2105,-3.1683,-3.097,-3.097,-3.0482,-2.9792,-2.9792,-2.9792,-2.9792,-2.9792,-2.9792,-2.9792,-2.9792,-2.9792,-2.9573,-2.8267,-2.7804,-2.7602,-2.6543,-2.6348,-2.6483,-2.6265,-2.6224,-2.6224,-2.6224,-2.6058,-2.5891,-2.5891,-2.5891,-2.5641,-2.4713,-2.45,-2.4542,-2.4745,-2.5546,-2.6265,-2.6483,-2.6446,-2.6506,-2.6863,-2.6435,-2.6241,-2.6611,-2.4448,-2.2848,-2.2667,-2.217,-2.1799,-2.1709,-2.1163,-2.0496,-1.9774,-1.9318,-1.8754,-1.8042,-1.7939,-1.7939,-1.8008,-1.7939,-1.7549,-1.6814,-1.7129,-1.6887,-1.6105,-1.6445,-1.659,-3.3715,-3.4124,-3.4037,-3.3691,-3.1591,-2.9144,-2.722,0.0,0.0,0.0,-1.8667,-1.8204,-1.8458,-1.9532,-2.0996,-2.2922,-2.4521,-2.6806,-3.0462,-3.1539,-3.2691,-3.4726,-3.5295,-3.5504,-3.5504,-3.5504,-3.5504,-3.5504,-3.5504,-3.51,-3.4158,-3.4124,-3.4124,-3.4124,-3.4124,-3.4124,-3.4124,-3.4124,-3.3871,-3.3345,-3.3345,-3.3066,-3.2593,-3.2593,-3.2593,-3.2593,-3.2593,-3.2357,-3.1924,-3.1924,-3.1646,-3.1206,-3.0733,-3.052,-3.0482,-2.9972,-2.9792,-2.9792,-2.9792,-2.9792,-2.9702,-2.9145,-2.8976,-2.8779,-2.7654,-2.7747,-2.8079,-2.7493,-2.7331,-2.7331,-2.7331,-2.6924,-2.6524,-2.6524,-2.6524,-2.6348,-2.5797,-2.5672,-2.5839,-2.6397,-2.6942,-2.7533,-2.8131,-2.8211,-2.8191,-2.8126,-2.7677,-2.7447,-2.7673,-2.6003,-2.4656,-2.4335,-2.3685,-2.3188,-2.291,-2.1979,-2.1219,-2.0784,-2.027,-1.9781,-1.9365,-1.9365,-1.9365,-1.9365,-1.9365,-1.8925,-1.8058,-1.8037,-1.759,-1.6789,-1.7389,-1.7458,-3.4535,-3.528,-3.534,-3.4683,-3.1928,-2.8918,-2.7021,-2.3622,0.0,-1.9309,-1.8727,-1.8574,-1.8987,-1.9498,-2.0484,-2.2387,-2.3107,-2.4807,-2.8801,-2.9909,-3.13,-3.3979,-3.4876,0.0,-3.5489,-3.5504,-3.5504,-3.5504,-3.5504,-3.5504,-3.5504,-3.5504,-3.5504,-3.5504,-3.5504,-3.5504,-3.5504,-3.5504,-3.51,-3.4312,-3.4312,-3.3939,-3.322,-3.322,-3.322,-3.322,-3.322,-3.3101,-3.289,-3.289,-3.2784,-3.2522,-3.1779,-3.1499,-3.1389,-3.0671,-3.0394,-3.0394,-3.0394,-3.0292,-3.0113,-3.0113,-2.996,-2.9624,-2.8727,-2.9106,-2.9624,-2.8727,-2.8466,-2.8466,-2.8466,-2.7827,-2.7221,-2.7221,-2.7017,-2.6842,-2.6842,-2.6842,-2.7087,-2.7924,-2.8307,-2.8767,-2.9663,-2.9792,-2.9641,-2.9176,-2.8637,-2.8285,-2.8285,-2.7419,-2.6625,-2.6025,-2.5237,-2.4607,-2.4186,-2.3003,-2.2155,-2.1853,-2.1354,-2.0928,-2.059,-2.059,-2.059,-2.059,-2.059,-2.0213,-1.9435,-1.9169,-1.8647,-1.794,-1.8679,-1.8699,-3.3454,-3.4577,-3.534,-3.4683,-3.1554,-2.8323,-2.6916,0.0,-2.0512,-1.9785,-1.9584,-1.9566,-1.9621,-1.968,-2.037,-2.2388,-2.2748,-2.417,-2.8128,-2.925,-3.067,-3.3275,0.0,0.0,-3.5444,-3.5504,-3.5504,-3.5504,-3.5504,-3.5504,-3.5504,-3.5504,-3.5504,-3.5504,-3.5504,-3.5504,-3.5504,-3.5504,-3.5457,-3.5359,-3.5359,-3.5326,-3.5213,-3.5213,-3.5213,-3.5213,-3.5213,-3.4739,-3.3876,-3.3876,-3.338,-3.2593,-3.25,-3.2464,-3.2464,-3.2393,-3.2357,-3.2357,-3.2357,-3.1779,-3.1068,-3.1068,-3.0482,-2.9792,-2.9663,-2.9702,-2.9792,-2.9663,-2.9624,-2.9624,-2.9624,-2.9585,-2.9507,-2.9507,-2.8688,-2.7964,-2.7964,-2.7964,-2.7964,-2.8084,-2.8937,-2.9663,-2.9792,-2.9792,-2.9779,-2.9729,-2.9227,-2.8813,-2.8813,-2.8335,-2.7745,-2.7193,-2.6643,-2.6283,-2.6233,-2.5594,-2.4681,-2.3399,-2.2811,-2.1938,-2.0634,-2.059,-2.059,-2.059,-2.059,-2.0335,-1.9856,-2.0227,-2.0161,-1.9665,-2.0184,-2.0395,-3.2407,-3.3589,-3.4143,-3.3455,-3.0313,-2.7036,-2.5696,0.0,-2.0019,-1.9768,-1.9708,-1.9708,-1.9708,-1.9708,-2.0232,-2.1849,-2.1754,-2.2742,-2.6288,-2.7021,-2.8457,-3.1869,-3.2901,-3.3873,-3.537,-3.5504,-3.5504,-3.5504,-3.5504,-3.5701,-3.6134,-3.5718,-3.5504,-3.5504,-3.5504,-3.5504,-3.5504,-3.5504,-3.5504,-3.5504,-3.5504,-3.5504,-3.5504,-3.5504,-3.5504,-3.5504,-3.5504,-3.5279,-3.4905,-3.4905,-3.4691,-3.4308,-3.3671,-3.3449,-3.338,-3.282,-3.2593,-3.2593,-3.2593,-3.2357,-3.2033,-3.2033,-3.1402,-3.052,-2.9972,-2.9792,-2.9792,-2.9792,-2.9792,-2.9792,-2.9792,-2.9792,-2.9792,-2.9792,-2.9443,-2.9106,-2.9106,-2.9106,-2.9106,-2.9106,-2.9495,-2.9792,-2.9792,-2.9792,-2.9792,-2.9792,-2.9302,-2.9013,-2.9402,-2.8662,-2.8147,-2.826,-2.7482,-2.6851,-2.6524,-2.5971,-2.5365,-2.4809,-2.3964,-2.3228,-2.265,-2.2294,-2.2082,-2.2082,-2.2082,-2.1758,-2.1082,-2.1292,-2.1029,-2.0331,-2.104,-2.1101,-3.0654,-3.2083,-3.2701,-3.1966,-2.9163,-2.6151,0.0,0.0,-1.9708,-1.9708,-1.9708,-1.9708,-1.9708,-1.9708,-2.0142,-2.147,-2.1306,-2.1989,-2.4889,-2.5659,-2.7096,-3.0255,0.0,-3.2706,-3.4711,-3.5265,-3.5587,-3.5814,-3.5846,-3.6149,-3.6904,-3.6446,-3.6164,-3.6164,-3.6164,-3.6164,-3.6164,-3.6164,-3.6164,-3.6164,-3.6164,-3.6164,-3.6164,-3.6164,-3.6164,-3.6164,-3.6164,-3.6053,-3.5846,-3.5846,-3.5701,-3.5439,-3.4725,-3.4428,-3.4361,-3.3685,-3.3463,-3.3463,-3.3463,-3.3241,-3.3031,-3.3031,-3.2393,-3.1499,-3.0809,-3.0254,-2.9792,-2.9792,-2.9792,-2.9792,-2.9792,-2.9792,-2.9792,-2.9792,-2.9792,-2.9792,-2.9792,-2.9792,-2.9792,-2.9792,-2.9792,-2.9792,-2.9792,-2.9792,-2.9792,-2.9792,-2.9453,-2.934,-2.9741,-2.9101,-2.8687,-2.8863,-2.8235,-2.7482,-2.6801,-2.6361,-2.595,-2.5624,-2.4883,-2.433,-2.4017,-2.3572,-2.3283,-2.3108,-2.3108,-2.2823,-2.2249,-2.2249,-2.1928,-2.1353,-2.197,-2.1939,-2.8011,-2.9939,-3.1207,-3.0352,-2.8293,-2.593,0.0,-2.144,-1.9708,-1.9708,-1.9708,-1.9708,-1.9708,-1.9708,-2.0142,-2.147,-2.1695,-2.2368,-2.4335,-2.5749,-2.7096,0.0,-2.9759,-3.1315,-3.332,-3.4726,-3.5814,-3.6523,-3.6584,-3.6934,-3.7748,-3.7793,-3.7793,-3.7793,-3.7793,-3.7793,-3.7793,-3.7793,-3.7793,-3.7793,-3.7793,-3.7793,-3.7793,-3.7793,-3.7793,-3.7793,-3.7793,-3.7338,-3.6584,-3.6584,-3.6165,-3.5504,-3.5504,-3.5472,-3.5472,-3.5472,-3.5472,-3.5472,-3.5472,-3.4806,-3.3993,-3.3993,-3.3345,-3.2558,-3.2558,-3.1267,-2.9792,-2.9792,-2.9792,-2.9792,-2.9792,-2.9792,-2.9792,-2.9792,-2.9792,-2.9792,-2.9792,-2.9792,-2.9792,-2.9792,-2.9792,-2.9792,-2.9792,-2.9792,-2.9792,-2.9792,-2.9779,-2.9779,-2.9792,-2.9779,-2.9566,-2.895,-2.8888,-2.8461,-2.7369,-2.7304,-2.6791,-2.5661,-2.5586,-2.5109,-2.4042,-2.3991,-2.3715,-2.3108,-2.3108,-2.3108,-2.3078,-2.3078,-2.3065,-2.3078,-2.3065,-2.3065,-2.6318,-2.7509,-2.8278,-2.7973,-2.6309,-2.4445,-2.3343,-2.1778,-2.0582,-2.0582,-2.033,-2.021,-2.0515,-2.033,-2.0674,-2.2394,-2.235,-2.2657,-2.4244,0.0,0.0,-2.9648,-3.3256,-3.5545,-3.566,-3.6523,-3.7175,-3.7397,-3.7427,-3.7761,-3.8497,-3.8553,-3.8302,-3.7822,-3.7793,-3.7793,-3.7793,-3.7793,-3.7793,-3.7793,-3.7793,-3.7793,-3.7793,-3.7793,-3.7793,-3.7793,-3.7793,-3.7661,-3.7427,-3.7427,-3.7279,-3.7011,-3.6461,-3.6244,-3.6196,-3.5701,-3.5504,-3.5504,-3.5504,-3.5279,-3.5019,-3.5019,-3.4361,-3.3567,-3.3567,-3.2678,-3.1719,-3.1719,-3.0784,-2.9934,-3.0595,-3.0279,-2.9792,-2.9792,-2.9792,-2.9792,-2.9792,-2.9792,-2.9792,-2.9792,-2.9792,-2.9792,-2.9792,-2.9792,-2.9792,-2.9792,-2.9792,-2.9792,-2.9792,-2.9792,-2.9729,-2.9541,-2.9515,-2.9063,-2.7946,-2.7494,-2.7165,-2.6766,-2.6025,-2.5448,-2.5109,-2.4745,-2.4261,-2.374,-2.3728,-2.3496,-2.3108,-2.3108,-2.3108,-2.3108,-2.3108,-2.3108,0.0,-2.5625,-2.6106,-2.6008,-2.4943,0.0,-2.2697,-2.1713,-2.0991,-2.0991,-2.078,-2.0649,-2.0943,-2.0764,-2.1106,-2.2826,-2.2833,-2.3086,-2.4488,-2.5464,-2.7271,-3.0635,-3.459,-3.6762,-3.603,-3.7057,-3.7921,-3.8189,-3.8234,-3.8411,-3.8906,-3.8942,-3.8732,-3.8275,-3.8521,-3.8668,-3.8668,-3.8668,-3.8668,-3.8668,-3.8668,-3.8668,-3.8668,-3.8668,-3.8668,-3.8668,-3.8668,-3.8486,0.0,-3.8234,-3.8064,-3.7764,-3.7249,-3.7054,-3.701,-3.6538,-3.6196,-3.5926,-3.5926,-3.5718,-3.5504,-3.5504,-3.5067,-3.4576,-3.4576,-3.3636,-3.2593,-3.2593,-3.1756,-3.0983,-3.1573,-3.1007,-3.0317,-3.0317,-3.0075,-2.9792,-2.9792,-2.9792,-2.9792,-2.9792,-2.9792,-2.9792,-2.9792,-2.9792,-2.9792,-2.9792,-2.9792,-2.9792,-2.9792,-2.9792,-2.9792,-2.9792,-2.9792,-2.9503,-2.88,-2.8222,-2.7821,-2.7607,-2.6741,-2.6138,-2.5971,-2.5398,-2.4858,-2.4318,-2.4305,-2.413,-2.3735,-2.3735,-2.3735,-2.3735,-2.3735,-2.3735,0.0,-2.4166,-2.458,-2.4382,0.0,0.0,-2.1972,-2.1353,0.0,-2.1086,-2.1071,-2.1071,-2.1151,-2.1135,-2.16,-2.3046,-2.3301,-2.3781,-2.5147,-2.7286,-2.9444,-3.1428,-3.4246,-3.5712,-3.4945,-3.6692,-3.8153,-3.8869,-3.8846,-3.8857,-3.893,-3.8954,-3.8971,-3.892,-3.9656,-4.0045,-4.0096,-4.0096,-4.0096,-4.0096,-4.0096,-4.0096,-4.0096,-4.0096,-4.0096,-4.0096,-4.0096,-3.9662,-3.9005,-3.9005,-3.858,-3.7966,-3.7892,-3.7863,-3.7863,-3.7822,-3.7338,-3.6707,-3.6707,-3.6196,-3.5554,-3.5537,-3.5504,-3.5504,-3.5504,-3.4192,-3.2713,-3.2784,-3.2713,-3.2629,-3.2664,-3.1997,-3.1278,-3.1278,-3.062,-2.9998,-2.9998,-2.9998,-2.9998,-2.9998,-2.9998,-2.9972,-2.9895,-2.9895,-2.9869,-2.9792,-2.9792,-2.983,-2.9895,-2.9895,-2.9934,-3.0011,-2.9998,-2.9972,-2.9895,-2.929,-2.8675,-2.8197,-2.7607,-2.709,-2.6575,-2.5963,-2.541,-2.4863,-2.4813,-2.4788,-2.4788,-2.4788,-2.4788,-2.4788,-2.4788,-2.4788,-2.1773,0.0,-2.2874,-2.2823,-2.2745,-2.2572,0.0,-2.2063,-2.1988,-2.1988,-2.1705,-2.1748,-2.2662,-2.2545,-2.2897,-2.4713,-2.5191,-2.5619,-2.652,-2.9535,-3.1769,-3.2233,-3.5824,-3.7744,-3.6415,-3.7761,-3.8807,-3.8959,-3.8454,-3.8141,-3.8152,-3.8684,-3.8734,-3.8176,-3.887,-3.9537,-4.0096,-4.0096,-4.0096,-4.0096,-4.0096,-4.0096,-4.0096,-4.0096,-4.0096,-4.0096,-4.0096,-3.9978,-3.9808,-3.9808,-3.9731,-3.9506,-3.887,-3.8635,-3.858,-3.8007,-3.769,-3.7515,-3.7515,-3.701,-3.6244,-3.5668,-3.5504,-3.5504,-3.5504,-3.4658,-3.3822,-3.4591,-3.3754,-3.2784,-3.3484,-3.2961,-3.2285,-3.2285,-3.2105,-3.1938,-3.1938,-3.1938,-3.1938,-3.1938,-3.1938,-3.1719,-3.097,-3.0871,-3.062,-2.9895,-2.9792,-3.0075,-3.0758,-3.0871,-3.1156,-3.1865,-3.1938,-3.1646,-3.0932,-2.9667,-2.8838,-2.87,-2.7821,-2.7218,-2.7128,-2.6587,-2.6021,-2.5423,-2.4988,-2.4788,-2.4788,-2.4788,-2.4788,-2.4788,-2.4788,-2.4788,-2.125,-2.1813,-2.2296,-2.2296,-2.2296,-2.2296,-2.2296,-2.2296,-2.2296,-2.2296,-2.2106,-2.212,-2.2774,-2.2694,-2.3204,-2.5256,-2.5446,-2.5931,-2.7718,-3.0563,-3.257,-3.2894,-3.5935,-3.7692,-3.688,-3.7821,-3.8497,-3.8497,-3.8125,-3.7753,-3.7398,-3.777,-3.7828,-3.7398,-3.777,-3.8522,-3.9588,-3.9242,-3.9436,-4.0096,-3.9757,-3.9906,-4.0449,-3.9865,-3.9906,-4.0431,-3.9848,-3.9791,-4.0096,-4.0096,-4.0096,-4.0045,-3.961,-3.9463,-3.9394,-3.8995,-3.8624,-3.8302,-3.8302,-3.779,-3.707,-3.6692,-3.6554,-3.6492,-3.6117,-3.5627,-3.5242,-3.5442,-3.4739,-3.4056,-3.4543,-3.3959,-3.3241,-3.3241,-3.2925,-3.2593,-3.2593,-3.2593,-3.2593,-3.2593,-3.2593,-3.2464,-3.1924,-3.1852,-3.1683,-3.1169,-3.1095,-3.1267,-3.1792,-3.1852,-3.2033,-3.2558,-3.2593,-3.2393,-3.1888,-3.106,-3.0424,-2.9968,-2.9565,-2.9232,-2.8934,-2.8018,-2.7211,-2.6565,-2.6667,-2.6524,-2.6128,-2.6128,-2.5945,-2.5573,-2.5573,-2.5573,-2.1205,-2.1812,-2.2252,-2.229,-2.2296,-2.2296,-2.2296,-2.2296,-2.2296,-2.2296,0.0,-2.233,-2.2448,-2.2564,-2.3325,-2.5439,-2.5625,-2.6539,-2.9433,-3.1447,-3.2886,-3.3491,-3.547,-3.6761,-3.6643,-3.728,-3.7736,-3.7736,-3.7635,-3.728,-3.666,-3.6745,-3.6745,-3.6626,-3.6745,-3.7405,-3.8633,-3.8159,-3.8563,-3.9848,-3.9236,-3.9555,-4.0631,-3.9551,-3.965,-4.0613,-3.9528,0.0,-4.0165,-4.0046,-4.0131,-4.036,-4.0217,-4.0201,-4.0229,-4.0229,-3.9749,-3.9059,-3.8935,-3.8497,-3.795,-3.7835,-3.7793,-3.7661,-3.6994,-3.6783,-3.6646,-3.6022,-3.5683,-3.5504,-3.5504,-3.4872,-3.4245,-3.4245,-3.3636,-3.3031,-3.3031,-3.3031,-3.3031,-3.3031,-3.3031,-3.2996,-3.2855,-3.282,-3.2784,-3.2629,-3.2593,-3.2629,-3.282,-3.282,-3.289,-3.3031,-3.3031,-3.2996,-3.282,-3.2961,-3.2642,-3.1669,-3.176,-3.146,-3.0721,-2.943,-2.8492,-2.7901,-2.862,-2.8652,-2.7887,-2.7887,-2.7537,-2.6871,-2.6748,-2.6748,-2.0777,-2.1508,-2.208,-2.2249,-2.2296,-2.2296,-2.2296,-2.2296,-2.2296,0.0,0.0,-2.2496,-2.3122,-2.3731,-2.4677,-2.6268,-2.8569,-3.0987,-3.3322,-3.3947,-3.4201,-3.432,-3.5797,-3.6518,-3.5836,-3.6502,-3.6981,-3.6981,-3.6349,-3.5904,-3.5785,-3.6417,-3.6508,-3.5825,-3.6434,-3.6914,-3.7151,-3.7635,-3.8216,-3.8836,-3.8715,-3.8986,-3.9623,-3.9434,-3.9452,-3.9623,0.0,-3.9779,-4.0467,-3.9796,-4.0309,-4.1481,-4.0787,-4.0637,-4.078,-4.078,-4.0407,-3.9808,-3.9139,-3.8827,-3.8635,-3.8007,-3.7793,-3.7793,-3.7661,-3.7602,-3.7602,-3.7472,-3.6523,-3.5504,-3.5504,-3.5392,-3.5279,-3.5279,-3.5166,-3.5067,-3.5067,-3.5067,-3.5067,-3.5067,-3.5067,-3.4773,-3.3925,-3.3774,-3.3518,-3.2713,-3.2593,-3.289,-3.3671,-3.3774,-3.4109,-3.4953,-3.5067,-3.4691,-3.3856,-3.4558,-3.4624,-3.3636,-3.2457,-3.13,-3.0178,-2.9362,-2.8908,-2.8812,-2.8939,-2.8939,-2.8812,-2.8812,-2.8748,-2.8588,-2.7855,-2.792,-2.0253,-2.1039,-2.169,-2.2049,-2.2465,-2.2786,-2.2786,-2.2786,-2.2855,-2.312,-2.3165,-2.3268,-2.361,-2.4117,-2.5117,-2.6996,-2.982,-3.2022,-3.2628,-3.3406,-3.3914,-3.3914,-3.4878,-3.5571,-3.56,-3.5943,-3.6146,-3.6146,-3.5825,-3.56,-3.56,-3.6234,-3.6221,-3.5407,-3.645,-3.679,-3.6333,-3.7116,-3.7893,-3.8589,-3.8492,-3.8926,-3.981,-3.9126,-3.9164,-3.9791,0.0,-3.9502,-4.058,-4.0209,-4.0742,-4.1775,-4.14,-4.1282,-4.1358,-4.1018,-4.0733,-4.0431,-3.9774,-3.9542,-3.9489,-3.9156,-3.9049,-3.8968,-3.8541,-3.8386,-3.8302,-3.7892,-3.6965,-3.6086,-3.6086,-3.5814,-3.5504,-3.5504,-3.5504,-3.5504,-3.5504,-3.5504,-3.5504,-3.5504,-3.5504,-3.5359,-3.4872,-3.4806,-3.4658,-3.4225,-3.4158,-3.4327,-3.4773,-3.4806,-3.4986,-3.5439,-3.5504,-3.5311,-3.4839,-3.5246,-3.5311,-3.4839,-3.3831,-3.2641,-3.1257,-3.101,-3.0522,-2.9735,-3.0133,-3.0133,-2.969,-2.969,-2.9473,-2.9002,-2.8588,-2.862,-1.9984,-2.0789,-2.1546,-2.2096,-2.272,-2.3254,-2.3448,-2.3484,-2.3641,-2.4182,-2.4303,-2.4303,-2.4303,-2.4758,-2.5851,-2.7981,-3.0486,-3.2097,-3.191,-3.2863,-3.3515,-3.3406,-3.3897,-3.4539,-3.5261,-3.5287,-3.5302,-3.5494,-3.5433,-3.5395,-3.5395,-3.5953,-3.5916,-3.5111,-3.6257,-3.6481,-3.5631,-3.6415,-3.7347,-3.844,-3.8282,-3.8776,-3.9823,-3.885,-3.8941,-3.9805,-3.8814,-3.9165,-4.0431,-4.0233,-4.0735,-4.1649,-4.1649,-4.1782,-4.1937,-4.1335,-4.111,-4.1018,-4.0473,-4.0286,-4.0279,-4.0146,-4.0096,-3.9995,-3.9368,-3.9166,-3.9059,-3.8486,-3.7761,-3.7098,-3.6934,-3.6321,-3.575,-3.575,-3.5619,-3.5504,-3.5504,-3.5504,-3.5504,-3.5504,-3.5504,-3.5504,-3.5504,-3.5504,-3.5504,-3.5504,-3.5504,-3.5504,-3.5504,-3.5504,-3.5504,-3.5504,-3.5504,-3.5504,-3.5504,-3.5504,-3.5504,-3.5504,-3.4861,-3.3981,-3.2786,-3.273,-3.2139,-3.0847,-3.1412,-3.1338,-3.0584,-3.0729,-3.0382,-2.9566,-2.9551,-2.9537,-2.0248,-2.1099,-2.1943,-2.274,-2.3073,-2.3395,-2.4134,-2.4311,-2.4554,-2.5316,-2.5488,-2.5488,-2.5488,-2.637,-2.7728,-2.963,-3.1011,-3.2323,-3.3703,-3.3978,-3.3888,-3.3448,-3.3457,-3.3778,-3.4506,-3.4353,-3.4495,-3.5186,-3.4941,-3.4744,-3.4744,-3.5504,-3.5558,-3.4746,-3.5542,-3.5595,-3.4782,-3.5341,-3.6421,-3.7952,-3.7951,-3.8242,-3.8792,-3.8721,-3.8721,-3.8792,-3.8706,-3.9163,-3.9896,-3.9145,-3.9751,-4.1142,-4.1142,-4.1759,-4.2577,-4.1958,-4.1746,-4.1643,-4.1041,-4.0833,-4.0756,-4.0262,-4.0096,-4.007,-4.002,-4.002,-3.9995,-3.9952,-3.9358,-3.858,-3.7892,-3.713,-3.6523,-3.6523,-3.6006,-3.5504,-3.5504,-3.5504,-3.5504,-3.5504,-3.5504,-3.5504,-3.5504,-3.5504,-3.5504,-3.5504,-3.5504,-3.5504,-3.5504,-3.5504,-3.5504,-3.5504,-3.5504,-3.5504,-3.5504,-3.5504,-3.5504,-3.5504,-3.4861,-3.4457,-3.4334,-3.3738,-3.308,-3.2363,-3.2407,-3.2079,-3.1409,-3.2049,-3.2005,-3.1336,-3.1121,-3.1152,-1.9675,-2.0766,-2.1867,-2.218,-2.3039,-2.3889,-2.4215,-2.506,-2.5783,-2.5853,-2.7043,-2.787,-2.7165,-2.7528,-2.8386,-2.9874,-3.1263,-3.2704,-3.4264,-3.4474,-3.44,-3.4231,-3.4212,-3.4314,-3.4592,-3.4993,-3.5142,-3.4911,-3.5238,-3.5224,-3.4729,-3.5295,-3.5271,-3.4485,-3.5568,-3.5747,-3.4899,-3.5645,-3.6304,-3.6906,-3.7413,-3.8021,-3.8707,-3.8707,-3.8707,-3.8707,-3.8707,-3.9166,-3.9879,-3.957,-4.0102,-4.1095,-4.1095,-4.1655,-4.2322,-4.1208,-4.1123,-4.1403,-4.0352,-4.0297,-4.0613,-4.0037,-4.0199,-4.0546,-4.0204,-4.0096,-4.0096,-4.0096,-3.9876,-3.9463,-3.8707,-3.7933,-3.7338,-3.7338,-3.6753,-3.6196,-3.6196,-3.5799,-3.5504,-3.5504,-3.5504,-3.5504,-3.5504,-3.5504,-3.5504,-3.5504,-3.5504,-3.5504,-3.5504,-3.5504,-3.5504,-3.5504,-3.5504,-3.5504,-3.5504,-3.5504,-3.5504,-3.5504,-3.5265,-3.4921,-3.4533,-3.4279,-3.3799,-3.314,-3.3125,-3.3006,-3.2751,-3.3006,-3.2991,-3.2721,-3.2672,-3.2465,-1.9297,-2.0527,-2.1794,-2.1794,-2.3006,-2.4263,-2.453,-2.5621,-2.6677,-2.689,-2.8263,-2.9161,-2.8384,-2.8092,-2.8429,-2.9887,-3.1143,-3.2382,-3.3661,-3.3839,-3.3788,-3.3652,-3.3634,-3.3811,-3.4306,-3.4765,-3.4923,-3.4603,-3.4989,-3.5002,-3.4448,-3.5006,-3.4963,-3.4169,-3.5283,-3.5477,-3.4619,-3.522,-3.5642,-3.5899,-3.645,-3.7276,-3.8322,-3.8322,-3.8469,-3.8707,-3.8707,-3.9019,-3.9515,-3.9515,-3.9992,-4.0726,-4.0726,-4.1368,-4.2161,-4.0941,-4.098,-4.1488,-4.0133,-4.0008,-4.0425,-4.0106,-4.0366,-4.0746,-4.0453,-4.019,-4.0005,-4.0078,-3.9943,-3.9665,-3.937,-3.8734,-3.8149,-3.8149,-3.7557,-3.6964,-3.6964,-3.6585,-3.6133,-3.5894,-3.5831,-3.5782,-3.5537,-3.5504,-3.5504,-3.5504,-3.5504,-3.5504,-3.5504,-3.5504,-3.5504,-3.5504,-3.5504,-3.5504,-3.5504,-3.5504,-3.5504,-3.5504,-3.5504,-3.5295,-3.4816,-3.4833,-3.4487,-3.3814,-3.3799,-3.3709,-3.3499,-3.3709,-3.3709,-3.3499,-3.3709,-3.3455,-1.9305,-2.0535,-2.1803,-2.1803,-2.3006,-2.441,-2.5209,-2.6025,-2.706,-2.8693,-2.9023,-2.9023,-2.9023,-2.8046,-2.7882,-2.9886,-3.0605,-3.1155,-3.1903,-3.1996,-3.1814,-3.1363,-3.1299,-3.1901,-3.3439,-3.3351,-3.3509,-3.424,-3.3992,-3.3807,-3.3807,-3.4546,-3.4619,-3.3807,-3.4546,-3.4582,-3.377,-3.377,-3.4192,-3.4986,-3.4986,-3.5866,-3.7492,-3.7492,-3.7918,-3.8689,-3.8689,-3.8689,-3.8689,-3.8707,-3.9166,-3.9882,-3.9882,-4.0873,-4.2176,-4.137,-4.1589,-4.2072,-4.0673,-4.0184,-4.0237,-4.0517,-4.0598,-4.0637,-4.0844,-4.0366,-3.9836,-4.0041,-3.9571,-3.9182,-3.991,-3.9516,-3.8908,-3.8908,-3.8358,-3.7806,-3.7806,-3.7806,-3.7573,-3.6768,-3.66,-3.6384,-3.5636,-3.5504,-3.5504,-3.5504,-3.5504,-3.5504,-3.5504,-3.5504,-3.5504,-3.5504,-3.5504,-3.5504,-3.5504,-3.5504,-3.5504,-3.5504,-3.5504,-3.5504,-3.5504,-3.5504,-3.519,-3.4533,-3.4518,-3.4158,-3.3514,-3.4204,-3.4189,-3.3529,-3.4219,-3.4159,-1.9631,-2.0769,-2.193,-2.193,-2.3077,-2.441,-2.5209,-2.6025,-2.7383,-3.0118,-3.0687,-3.0687,-3.0687,-2.9936,-2.968,-3.0858,-3.0686,-3.0885,-3.2223,-3.1926,-3.154,-3.1383,-3.137,-3.1769,-3.2809,-3.3336,-3.3716,-3.3939,-3.4366,-3.4399,-3.3825,-3.3482,-3.3206,-3.2949,-3.2651,-3.2357,-3.21,-3.2669,-3.3078,-3.3316,-3.3885,-3.5037,-3.6666,-3.6666,-3.678,-3.7037,-3.7606,-3.786,-3.7915,-3.8469,-3.8836,-3.9056,-3.9056,-3.968,-4.0506,-3.9717,-3.9918,-4.0471,-3.9483,-3.9526,-4.0043,-4.0255,-4.0319,-4.0367,-4.0602,-4.0133,-3.9529,-3.9586,-3.9546,-3.9536,-3.9759,-3.9787,-3.974,-3.974,-3.9139,-3.858,-3.858,-3.8177,-3.7719,-3.7485,-3.744,-3.7368,-3.7145,-3.6646,-3.6275,-3.6275,-3.5831,-3.5504,-3.5504,-3.5504,-3.5504,-3.5504,-3.5504,-3.5504,-3.5504,-3.5504,-3.5504,-3.5504,-3.5504,-3.5504,-3.5504,-3.5504,-3.5415,-3.5205,-3.519,-3.51,-3.4921,-3.5115,-3.51,-3.4921,-3.5115,-3.4831,-1.9688,-2.0802,-2.1924,-2.1924,-2.312,-2.4524,-2.5337,-2.6575,-2.818,-3.0467,-3.0668,-3.054,-3.0852,-2.9989,-2.9604,-3.0742,-3.0522,-3.054,-3.15,-3.1237,-3.0907,-3.0907,-3.0907,-3.1237,-3.2045,-3.2559,-3.2852,-3.2852,-3.3311,-3.3366,-3.2871,-3.2394,-3.2118,-3.2118,-3.1641,-3.1397,-3.1397,-3.221,-3.2601,-3.2601,-3.3421,-3.4321,-3.5312,-3.5642,-3.5973,-3.634,-3.7144,-3.7492,-3.7566,-3.8377,-3.8707,-3.8707,-3.8707,-3.9184,-3.979,-3.9001,-3.9203,-3.9772,-3.8982,-3.9019,-3.9504,-3.9938,-4.0071,-4.0129,-4.0368,-3.9891,-3.93,-3.9383,-3.9269,-3.9294,-3.9905,-4.0163,-4.0257,-4.0111,-3.9731,-3.9368,-3.9368,-3.9022,-3.8624,-3.8318,-3.8246,-3.8133,-3.7835,-3.7397,-3.7084,-3.7084,-3.6707,-3.6305,-3.5975,-3.5943,-3.5943,-3.5943,-3.5668,-3.5504,-3.5504,-3.5504,-3.5504,-3.5504,-3.5504,-3.5504,-3.5504,-3.5504,-3.5504,-3.5504,-3.5504,-3.5504,-3.5504,-3.5504,-3.5504,-3.5504,-3.5504,-3.528,-1.9616,-2.0734,-2.1869,-2.1869,-2.3269,-2.4818,-2.5565,-2.7325,-2.9046,-2.9916,-2.9629,-2.9445,-3.0173,-2.9053,-2.8521,-3.0063,-3.0191,-3.0099,-3.0099,-3.0026,-2.9953,-2.9879,-2.9879,-3.0191,-3.0993,-3.114,-3.1213,-3.1286,-3.136,-3.1397,-3.1397,-3.1342,-3.1286,-3.1286,-3.1231,-3.1182,-3.1182,-3.199,-3.2417,-3.2491,-3.3311,-3.3733,-3.3825,-3.4564,-3.5353,-3.6211,-3.696,-3.7364,-3.7566,-3.8285,-3.8649,-3.8735,-3.8735,-3.9206,-3.9771,-3.9007,-3.9209,-3.9724,-3.8961,-3.8707,-3.8836,-3.9643,-3.9845,-3.9839,-4.0111,-3.9661,-3.9103,-3.9283,-3.8876,-3.8697,-4.0076,-4.0533,-4.052,-4.0209,-4.0153,-4.0171,-4.0096,-4.0096,-3.9876,-3.9139,-3.9005,-3.8799,-3.8121,-3.795,-3.7863,-3.7806,-3.7793,-3.7544,-3.6783,-3.6691,-3.6691,-3.6691,-3.6117,-3.5716,-3.5716,-3.5716,-3.5716,-3.5716,-3.5651,-3.5587,-3.5587,-3.5537,-3.5504,-3.5504,-3.5504,-3.5504,-3.5504,-3.5504,-3.5504,-3.5504,-3.5504,-3.5504,-2.0088,-2.1233,-2.235,-2.235,-2.4028,-2.5716,-2.5896,-2.6673,-2.7707,-2.8996,-3.0136,-3.0944,-3.1121,-3.0338,-3.0008,-3.098,-3.0081,-2.9262,-2.9262,-2.8705,-2.8081,-2.7457,-2.7372,-2.7695,-2.8496,-2.9145,-2.9776,-3.0411,-3.1035,-3.1397,-3.1397,-3.0797,-3.0467,-3.0467,-2.9861,-2.9519,-2.9519,-3.032,-3.1035,-3.1659,-3.2467,-3.3201,-3.3807,-3.3972,-3.4491,-3.5298,-3.5463,-3.6285,-3.7511,-3.7694,-3.8239,-3.9008,-3.9008,-3.9283,-3.9602,-3.916,-3.912,-3.9226,-3.8832,-3.8707,-3.8836,-3.9643,-3.946,-3.9077,-3.977,-3.9408,-3.8807,-3.884,-3.8847,-3.8941,-3.9264,-3.9961,-4.0588,-4.0512,-4.0601,-4.0625,-4.0179,-4.0096,-4.0045,-3.9876,-3.9833,-3.9782,-3.9627,-3.9059,-3.8469,-3.7908,-3.7793,-3.7719,-3.7573,-3.7544,-3.7544,-3.7544,-3.7413,-3.7294,-3.7294,-3.7294,-3.7294,-3.7294,-3.6722,-3.6353,-3.6353,-3.5814,-3.5504,-3.5504,-3.5504,-3.5504,-3.5504,-3.5504,-3.5504,-3.5504,-3.5504,-3.5504,-2.0106,-2.1256,-2.2607,-2.3482,-2.4864,-2.6027,-2.6079,-2.6583,-2.725,-2.7995,-2.865,-2.9329,-3.0118,-2.9586,-2.931,-3.0118,-2.9219,-2.8429,-2.8429,-2.7732,-2.7071,-2.6638,-2.6602,-2.6759,-2.7181,-2.7952,-2.8594,-2.9017,-2.9806,-3.0246,-3.0246,-2.9861,-2.9629,-2.9629,-2.9225,-2.9005,-2.9005,-2.9794,-3.0411,-3.0834,-3.1641,-3.2247,-3.2669,-3.344,-3.4102,-3.4633,-3.5058,-3.5797,-3.6756,-3.7147,-3.7641,-3.8184,-3.8571,-3.8812,-3.8999,-3.9239,-3.9327,-3.932,-3.9176,-3.9036,-3.8954,-3.9379,-3.915,-3.8781,-3.9203,-3.9038,-3.8707,-3.8707,-3.8773,-3.8942,-3.934,-3.9858,-4.029,-4.0383,-4.0898,-4.1246,-4.0984,-4.0696,-4.0473,-4.0473,-4.0286,-4.0096,-4.0096,-3.9756,-3.9209,-3.8442,-3.8652,-3.8761,-3.8374,-3.8346,-3.8346,-3.8346,-3.8007,-3.7793,-3.7793,-3.7793,-3.7793,-3.7793,-3.7427,-3.7174,-3.7174,-3.643,-3.5863,-3.5504,-3.5504,-3.5504,-3.5504,-3.5504,-3.5504,-3.5504,-3.5504,-3.5504,-2.0012,-2.1189,-2.2779,-2.4425,-2.5361,-2.5918,-2.6022,-2.6446,-2.6854,-2.6997,-2.686,-2.7106,-2.8441,-2.8157,-2.7917,-2.8588,-2.8138,-2.7651,-2.7522,-2.6921,-2.6442,-2.6313,-2.6276,-2.6276,-2.6276,-2.7001,-2.7429,-2.7429,-2.8158,-2.8656,-2.8785,-2.8702,-2.8757,-2.8987,-2.8904,-2.8831,-2.8785,-2.9592,-2.9989,-3.0008,-3.1005,-3.147,-3.1526,-3.2883,-3.3685,-3.4032,-3.4806,-3.5435,-3.5956,-3.6632,-3.7001,-3.7244,-3.8066,-3.8412,-3.855,-3.9217,-3.9566,-3.9649,-3.9441,-3.9289,-3.9154,-3.9005,-3.8915,-3.8829,-3.8611,-3.8651,-3.8762,-3.8704,-3.8707,-3.8854,-3.9515,-3.979,-3.9932,-4.011,-4.0933,-4.1647,-4.1601,-4.1314,-4.1064,-4.1064,-4.0625,-4.0254,-4.0254,-4.0171,-3.9859,-3.9193,-3.9662,-3.9876,-3.9193,-3.9113,-3.9113,-3.9113,-3.8569,-3.8206,-3.8206,-3.8206,-3.8206,-3.8206,-3.8064,-3.7978,-3.7978,-3.7233,-3.6523,-3.591,-3.5619,-3.5504,-3.5504,-3.5504,-3.5504,-3.5504,-3.5504,-3.5504,-2.0264,-2.147,-2.2964,0.0,-2.4812,-2.5405,0.0,0.0,-2.5488,0.0,-2.6745,-2.7196,-2.7402,-2.7346,-2.7327,-2.7421,-2.7346,-2.7035,-2.6349,-2.6142,-2.5812,-2.5122,-2.5035,-2.5035,-2.5035,-2.5609,-2.5987,-2.5987,-2.6561,-2.7218,-2.7915,-2.7454,-2.7742,-2.895,-2.849,-2.8141,-2.7952,-2.8748,-2.9152,-2.917,-3.092,-3.1756,-3.1768,-3.2162,-3.263,-3.3168,-3.3529,-3.4519,-3.5918,-3.6031,-3.6601,-3.7528,-3.8404,-3.8916,-3.9155,-3.8975,-3.9384,-3.9878,-3.8836,-3.8931,-3.9409,-3.8651,-3.8891,-3.9308,-3.8316,-3.8483,-3.8999,-3.8762,-3.8707,-3.8726,-3.8836,-3.9386,-3.9918,-3.993,-4.0579,-4.1106,-4.0821,-4.1248,-4.1686,-4.1686,-4.1201,-4.0803,-4.0803,-4.0417,-4.007,-3.9952,-4.002,-4.007,-3.9952,-3.9927,-3.9927,-3.9927,-3.985,-3.9782,-3.9782,-3.9782,-3.9782,-3.9782,-3.9156,-3.8745,-3.8745,-3.8048,-3.7573,-3.7501,-3.6164,-3.5504,-3.5504,-3.5504,-3.5504,-3.5504,-3.5504,-3.5504,-2.0846,-2.187,-2.3009,0.0,-2.4697,-2.5308,-2.5308,-2.5224,-2.5278,-2.5625,-2.5925,-2.6356,-2.7064,-2.6836,-2.6685,-2.7137,-2.6817,-2.6411,-2.6061,-2.5597,-2.5205,-2.4834,-2.4804,-2.4804,-2.4804,-2.5445,-2.5868,-2.5868,-2.6532,-2.7093,-2.7438,-2.7203,-2.7353,-2.7968,-2.7736,-2.754,-2.7466,-2.7801,-2.7987,-2.8006,-2.9298,-2.9898,-2.9926,-3.0605,-3.1576,-3.2723,-3.2843,-3.3669,-3.4958,-3.4958,-3.5512,-3.6454,-3.7297,-3.7705,-3.7877,-3.8227,-3.8588,-3.8848,-3.8315,-3.8261,-3.8371,-3.7981,-3.7999,-3.8184,-3.8138,-3.8278,-3.8505,-3.8832,-3.8833,-3.8597,-3.8138,-3.8615,-3.9111,-3.8667,-3.9515,-4.0392,-4.0238,-4.0918,-4.1611,-4.1785,-4.1578,-4.1402,-4.1402,-4.1218,-4.0938,-4.0601,-4.0552,-4.0424,-4.0146,-4.0096,-4.0096,-4.0096,-4.0096,-4.0096,-4.0096,-4.0096,-4.0096,-4.0096,-3.9782,-3.9584,-3.9584,-3.8843,-3.8414,-3.8414,-3.6889,-3.6117,-3.6117,-3.5701,-3.5504,-3.5504,-3.5504,-3.5504,-2.1019,0.0,-2.2682,-2.3548,-2.4389,-2.5058,0.0,0.0,-2.5308,-2.5308,-2.5308,-2.5601,-2.6548,-2.624,-2.6013,-2.6631,-2.6202,-2.5811,-2.5811,-2.5301,-2.4935,-2.4935,-2.4935,-2.4935,-2.4935,-2.5423,-2.5747,-2.5747,-2.628,-2.6674,-2.6874,-2.674,-2.6816,-2.7194,-2.7035,-2.6921,-2.6892,-2.6892,-2.7005,-2.7204,-2.787,-2.828,-2.8523,-2.9382,-3.0567,-3.1973,-3.221,-3.3013,-3.4205,-3.4205,-3.4718,-3.5577,-3.6385,-3.6692,-3.6769,-3.743,-3.7815,-3.7969,-3.7757,-3.7651,-3.7587,-3.7368,-3.7319,-3.7399,-3.7705,-3.7954,-3.8184,-3.8502,-3.8683,-3.8619,-3.7808,-3.8158,-3.856,-3.7936,-3.8707,-3.9698,-4.012,-4.079,-4.1378,-4.157,-4.1658,-4.1718,-4.1718,-4.1753,-4.1643,-4.1201,-4.0995,-4.0774,-4.0343,-4.0026,-3.9893,-4.0079,-3.9943,-3.991,-4.0079,-4.0096,-4.0096,-4.0096,-4.0096,-4.0096,-4.0096,-3.9516,-3.9193,-3.9193,-3.7873,-3.7098,-3.6904,-3.6149,-3.5782,-3.5782,-3.5587,-3.5504,-2.0346,-2.0942,0.0,-2.2643,-2.3528,-2.4356,0.0,0.0,-2.5308,-2.5308,-2.5308,-2.5322,-2.5379,-2.536,-2.534,-2.5398,-2.536,-2.534,-2.534,-2.5302,-2.5269,-2.5269,-2.5269,-2.5269,-2.5269,-2.5132,-2.505,-2.505,-2.4971,-2.5254,-2.6023,-2.5454,-2.5753,-2.7156,-2.6584,-2.62,-2.6061,-2.6053,-2.6448,-2.7194,-2.744,-2.7984,-2.8779,-2.9039,-2.9648,-3.0565,-3.1372,-3.2673,-3.4205,-3.4205,-3.4718,-3.5577,-3.6385,-3.6692,-3.6712,-3.675,-3.7296,-3.7873,-3.7038,-3.7308,-3.7839,-3.7005,-3.7286,-3.7767,-3.6714,-3.7509,-3.8536,-3.7505,-3.8097,-3.8885,-3.8082,-3.8297,-3.8689,-3.8652,-3.8707,-3.9184,-4.071,-4.1079,-4.1136,-4.1121,-4.1288,-4.1428,-4.1428,-4.1627,-4.1789,-4.175,-4.1268,-4.088,-4.0856,-3.9802,-3.9326,-4.0028,-3.9462,-3.9326,-4.0045,-4.0096,-4.0096,-4.0096,-4.0096,-4.0096,-4.0096,-4.0045,-4.0045,-4.0045,-3.9193,-3.8442,-3.7735,-3.6934,-3.6554,-3.6523,-3.5846,-3.5504,0.0,0.0,0.0,-2.2586,-2.3451,-2.4317,-2.5115,-2.5308,-2.5308,-2.5308,-2.5308,-2.5308,-2.5308,-2.5308,-2.5308,-2.5308,-2.5308,-2.5308,-2.5308,-2.5308,-2.5308,-2.5308,-2.5308,-2.5308,-2.5308,-2.5229,-2.5179,-2.5179,-2.5149,-2.5249,-2.5543,-2.5319,-2.5434,-2.5957,-2.5742,-2.56,-2.5543,-2.5543,-2.5689,-2.5989,-2.7195,-2.7921,-2.8253,-2.94,-3.0096,-3.0423,-3.0731,-3.1525,-3.2641,-3.3141,-3.3872,-3.4757,-3.5596,-3.5923,-3.5923,-3.5923,-3.6135,-3.6346,-3.6038,-3.6135,-3.6346,-3.6019,-3.6135,-3.6409,-3.6527,-3.6859,-3.7328,-3.7993,-3.8368,-3.8525,-3.8275,-3.8746,-3.9229,-3.9017,-3.8815,-3.8872,-3.9426,-4.0361,-4.1095,-4.1095,-4.1164,-4.1372,-4.1883,-4.205,-4.1993,-4.1595,-4.1359,-4.0899,-4.0046,-4.0005,-3.9792,-3.9198,-3.9347,-3.9292,-3.8749,-3.8684,-3.8886,-3.9343,-3.9402,-3.9622,-4.0079,-4.0096,-4.0096,-4.0096,-3.9808,-3.9289,-3.8497,-3.7732,-3.7084,-3.6615,-3.6844,-3.6461,-2.0308,0.0,0.0,0.0,-2.3028,-2.3586,-2.4981,-2.5096,-2.4962,-2.525,-2.5308,-2.5308,-2.5308,-2.5308,-2.5308,-2.5308,-2.5308,-2.5308,-2.5308,-2.5308,-2.5308,-2.5308,-2.5308,-2.5308,-2.5308,-2.5308,-2.5308,-2.5308,-2.5308,-2.5308,-2.5308,-2.5308,-2.5308,-2.5308,-2.5308,-2.5308,-2.5308,-2.5308,-2.5308,-2.5308,-2.6467,-2.7332,-2.7934,-2.9044,-2.9865,-3.0404,-3.0404,-3.0885,-3.1737,-3.2275,-3.316,-3.4263,-3.4834,-3.5231,-3.55,-3.55,-3.55,-3.55,-3.55,-3.55,-3.55,-3.55,-3.55,-3.5596,-3.6135,-3.6366,-3.661,-3.7451,-3.7861,-3.7982,-3.7757,-3.8439,-3.9051,-3.8559,-3.8637,-3.8755,-3.8483,-3.9409,-4.0288,-4.0288,-4.0508,-4.0873,-4.1405,-4.1937,-4.2075,-4.1397,-4.136,-4.1081,-4.0194,-3.9942,-3.9802,-3.9687,-3.9683,-3.9497,-3.8948,-3.8918,-3.8942,-3.9012,-3.9225,-3.9486,-3.9723,-3.9977,-4.0096,-4.0096,-4.0096,-3.9833,-3.9315,-3.8525,-3.7905,-3.7379,-3.769,-3.7115,0.0,0.0,0.0,0.0,0.0,0.0,-2.4692,0.0,-2.4298,-2.5135,-2.5288,-2.5269,-2.5308,-2.5308,-2.5308,-2.5308,-2.5308,-2.5308,-2.5308,-2.5308,-2.5308,-2.5308,-2.5308,-2.5308,-2.5308,-2.5308,-2.5308,-2.5308,-2.5308,-2.5308,-2.5308,-2.5308,-2.5308,-2.5308,-2.5308,-2.5308,-2.5308,-2.5308,-2.5308,-2.5308,-2.5327,-2.6212,-2.7857,-2.7915,-2.8813,-3.0365,-3.0385,-3.0885,-3.166,-3.1698,-3.266,-3.4129,-3.4148,-3.4699,-3.5462,-3.5462,-3.5481,-3.55,-3.55,-3.55,-3.55,-3.55,-3.55,-3.55,-3.55,-3.6058,-3.65,-3.575,-3.6465,-3.7307,-3.6555,-3.7306,-3.8086,-3.731,-3.8134,-3.887,-3.8066,-3.8329,-3.8723,-3.8707,-3.9331,-3.9863,-3.99,-4.1203,-4.2011,-4.1224,-4.1305,-4.1412,-4.1394,-3.963,-3.9244,-4.1513,-4.0415,-3.9887,-4.0781,-4.0839,-4.0306,-3.9061,-3.9664,-3.9723,-3.9022,-3.9723,-4.0096,-4.0079,-4.0096,-4.0096,-4.0079,-3.9299,-3.8908,-3.8881,-3.8133,-3.7397,-2.0308,0.0,0.0,0.0,0.0,0.0,0.0,0.0,-2.3567,-2.5,-2.4832,-2.4601,-2.5192,-2.5308,-2.5308,-2.5308,-2.5308,-2.5308,-2.5308,-2.5308,-2.5308,-2.5308,-2.5308,-2.5308,-2.5308,-2.5308,-2.5308,0.0,-2.5308,-2.5308,-2.5308,-2.5308,-2.5308,-2.5308,-2.5308,-2.5308,-2.5308,-2.5308,-2.5308,-2.5308,-2.5942,-2.6486,-2.7005,-2.8222,-2.903,-2.9486,-3.0135,-3.0538,-3.0808,-3.1448,-3.1968,-3.2449,-3.3026,-3.3795,-3.4564,-3.4564,-3.4968,-3.55,-3.55,-3.55,-3.55,-3.55,-3.55,-3.55,-3.55,-3.5654,-3.5904,-3.6269,-3.6637,-3.7015,-3.7417,-3.7627,-3.7661,-3.7433,-3.7975,-3.8456,-3.8249,-3.86,-3.8919,-3.875,-3.8891,-3.9221,-3.979,-4.0744,-4.1352,-4.1132,-4.1637,-4.1825,-4.1259,-4.0682,-4.0437,-4.0703,-4.0324,-4.0045,-3.997,-3.9432,-3.8986,-3.8784,-3.894,-3.9001,-3.8996,-3.9723,-3.9859,-3.9292,-3.9842,-3.9842,-3.9292,-3.9623,-3.9463,-3.8881,-3.8133,-3.7978,0.0,0.0,0.0,0.0,0.0,0.0,-2.3447,-2.3043,-2.2562,0.0,-2.3735,-2.3701,-2.4178,-2.4543,-2.4793,-2.4793,-2.5077,-2.5308,-2.5308,-2.5308,-2.5308,-2.5308,-2.5308,-2.5308,-2.5308,-2.5308,-2.5308,-2.5308,-2.5308,-2.5308,-2.5308,-2.5308,-2.5308,-2.5308,-2.5308,-2.5308,-2.5308,-2.5308,-2.5308,-2.5308,-2.5808,-2.625,-2.6659,-2.7986,-2.878,-2.9146,-3.0019,-3.0404,-3.0442,-3.0942,-3.1365,-3.1756,-3.2218,-3.291,-3.3705,-3.4071,-3.4526,-3.5007,-3.5365,-3.55,-3.55,-3.55,-3.55,-3.55,-3.55,-3.55,-3.5596,-3.6077,-3.6192,-3.6327,-3.6834,-3.7064,-3.7083,-3.6758,-3.7328,-3.7881,-3.7549,-3.8161,-3.8794,-3.8849,-3.8777,-3.8854,-3.9313,-4.0065,-4.0487,-4.0141,-4.0781,-4.113,-4.0671,-4.0322,-4.0244,-4.0594,-4.034,-4.0184,-4.0352,-3.9936,-3.9471,-3.9063,-3.9293,-3.9254,-3.8852,-3.9522,-3.9783,-3.9469,-3.9588,-3.9436,-3.8988,-3.974,-3.9876,-3.9385,-3.8968,-3.8816,0.0,0.0,0.0,0.0,0.0,0.0,-2.3192,-2.2538,-2.1639,0.0,-2.2466,-2.2682,-2.2778,-2.3509,-2.411,-2.411,-2.4774,-2.5308,-2.5308,-2.5308,-2.5308,-2.5308,-2.5308,-2.5308,-2.5308,-2.5308,-2.5308,-2.5308,-2.5308,-2.5308,-2.5308,-2.5308,-2.5308,-2.5308,-2.5308,-2.5308,-2.5308,-2.5308,-2.5308,-2.5308,-2.5308,-2.5712,-2.6486,-2.7351,-2.8203,-2.9011,-2.989,-3.0308,-3.0404,-3.0404,-3.0865,-3.1564,-3.1564,-3.2045,-3.2852,-3.3648,-3.4032,-3.4302,-3.4981,-3.5269,-3.5365,-3.5365,-3.5365,-3.5365,-3.5462,-3.55,-3.55,-3.55,-3.55,-3.55,-3.55,-3.6038,-3.6385,-3.5673,-3.6473,-3.722,-3.6505,-3.7412,-3.8505,-3.897,-3.8892,-3.8735,-3.8707,-3.9368,-3.9662,-3.8946,-3.9515,-4.0029,-4.0029,-3.9331,-3.9423,-4.093,-4.0377,-4.0324,-4.1415,-4.1432,-4.0866,-3.9667,-4.0208,-3.9958,-3.8612,-3.9279,-3.9749,-3.9925,-3.9325,-3.9039,-3.9106,-3.9791,-4.0096,-4.0096,-4.0096,-3.9731,0.0,0.0,0.0,0.0,0.0,0.0,-2.374,-2.2697,-2.1927,0.0,-2.2663,-2.1966,-2.2663,-2.3509,-2.411,-2.411,-2.4774,-2.5308,-2.5308,-2.5308,-2.5308,-2.5308,-2.5308,-2.5308,-2.5308,-2.5308,-2.5308,-2.5308,-2.5308,-2.5308,-2.5308,-2.5308,-2.5308,-2.5308,-2.5308,-2.5308,-2.5308,-2.5308,-2.5308,-2.5308,-2.5308,-2.5385,-2.5577,-2.6467,-2.7313,-2.8184,-2.9011,-2.9756,-3.0404,-3.0404,-3.05,-3.0654,-3.0654,-3.1173,-3.1948,-3.2122,-3.3045,-3.4129,-3.3583,-3.3872,-3.4449,-3.4449,-3.4449,-3.4584,-3.5288,-3.55,-3.55,-3.55,-3.55,-3.55,-3.55,-3.5615,-3.5692,-3.5538,-3.6183,-3.6807,-3.6653,-3.7721,-3.8726,-3.8828,-3.8939,-3.8961,-3.875,-3.9368,-3.9845,-3.968,-4.0359,-4.0873,-4.0873,-4.0157,-4.0029,-4.1003,-4.0377,-4.0492,-4.1986,-4.1546,-4.0884,-4.0184,-4.0235,-3.9683,-3.8408,-3.9071,-3.9276,-3.8899,-3.8959,-3.9276,-3.9893,-4.0028,-4.0096,-4.0096,-4.0096,-4.002,0.0,0.0,0.0,-2.2797,0.0,0.0,0.0,-2.2639,-2.1947,-2.3524,-2.2274,-2.1174,-2.203,-2.2889,-2.3315,-2.2921,-2.3887,-2.4543,-2.412,-2.4769,-2.5154,-2.4755,-2.5058,-2.5308,-2.5308,-2.5308,-2.5308,-2.5308,-2.5308,-2.5308,-2.5308,-2.5308,-2.5308,-2.5308,-2.5308,-2.5308,-2.5308,-2.5308,-2.5308,-2.5308,-2.5308,-2.5308,-2.5346,-2.6659,-2.7486,-2.7972,-2.9217,-3.0,-3.0404,-3.0404,-3.0404,-3.0404,-3.0404,-3.0673,-3.1096,-3.1545,-3.2237,-3.3006,-3.341,-3.384,-3.4263,-3.4718,-3.4545,-3.4359,-3.5231,-3.55,-3.5327,-3.4442,-3.4827,-3.5404,-3.4968,-3.5173,-3.55,-3.55,-3.5808,-3.6212,-3.6615,-3.759,-3.8472,-3.8747,-3.922,-3.9445,-3.8975,-3.912,-3.9294,-3.9294,-3.9643,-3.9884,-3.9884,-3.9551,-3.946,-3.9863,-3.9551,-3.9955,-4.157,-4.0965,-4.0555,-4.0683,-4.0285,-3.9624,-3.8685,-3.8986,-3.9027,-3.8611,-3.949,-3.9822,-3.9554,-3.9554,-3.974,-4.0096,-3.9723,-3.9757,0.0,0.0,0.0,0.0,0.0,-2.3398,0.0,0.0,0.0,-2.3462,-2.2156,-2.1023,-2.1711,0.0,0.0,-2.1736,0.0,0.0,0.0,-2.3764,0.0,-2.4168,-2.4812,-2.5308,-2.5308,-2.5308,-2.5308,-2.5308,-2.5308,-2.5308,-2.5308,-2.5308,-2.5308,-2.5308,-2.5308,-2.5308,-2.5308,-2.5308,-2.5308,-2.5308,-2.5308,-2.5308,-2.5346,-2.6928,-2.764,-2.7736,-2.9256,-2.9923,-2.9923,-2.9923,-2.9923,-2.9942,-3.0269,-3.0404,-3.0481,-3.1192,-3.1564,-3.1872,-3.3064,-3.359,-3.3833,-3.4538,-3.441,-3.4083,-3.4788,-3.5,-3.4731,-3.3506,-3.4045,-3.4904,-3.4545,-3.4853,-3.5288,-3.5462,-3.55,-3.5712,-3.6519,-3.7392,-3.8186,-3.8781,-3.9557,-3.9912,-3.9289,-3.8961,-3.8792,-3.8792,-3.8735,-3.8707,-3.8707,-3.8707,-3.8707,-3.8707,-3.8707,-3.9294,-4.0747,-4.0267,-4.0175,-4.082,-4.0267,-3.9685,-3.9189,-3.9355,-3.9362,-3.9149,-4.0418,-4.0441,-3.9149,-3.9149,-3.9466,-4.0079,-3.9326,-3.9394,0.0,0.0,0.0,0.0,-2.5067,0.0,0.0,0.0,-2.386,-2.4009,0.0,-2.264,0.0,0.0,0.0,0.0,0.0,0.0,-2.0817,-2.2022,-2.3336,-2.4014,-2.4812,-2.5308,-2.5308,-2.5308,-2.5308,-2.5308,-2.5308,-2.5308,-2.5308,-2.5308,-2.5308,-2.5308,-2.5308,-2.5308,-2.5308,-2.5308,-2.5308,-2.5308,-2.5308,-2.5308,-2.5327,-2.6308,-2.6755,-2.6794,-2.7775,-2.8179,-2.8179,-2.8179,-2.8179,-2.8332,-2.9827,-3.0404,-3.0404,-3.0519,-3.1038,-3.1621,-3.1019,-3.1346,-3.2006,-3.2102,-3.2545,-3.3064,-3.3179,-3.3199,-3.3314,-3.3898,-3.3641,-3.3526,-3.4981,-3.4853,-3.4545,-3.5327,-3.55,-3.5712,-3.6519,-3.7392,-3.825,-3.9073,-3.9714,-3.9982,-3.9611,-3.9282,-3.9044,-3.9044,-3.884,-3.8707,-3.8707,-3.8707,-3.8707,-3.8707,-3.8707,-3.9056,-3.9955,-3.9937,-3.9937,-4.0029,-3.9937,-3.9866,-3.98,-4.0636,-4.1103,-4.1079,-4.1496,-4.1034,-3.9721,-3.9721,-3.9832,-4.0079,-3.9326,-3.9394,0.0,0.0,0.0,0.0,0.0,0.0,-2.5379,0.0,-2.4304,0.0,0.0,0.0,0.0,0.0,0.0,0.0,-2.1988,0.0,0.0,0.0,-2.177,-2.2611,0.0,0.0,-2.4543,-2.5019,-2.5308,-2.5308,-2.5308,-2.5308,-2.5308,-2.5308,-2.5308,-2.5308,-2.5308,-2.5308,-2.5308,-2.5308,-2.5308,-2.5308,-2.5308,-2.5308,-2.5327,-2.6192,-2.6601,-2.6659,-2.7525,-2.7895,-2.7934,-2.8396,-2.8607,-2.8723,-2.9923,-3.0096,-2.9717,-3.0212,-3.0635,-3.0962,-3.1115,-3.1385,-3.1698,-3.1698,-3.2237,-3.2718,-3.1731,-3.2141,-3.2776,-3.2179,-3.2795,-3.3699,-3.393,-3.4468,-3.5045,-3.5404,-3.55,-3.5712,-3.6519,-3.7392,-3.8257,-3.913,-3.986,-4.0285,-4.0148,-3.9716,-3.9314,-3.9139,-3.8994,-3.8884,-3.8719,-3.8707,-3.8707,-3.8707,-3.8707,-3.9038,-3.9827,-3.946,-3.9606,-4.0543,-4.0598,-4.0598,-4.0598,-4.1459,-4.1542,-4.0708,-4.1776,-4.1647,-4.0262,-3.9951,-3.983,-3.9901,-3.9302,-3.9394,-2.5371,0.0,0.0,0.0,0.0,0.0,0.0,0.0,0.0,0.0,0.0,0.0,0.0,0.0,0.0,0.0,0.0,-2.1068,0.0,-2.0302,0.0,0.0,0.0,0.0,0.0,-2.4313,-2.4734,-2.4941,-2.4976,-2.5077,-2.5288,-2.5308,-2.5308,-2.5308,-2.5308,-2.5308,-2.5308,-2.5308,-2.5308,-2.5308,-2.5308,-2.5308,-2.5327,-2.6192,-2.6467,-2.6288,-2.7178,-2.7409,-2.7236,-2.7813,-2.8198,-2.8511,-2.9371,-2.9467,-2.9204,-3.0077,-3.0404,-3.05,-3.1115,-3.1346,-3.1346,-3.1346,-3.1737,-3.1987,-3.0769,-3.125,-3.2006,-3.1019,-3.1929,-3.316,-3.3237,-3.4026,-3.4904,-3.5385,-3.55,-3.5712,-3.6519,-3.7199,-3.7892,-3.8757,-3.9611,-4.0169,-4.0169,-3.9929,-3.9656,-3.9401,-3.9289,-3.9125,-3.8844,-3.8818,-3.8773,-3.8723,-3.8707,-3.8946,-3.9515,-3.9038,-3.9294,-4.0689,-4.0967,-4.1187,-4.1407,-4.2194,-4.2151,-4.1125,-4.2068,-4.2004,-4.0864,-4.0204,-3.9879,-3.9794,-3.9047,-3.9089,0.0,0.0,0.0,-2.5569,0.0,0.0,0.0,0.0,-2.5469,0.0,0.0,0.0,0.0,0.0,0.0,0.0,0.0,0.0,0.0,0.0,0.0,0.0,0.0,0.0,0.0,-2.2994,-2.3294,0.0,-2.4139,-2.449,-2.5269,-2.5308,-2.5308,-2.5308,-2.5308,-2.5308,-2.5308,-2.5308,-2.5308,-2.5308,-2.5308,-2.5308,-2.5327,-2.6192,-2.6135,-2.5385,-2.625,-2.6154,-2.5385,-2.5404,-2.5923,-2.6774,-2.764,-2.8434,-2.9204,-3.0077,-3.0404,-3.0404,-3.0423,-3.0442,-3.0442,-3.0442,-3.0462,-3.0462,-3.0423,-3.0442,-3.0635,-3.1448,-3.1115,-3.1077,-3.3526,-3.3564,-3.341,-3.5096,-3.55,-3.5712,-3.6519,-3.6712,-3.7,-3.7873,-3.8738,-3.9342,-3.9342,-3.9742,-4.0081,-4.0071,-3.9786,-3.945,-3.9139,-3.9085,-3.8985,-3.8719,-3.8707,-3.8707,-3.8744,-3.8707,-3.9056,-3.9882,-4.0671,-4.1444,-4.2231,-4.302,-4.3442,-4.3388,-4.2691,-4.2045,-4.1467,-4.0599,-4.0042,-3.9777,-3.8536,-3.8328,0.0,0.0,-2.5559,-2.5545,0.0,0.0,0.0,0.0,0.0,0.0,0.0,0.0,0.0,0.0,0.0,0.0,0.0,0.0,0.0,0.0,0.0,0.0,0.0,0.0,0.0,0.0,0.0,-2.3252,-2.4273,-2.4774,-2.4529,-2.5,-2.5308,-2.5308,-2.5308,-2.5308,-2.5308,-2.5308,-2.5308,-2.5308,-2.5308,-2.5308,-2.5308,-2.5615,-2.5577,-2.5327,-2.5615,-2.5577,-2.5385,-2.6544,-2.7198,-2.7601,-2.9006,-2.9712,-3.0,-3.0288,-3.0404,-3.0404,-3.0404,-3.0788,-3.125,-3.125,-3.125,-3.125,-3.125,-3.0865,-3.0462,-3.075,-3.1423,-3.2256,-3.3122,-3.3987,-3.4769,-3.5365,-3.55,-3.5577,-3.5846,-3.6327,-3.6788,-3.7084,-3.7834,-3.8623,-3.9207,-3.8965,-3.904,-3.9948,-4.0002,-3.9808,-3.9462,-3.877,-3.8481,-3.8934,-3.832,-3.7915,-3.7915,-3.8395,-3.9276,-4.0616,-4.146,-4.2029,-4.2286,-4.3057,-4.3002,-4.1937,-4.269,-4.2475,-4.1224,-4.1071,-4.0414,-3.9321,-3.8532,-3.8732,-2.5573,-2.5603,0.0,-2.5572,-2.5603,0.0,-2.5635,0.0,-2.5657,0.0,0.0,0.0,0.0,0.0,0.0,0.0,0.0,0.0,0.0,-2.0605,0.0,0.0,0.0,0.0,0.0,0.0,-2.1861,-2.0253,-2.278,-2.4447,0.0,-2.5019,-2.5308,-2.5308,-2.5308,-2.5308,-2.5308,-2.5308,-2.5308,-2.5308,-2.5308,-2.5308,-2.5308,-2.5308,-2.5308,-2.5308,-2.5308,-2.5308,-2.5385,-2.6505,-2.7332,-2.8011,-2.9083,-2.9885,-3.0404,-3.0404,-3.0404,-3.0442,-3.075,-3.1231,-3.1756,-3.2025,-3.1929,-3.1698,-3.1698,-3.1096,-3.0404,-3.0404,-3.1404,-3.2545,-3.2833,-3.3968,-3.5122,-3.5423,-3.55,-3.55,-3.55,-3.5904,-3.6269,-3.6269,-3.6969,-3.7719,-3.8277,-3.8161,-3.852,-4.0029,-3.9734,-3.9337,-3.9315,-3.8399,-3.7925,-3.8334,-3.7774,-3.7438,-3.7626,-3.8287,-3.9258,-4.0598,-4.1167,-4.157,-4.1864,-4.2653,-4.2598,-4.1535,-4.2543,-4.2561,-4.1534,-4.1083,-4.0401,-3.9481,-3.9067,-3.9219]},{"header":{"parameterUnit":"m.s-1","parameterCategory":1,"la1":30.6,"la2":29.2853,"lo1":-89.7004,"lo2":-87.6739,"dy":0.0162,"dx":0.0183,"nx":112,"ny":82,"refTime":"2023-08-31T18:00:00:Z","depth":0,"parameterNumber":3,"parameterNumberName":"V-component_of_WINDS"},"data":[0.0,0.0,0.0,0.0,0.0,0.0,0.0,0.0,0.0,0.0,0.0,0.0,0.0,0.0,0.0,0.0,0.0,0.0,0.0,0.0,0.0,0.0,0.0,0.0,0.0,0.0,0.0,0.0,0.0,0.0,0.0,0.0,0.0,0.0,0.0,0.0,0.0,0.0,0.0,0.0,0.0,0.0,0.0,0.0,0.0,0.0,0.0,0.0,0.0,0.0,0.0,0.0,0.0,0.0,0.0,0.0,0.0,0.0,0.0,0.0,0.0,0.0,0.0,0.0,0.0,0.0,0.0,0.0,0.0,0.0,0.0,0.0,0.0,0.0,0.0,0.0,0.0,0.0,0.0,0.0,0.0,0.0,0.0,0.0,0.0,0.0,0.0,0.0,0.0,0.0,2.4776,2.8697,3.4113,3.7383,3.7235,3.6852,3.427,2.8741,0.0,0.0,0.0,0.0,0.0,0.0,0.0,0.0,0.0,0.0,0.0,0.0,0.0,0.0,0.0,0.0,0.0,0.0,0.0,0.0,0.0,0.0,0.0,0.0,0.0,0.0,0.0,0.0,0.0,0.0,0.0,0.0,0.0,0.0,0.0,0.0,0.0,0.0,0.0,0.0,0.0,0.0,0.0,0.0,0.0,0.0,0.0,0.0,0.0,0.0,0.0,0.0,0.0,0.0,0.0,0.0,0.0,0.0,0.0,0.0,0.0,0.0,0.0,0.0,0.0,0.0,0.0,0.0,0.0,0.0,0.0,0.0,0.0,0.0,0.0,0.0,0.0,0.0,0.0,0.0,0.0,0.0,0.0,0.0,0.0,0.0,0.0,0.0,0.0,0.0,0.0,0.0,0.0,0.0,0.0,0.0,0.0,0.0,0.0,0.0,0.0,0.0,0.0,0.0,2.6589,3.3004,3.7146,3.9112,3.8261,3.6215,3.3587,3.0327,0.0,0.0,0.0,0.0,0.0,0.0,0.0,0.0,0.0,0.0,0.0,0.0,0.0,0.0,0.0,0.0,0.0,0.0,0.0,0.0,0.0,0.0,0.0,0.0,0.0,0.0,0.0,0.0,0.0,0.0,0.0,0.0,0.0,0.0,0.0,0.0,0.0,0.0,0.0,0.0,0.0,0.0,0.0,0.0,0.0,0.0,0.0,0.0,0.0,0.0,0.0,0.0,0.0,0.0,0.0,0.0,0.0,0.0,0.0,0.0,0.0,0.0,0.0,0.0,0.0,0.0,0.0,0.0,0.0,0.0,0.0,0.0,0.0,0.0,0.0,0.0,0.0,0.0,0.0,0.0,0.0,0.0,0.0,0.0,0.0,0.0,0.0,0.0,0.0,0.0,0.0,0.0,0.0,0.0,0.0,0.0,0.0,0.0,0.0,0.0,0.0,0.0,0.0,2.6393,2.9466,3.5469,3.8379,3.9511,3.8588,3.6577,3.4003,3.0808,2.8148,0.0,0.0,0.0,0.0,0.0,0.0,0.0,0.0,0.0,0.0,0.0,0.0,0.0,0.0,0.0,0.0,0.0,0.0,0.0,0.0,0.0,0.0,0.0,0.0,0.0,0.0,0.0,0.0,0.0,0.0,0.0,0.0,0.0,0.0,0.0,0.0,0.0,0.0,0.0,0.0,0.0,0.0,0.0,0.0,0.0,0.0,0.0,0.0,0.0,0.0,0.0,0.0,0.0,0.0,0.0,0.0,0.0,0.0,0.0,0.0,0.0,0.0,0.0,0.0,0.0,0.0,0.0,0.0,0.0,0.0,0.0,0.0,0.0,0.0,0.0,0.0,0.0,0.0,0.0,0.0,0.0,0.0,0.0,0.0,0.0,0.0,0.0,0.0,0.0,0.0,0.0,0.0,0.0,0.0,0.0,0.0,0.0,0.0,0.0,0.0,0.0,0.0,2.916,3.1875,3.6211,3.8437,3.9238,3.8379,3.6328,3.3842,3.0886,2.7117,0.0,0.0,0.0,0.0,0.0,0.0,0.0,0.0,0.0,0.0,0.0,0.0,0.0,0.0,0.0,0.0,0.0,0.0,0.0,0.0,0.0,0.0,0.0,0.0,0.0,0.0,0.0,0.0,0.0,0.0,0.0,0.0,0.0,0.0,0.0,0.0,0.0,0.0,0.0,0.0,0.0,0.0,0.0,0.0,0.0,0.0,0.0,0.0,0.0,0.0,0.0,0.0,0.0,0.0,0.0,0.0,0.0,0.0,0.0,0.0,0.0,0.0,0.0,0.0,0.0,0.0,0.0,0.0,0.0,0.0,0.0,0.0,0.0,0.0,0.0,0.0,0.0,0.0,0.0,0.0,0.0,0.0,0.0,0.0,0.0,0.0,0.0,0.0,0.0,0.0,0.0,0.0,0.0,0.0,0.0,0.0,0.0,0.0,0.0,0.0,0.0,0.0,2.9431,3.2754,3.4687,3.7168,3.834,3.7461,3.4375,3.1966,3.0767,2.5961,0.0,0.0,0.0,0.0,0.0,0.0,0.0,0.0,0.0,0.0,0.0,0.0,0.0,0.0,0.0,0.0,0.0,0.0,0.0,0.0,0.0,0.0,0.0,0.0,0.0,0.0,0.0,0.0,0.0,0.0,0.0,0.0,0.0,0.0,0.0,0.0,0.0,0.0,0.0,0.0,0.0,0.0,0.0,0.0,0.0,0.0,0.0,0.0,0.0,0.0,0.0,0.0,0.0,0.0,0.0,0.0,0.0,0.0,0.0,0.0,0.0,0.0,0.0,0.0,0.0,0.0,0.0,0.0,0.0,0.0,0.0,0.0,0.0,0.0,0.0,0.0,0.0,0.0,0.0,0.0,0.0,0.0,0.0,0.0,0.0,0.0,0.0,0.0,0.0,0.0,0.0,0.0,0.0,0.0,0.0,0.0,0.0,0.0,0.0,0.0,0.0,0.0,2.8886,3.1641,3.4394,3.6074,3.6621,3.5742,3.3535,3.1537,2.9985,0.0,0.0,0.0,0.0,0.0,0.0,0.0,0.0,0.0,0.0,0.0,0.0,0.0,0.0,0.0,0.0,0.0,0.0,0.0,0.0,0.0,0.0,0.0,0.0,0.0,0.0,0.0,0.0,0.0,0.0,0.0,0.0,0.0,0.0,0.0,0.0,0.0,0.0,0.0,0.0,0.0,0.0,0.0,0.0,0.0,0.0,0.0,0.0,0.0,0.0,0.0,0.0,0.0,0.0,0.0,0.0,0.0,0.0,0.0,0.0,0.0,0.0,0.0,0.0,0.0,0.0,0.0,0.0,0.0,0.0,0.0,0.0,0.0,0.0,0.0,0.0,0.0,0.0,0.0,0.0,0.0,0.0,0.0,0.0,0.0,0.0,0.0,0.0,0.0,0.0,0.0,0.0,0.0,0.0,0.0,0.0,0.0,0.0,0.0,0.0,0.0,0.0,2.625,2.8105,3.0195,3.2793,3.3867,3.4141,3.3535,3.1426,2.982,2.9067,0.0,0.0,0.0,0.0,0.0,0.0,0.0,0.0,0.0,0.0,0.0,0.0,0.0,0.0,0.0,0.0,0.0,0.0,0.0,0.0,0.0,0.0,0.0,0.0,0.0,0.0,0.0,0.0,0.0,0.0,0.0,0.0,0.0,0.0,0.0,0.0,0.0,0.0,0.0,0.0,0.0,0.0,0.0,0.0,0.0,0.0,0.0,0.0,0.0,0.0,0.0,0.0,0.0,0.0,0.0,0.0,0.0,0.0,0.0,0.0,0.0,0.0,0.0,0.0,0.0,0.0,0.0,0.0,0.0,0.0,0.0,0.0,0.0,0.0,0.0,0.0,0.0,0.0,0.0,0.0,0.0,0.0,0.0,0.0,0.0,0.0,0.0,0.0,0.0,0.0,0.0,0.0,0.0,0.0,0.0,0.0,0.0,0.0,0.0,0.0,0.0,0.0,2.5586,2.7207,2.8613,2.9492,3.0351,3.0879,3.0879,2.7695,2.6404,0.0,0.0,0.0,0.0,0.0,0.0,0.0,0.0,0.0,0.0,0.0,0.0,0.0,0.0,0.0,0.0,0.0,0.0,0.0,0.0,0.0,0.0,0.0,0.0,0.0,0.0,0.0,0.0,0.0,0.0,0.0,0.0,0.0,0.0,0.0,0.0,0.0,0.0,0.0,0.0,0.0,0.0,0.0,0.0,0.0,0.0,0.0,0.0,0.0,0.0,0.0,0.0,0.0,0.0,0.0,0.0,0.0,0.0,0.0,0.0,0.0,0.0,0.0,0.0,0.0,0.0,0.0,0.0,0.0,0.0,0.0,0.0,0.0,0.0,0.0,0.0,0.0,0.0,0.0,0.0,0.0,0.0,0.0,0.0,0.0,0.0,0.0,0.0,0.0,0.0,0.0,0.0,0.0,0.0,0.0,0.0,0.0,0.0,0.0,0.0,0.0,0.0,0.0,2.5586,2.6699,2.7715,2.8594,2.8906,2.9062,2.9062,2.6992,2.615,2.7226,0.0,0.0,0.0,0.0,0.0,0.0,0.0,0.0,0.0,0.0,0.0,0.0,0.0,0.0,0.0,0.0,0.0,0.0,0.0,0.0,0.0,0.0,0.0,0.0,0.0,0.0,0.0,0.0,0.0,0.0,0.0,0.0,0.0,0.0,0.0,0.0,0.0,0.0,0.0,0.0,0.0,0.0,0.0,0.0,0.0,0.0,0.0,0.0,0.0,0.0,0.0,0.0,0.0,0.0,0.0,0.0,0.0,0.0,0.0,0.0,0.0,0.0,0.0,0.0,0.0,0.0,0.0,0.0,0.0,0.0,0.0,0.0,0.0,0.0,0.0,0.0,0.0,0.0,0.0,0.0,0.0,0.0,0.0,0.0,0.0,0.0,0.0,0.0,0.0,0.0,0.0,0.0,0.0,0.0,0.0,0.0,0.0,0.0,0.0,0.0,0.0,0.0,2.5625,2.6152,2.668,2.7207,2.7266,2.7266,2.7266,2.5977,2.5546,2.6379,0.0,0.0,0.0,0.0,0.0,0.0,0.0,0.0,0.0,0.0,0.0,0.0,0.0,0.0,0.0,0.0,0.0,0.0,0.0,0.0,0.0,0.0,0.0,0.0,0.0,0.0,0.0,0.0,0.0,0.0,0.0,0.0,0.0,0.0,0.0,0.0,0.0,0.0,0.0,0.0,0.0,0.0,0.0,0.0,0.0,0.0,0.0,0.0,0.0,0.0,0.0,0.0,0.0,0.0,0.0,0.0,0.0,0.0,0.0,0.0,0.0,0.0,0.0,0.0,0.0,0.0,0.0,0.0,0.0,0.0,0.0,0.0,0.0,0.0,0.0,0.0,0.0,0.0,0.0,0.0,0.0,0.0,0.0,0.0,0.0,0.0,0.0,0.0,0.0,0.0,0.0,0.0,0.0,0.0,0.0,0.0,0.0,0.0,0.0,0.0,0.0,0.0,2.5683,2.5683,2.5683,2.5683,2.5683,2.5683,2.5703,2.4902,2.4766,2.5644,0.0,0.0,0.0,0.0,0.0,0.0,0.0,0.0,0.0,0.0,0.0,0.0,0.0,0.0,0.0,0.0,0.0,0.0,0.0,0.0,0.0,0.0,0.0,0.0,0.0,0.0,0.0,0.0,0.0,0.0,0.0,0.0,0.0,0.0,0.0,0.0,0.0,0.0,0.0,0.0,0.0,0.0,0.0,0.0,0.0,0.0,0.0,0.0,0.0,0.0,0.0,0.0,0.0,0.0,0.0,0.0,0.0,0.0,0.0,0.0,2.5366,2.5414,0.0,0.0,0.0,0.0,0.0,0.0,0.0,0.0,0.0,0.0,0.0,0.0,0.0,0.0,0.0,0.0,0.0,0.0,0.0,0.0,0.0,0.0,0.0,0.0,0.0,0.0,0.0,0.0,0.0,0.0,0.0,0.0,0.0,0.0,0.0,0.0,0.0,0.0,0.0,0.0,2.561,2.5588,2.5561,2.5628,2.561,2.5636,2.5703,2.4902,2.4766,2.5644,2.4883,0.0,0.0,0.0,0.0,0.0,0.0,0.0,0.0,0.0,0.0,0.0,0.0,0.0,0.0,0.0,0.0,0.0,0.0,0.0,0.0,0.0,0.0,0.0,0.0,0.0,0.0,0.0,0.0,0.0,0.0,0.0,0.0,0.0,0.0,0.0,0.0,0.0,0.0,0.0,0.0,0.0,0.0,0.0,0.0,0.0,0.0,0.0,0.0,0.0,0.0,0.0,0.0,0.0,0.0,0.0,0.0,0.0,0.0,0.0,2.6952,2.6067,0.0,0.0,0.0,0.0,0.0,0.0,0.0,0.0,0.0,0.0,0.0,0.0,0.0,0.0,0.0,0.0,0.0,0.0,0.0,0.0,0.0,0.0,0.0,0.0,0.0,0.0,0.0,0.0,0.0,0.0,0.0,0.0,0.0,0.0,0.0,0.0,0.0,0.0,0.0,0.0,2.5554,2.5511,2.5503,2.5551,2.5554,2.5563,2.5602,2.5193,2.514,2.5619,2.4838,0.0,0.0,0.0,0.0,0.0,0.0,0.0,0.0,0.0,0.0,0.0,0.0,0.0,0.0,0.0,0.0,0.0,0.0,0.0,0.0,0.0,0.0,0.0,0.0,0.0,0.0,0.0,0.0,0.0,0.0,0.0,0.0,0.0,0.0,0.0,0.0,0.0,0.0,0.0,0.0,0.0,0.0,0.0,0.0,0.0,0.0,0.0,0.0,0.0,0.0,0.0,0.0,0.0,3.2268,3.3007,3.3522,3.3611,3.3567,3.323,2.9724,2.7918,2.7442,2.7344,0.0,0.0,0.0,0.0,0.0,0.0,0.0,0.0,0.0,0.0,0.0,0.0,0.0,0.0,0.0,0.0,0.0,0.0,0.0,0.0,0.0,0.0,2.6685,2.6994,2.7583,2.7696,2.6304,0.0,0.0,0.0,0.0,0.0,0.0,0.0,0.0,0.0,0.0,0.0,2.5473,2.5463,2.5479,2.5473,2.5473,2.5498,2.551,2.5491,2.5511,2.557,2.4907,2.4861,0.0,0.0,0.0,0.0,0.0,0.0,0.0,0.0,0.0,0.0,0.0,0.0,0.0,0.0,0.0,0.0,0.0,0.0,0.0,0.0,0.0,0.0,0.0,0.0,0.0,0.0,0.0,0.0,0.0,0.0,0.0,0.0,2.55,2.5493,0.0,0.0,0.0,0.0,0.0,0.0,0.0,0.0,0.0,0.0,0.0,0.0,0.0,3.0794,3.2256,3.3185,3.3702,3.3838,3.5335,3.5765,3.52,3.5607,3.5557,3.511,3.4225,0.0,2.9956,2.9214,0.0,0.0,0.0,0.0,0.0,0.0,0.0,0.0,0.0,0.0,0.0,0.0,0.0,0.0,0.0,0.0,0.0,0.0,0.0,0.0,0.0,0.0,2.6587,2.7881,2.8272,2.8283,2.808,2.7236,2.6327,2.5563,2.5411,2.5434,0.0,0.0,0.0,0.0,0.0,0.0,2.5411,2.5367,2.5342,2.5401,2.5404,2.5434,2.5506,2.5491,2.5496,2.5503,2.5405,2.541,2.5513,2.5416,0.0,0.0,0.0,0.0,0.0,0.0,0.0,0.0,0.0,0.0,0.0,0.0,0.0,0.0,0.0,0.0,0.0,0.0,0.0,0.0,0.0,0.0,0.0,0.0,0.0,0.0,0.0,0.0,0.0,2.5692,2.5763,2.5434,2.5689,2.5768,0.0,0.0,0.0,0.0,0.0,0.0,0.0,0.0,0.0,3.2,3.2542,3.3356,3.4544,3.5848,3.6737,3.7241,3.8432,3.9068,3.9163,3.937,3.9342,3.9134,3.898,3.7619,3.5333,3.2503,3.0877,3.009,0.0,0.0,0.0,0.0,2.9907,3.0309,3.0839,3.0683,3.0326,3.0564,0.0,0.0,0.0,0.0,0.0,0.0,0.0,2.7234,2.7933,2.8469,2.9001,2.9652,3.0142,3.0358,2.9888,2.9022,2.7828,2.6078,2.6228,2.6332,2.5388,2.5224,0.0,0.0,0.0,2.5333,2.5333,2.5322,2.5308,2.5348,2.5329,2.537,2.5383,2.5387,2.5394,2.5447,2.4978,2.496,2.5489,2.5022,2.5014,0.0,0.0,0.0,0.0,0.0,0.0,0.0,0.0,0.0,0.0,0.0,0.0,0.0,0.0,0.0,0.0,0.0,0.0,0.0,0.0,0.0,0.0,0.0,0.0,0.0,0.0,0.0,0.0,2.618,2.6409,2.5308,2.6472,2.6958,0.0,0.0,0.0,0.0,0.0,0.0,3.1063,3.1729,3.2902,3.476,3.5439,3.6265,3.7305,3.8555,3.9606,4.0477,4.113,4.1877,4.2662,4.2553,4.244,4.2329,4.2239,4.1418,3.9835,3.5944,3.3724,3.2718,3.1915,3.1716,3.1967,3.2406,3.2695,3.3018,3.4,3.3795,3.3032,3.2814,3.1573,2.987,2.8198,0.0,0.0,0.0,0.0,2.8875,2.9636,3.0311,3.0902,3.1243,3.1786,3.2058,3.1458,3.105,2.9955,2.7159,2.7085,2.7086,2.5786,2.5387,0.0,2.5725,2.5442,2.5349,2.5798,2.5482,2.533,2.5591,2.5423,2.5308,2.5308,2.5308,2.5312,2.5364,2.4776,2.4714,2.5411,2.4823,2.4796,2.5465,0.0,0.0,0.0,0.0,0.0,0.0,0.0,0.0,0.0,0.0,0.0,0.0,0.0,0.0,0.0,0.0,0.0,0.0,0.0,0.0,0.0,0.0,0.0,0.0,0.0,0.0,0.0,0.0,0.0,2.5123,2.8229,0.0,0.0,0.0,0.0,3.1644,3.2449,3.362,3.5289,3.5421,3.661,3.9105,3.923,4.0032,4.1657,4.1782,4.2247,4.3121,4.3158,4.3624,4.4466,4.4059,4.3676,4.3208,4.2898,4.2417,4.1669,3.9027,3.6983,3.5418,3.462,3.477,3.5364,3.462,3.4846,3.5421,3.4722,3.3961,3.3539,3.5095,3.4465,3.2787,3.1177,3.0095,0.0,0.0,2.9532,2.9673,3.0296,3.0485,3.0847,3.2188,3.2561,3.2561,3.2511,3.3272,3.2851,2.9026,2.7713,2.7191,2.7097,0.0,2.6208,2.6992,2.5804,2.5456,2.7165,2.5996,2.5419,2.6432,2.5788,2.5308,2.5308,2.5308,2.5308,2.5298,2.5255,2.526,2.5308,2.5269,2.5305,2.5397,2.5409,0.0,0.0,0.0,0.0,0.0,0.0,0.0,0.0,0.0,0.0,0.0,0.0,0.0,0.0,0.0,0.0,0.0,0.0,0.0,0.0,0.0,0.0,0.0,0.0,0.0,0.0,0.0,0.0,2.9476,3.195,0.0,3.1943,3.2491,3.325,3.4064,3.4803,3.5917,3.7544,3.8118,3.9279,4.1248,4.1304,4.1838,4.2946,4.2965,4.3129,4.3441,4.3441,4.359,4.3902,4.3742,4.3594,4.3426,4.3303,4.3135,4.2891,4.1992,4.057,3.8898,3.8059,3.7889,3.8171,3.8454,3.8747,3.9011,3.9248,3.8432,3.7039,3.5467,3.4204,3.3093,3.1946,3.1665,3.1725,3.1725,3.2384,3.3118,3.3344,3.381,3.4207,3.4169,3.4142,3.3995,3.3476,3.3274,3.2748,3.1367,3.0174,2.9055,2.797,2.711,2.6715,2.7131,2.6712,2.6574,2.7229,2.6783,2.6365,2.6227,2.5949,2.5577,2.5132,2.5105,2.5163,2.5284,2.5308,2.5308,2.5308,2.5308,2.5308,2.5339,2.5335,2.5357,0.0,0.0,0.0,0.0,0.0,0.0,0.0,0.0,0.0,0.0,0.0,0.0,0.0,0.0,0.0,0.0,0.0,0.0,0.0,0.0,0.0,0.0,0.0,0.0,0.0,3.0178,3.2135,3.2195,3.4945,3.6369,3.5157,3.5662,3.6389,3.7193,3.7916,3.8909,4.0249,4.0818,4.1589,4.2671,4.269,4.2947,4.3496,4.3515,4.3515,4.3515,4.3515,4.3515,4.3515,4.3515,4.3515,4.3515,4.3515,4.3515,4.3515,4.3515,4.2783,4.1638,4.0784,4.0448,4.0522,4.1096,4.1301,4.1339,4.1609,4.0787,3.9218,3.674,3.536,3.4565,3.3704,3.3734,3.4055,3.4055,3.4718,3.5445,3.5445,3.5881,3.6156,3.5573,3.5445,3.5206,3.438,3.3793,3.3335,3.306,3.1844,3.0439,2.9061,2.8143,2.7749,2.8147,2.7522,2.7315,2.8239,2.7629,2.7025,2.6825,2.6561,2.6114,2.5411,2.5647,2.5646,2.5164,2.5445,2.551,2.5203,2.5203,2.5224,2.5303,2.5308,2.5308,2.5308,0.0,0.0,0.0,0.0,0.0,0.0,0.0,0.0,0.0,0.0,0.0,0.0,0.0,0.0,0.0,0.0,0.0,0.0,0.0,0.0,0.0,0.0,0.0,2.8155,3.2326,3.47,3.301,3.7048,3.9043,3.6699,3.8603,4.029,4.1097,4.1849,4.2638,4.3425,4.348,4.348,4.348,4.3479,4.3515,4.3515,4.3479,4.348,4.348,4.348,4.348,4.348,4.3479,4.3515,4.3515,4.3515,4.3515,4.3515,4.3515,4.3515,4.3423,4.2635,4.2341,4.2341,4.2341,4.2341,4.2213,4.1407,4.0616,3.9808,3.9038,3.8212,3.7401,3.6633,3.6376,3.6376,3.634,3.6358,3.6376,3.634,3.6358,3.6376,3.634,3.634,3.6101,3.5224,3.5023,3.4766,3.399,3.2559,3.1231,3.0411,2.961,2.9335,3.0118,2.8227,0.0,3.0243,2.846,2.7345,2.8307,2.7723,2.6914,2.6101,2.6913,2.6709,2.4906,2.5709,2.5876,2.5037,2.4979,2.5088,2.5274,2.5274,2.5274,2.5274,0.0,0.0,0.0,0.0,0.0,0.0,0.0,0.0,0.0,0.0,0.0,0.0,0.0,0.0,0.0,0.0,0.0,0.0,0.0,0.0,0.0,2.8543,3.0368,3.1043,3.3804,3.6165,3.7398,3.9738,4.101,4.0347,4.0885,4.1544,4.2213,4.2052,4.221,4.2884,4.292,4.292,4.292,4.3286,4.3515,4.3515,4.3105,4.292,4.292,4.292,4.292,4.2939,4.3321,4.3515,4.3515,4.3515,4.3515,4.3515,4.3515,4.3515,4.3478,4.3259,4.3167,4.3167,4.3167,4.3167,4.3057,4.2249,4.1442,4.0728,4.0508,3.9496,3.8432,3.8799,3.8505,3.7918,3.7327,3.7588,3.7918,3.7327,3.7588,3.7881,3.7309,3.718,3.6942,3.6119,3.5445,3.4931,3.4711,3.3844,3.2889,3.2069,3.1274,3.0815,3.1035,3.0008,0.0,3.0217,2.9211,2.8533,2.8804,2.8638,2.7997,2.6757,2.6912,2.6424,2.491,2.5062,2.5108,2.4855,2.4855,2.4883,2.4948,2.4948,2.4948,0.0,0.0,0.0,0.0,0.0,0.0,0.0,0.0,0.0,0.0,0.0,0.0,0.0,0.0,0.0,0.0,0.0,0.0,0.0,0.0,0.0,0.0,3.0766,3.2873,3.4434,3.6204,3.7994,3.9693,4.1025,4.181,4.181,4.181,4.1937,4.2302,4.2,4.1958,4.2302,4.2322,4.2322,4.2322,4.2619,4.2791,4.2791,4.2482,4.2322,4.2322,4.2322,4.2322,4.2342,4.2657,4.2791,4.2791,4.2791,4.2791,4.2791,4.2791,4.2791,4.2847,0.0,0.0,0.0,0.0,4.3515,4.3441,4.2947,4.2286,4.1535,4.1205,4.0249,3.9239,3.935,3.9074,3.8597,3.812,3.834,3.8597,3.812,3.834,3.8533,3.7831,3.7671,3.7389,3.6347,3.5898,3.5542,3.4976,3.4425,0.0,3.3146,3.2388,3.1788,3.1452,3.0723,3.032,3.065,2.9702,2.9133,2.9464,2.9207,2.8401,2.69,2.7157,0.0,0.0,0.0,2.5023,2.4696,2.476,0.0,0.0,0.0,2.4804,2.4804,2.4804,0.0,0.0,2.4884,2.4864,0.0,0.0,0.0,0.0,0.0,0.0,0.0,0.0,0.0,0.0,0.0,0.0,0.0,0.0,0.0,0.0,3.3213,3.5108,3.7682,3.8849,3.9736,4.0461,4.1173,4.1617,4.1617,4.1617,4.1621,4.1686,4.1643,4.1621,4.1703,4.1686,0.0,0.0,0.0,4.181,4.181,4.1729,4.1686,4.1686,4.1686,4.1686,4.1686,4.1771,4.181,4.181,4.181,4.181,4.181,4.181,4.181,4.1898,4.2922,4.3303,4.3303,4.3303,4.3303,4.3303,4.3211,0.0,0.0,4.1267,4.0494,3.9772,3.9056,3.8731,3.8611,3.8611,3.8562,3.853,3.853,3.853,3.8417,3.7929,3.7825,3.7505,3.6307,3.6328,3.6233,3.496,3.4489,3.4132,3.3578,3.3024,3.242,3.1719,3.0956,3.0723,3.1439,3.0136,2.9445,3.0246,0.0,0.0,2.6869,2.7551,2.697,2.4356,2.505,2.5259,2.4628,2.4762,2.4919,2.5005,2.5005,2.5005,2.5005,2.4919,2.4826,2.474,2.4764,2.4753,0.0,0.0,0.0,0.0,0.0,0.0,0.0,0.0,0.0,0.0,0.0,0.0,0.0,0.0,0.0,3.2842,3.4851,3.6831,3.8556,3.9479,4.0017,4.0171,4.0331,4.0417,4.0417,4.0417,4.0618,4.1041,4.0672,4.0618,4.1064,4.1087,4.1087,4.1087,4.1556,4.181,4.181,4.1313,4.1087,4.1087,4.1087,0.0,4.1087,4.1578,4.181,4.181,4.181,4.181,4.181,4.181,4.181,4.1814,4.2024,4.2144,4.2144,4.2144,4.2144,4.2055,4.1451,4.1384,4.1451,4.0709,4.0207,3.9863,3.9717,3.8909,0.0,3.8047,3.779,3.7487,3.7487,3.7487,3.7469,3.736,3.7341,3.7268,3.6997,3.6466,3.5811,3.4942,3.4233,3.3523,3.2819,3.2916,3.3031,3.2882,3.2447,3.2179,3.2344,3.095,3.0283,3.1085,3.0448,2.9329,2.7695,2.775,2.6804,2.4346,2.4376,2.4699,2.5214,2.5262,2.5595,2.624,2.624,2.624,2.624,2.5595,2.5603,2.617,2.5066,2.4469,0.0,0.0,0.0,0.0,0.0,0.0,0.0,0.0,0.0,0.0,0.0,3.03,3.0506,0.0,3.4091,3.5424,3.6907,3.8164,3.8856,3.9272,3.9636,4.0045,4.0096,4.0096,4.0096,4.0096,4.0204,4.0473,4.0237,4.0229,4.0497,4.0497,4.0497,4.0497,4.0791,4.0938,4.0938,4.0648,4.0497,4.0497,4.0497,4.0497,4.0521,4.0814,4.0938,4.0938,4.0938,4.0938,4.0938,4.0938,4.0938,4.0938,4.0938,4.1308,4.181,4.181,4.181,4.1687,4.0967,4.0867,4.0922,4.0153,3.9552,3.921,3.9554,3.8923,3.8185,3.8541,3.823,3.7755,3.7755,3.7755,3.7591,3.695,3.7084,3.7178,3.6547,3.6269,3.5968,3.5327,3.4493,3.3821,3.354,3.3283,3.2902,3.2344,3.208,3.1946,3.1946,3.0572,2.9904,3.0712,2.9896,2.8816,2.7596,2.6959,2.6256,2.5456,2.5016,2.5154,2.597,2.5988,2.619,2.6583,2.6602,2.6602,2.6602,2.619,2.6209,2.6576,2.588,2.5501,0.0,0.0,0.0,0.0,0.0,0.0,0.0,0.0,2.9006,3.0489,3.1819,3.2963,3.3847,3.5259,3.6624,3.7696,3.8504,3.8966,3.8923,3.8772,3.8924,3.9601,3.9653,3.9705,3.9833,3.9876,3.9876,3.9876,4.002,4.0096,4.0096,3.9952,3.9927,4.0113,3.9952,3.9952,4.0096,4.0096,4.0096,4.0096,4.0096,4.0096,4.0096,4.0096,4.0096,4.0096,4.0096,4.0096,4.0096,4.0096,4.0096,4.0096,4.0096,4.0666,4.1464,4.1464,4.138,4.117,4.058,4.0454,4.0397,3.9597,3.9093,3.889,3.929,3.8909,3.8476,3.9092,3.8746,3.8228,3.8228,3.8228,3.7933,3.6748,3.6935,3.7028,3.5864,3.5941,3.6066,3.5508,3.4787,3.4269,3.4287,3.3604,3.276,3.179,3.1694,3.169,3.1547,3.0309,2.9637,3.0148,2.9201,2.8141,2.7176,2.6075,2.571,2.6355,2.5772,2.5804,2.6681,2.6717,2.6823,2.706,2.706,2.706,2.706,2.6906,2.6924,2.706,2.6906,2.6759,2.4042,2.4493,2.5135,2.6528,2.6779,2.7725,0.0,3.219,3.221,3.3668,3.5191,3.5846,3.4651,3.6714,3.8437,3.7904,3.8411,3.8906,3.8891,3.833,3.795,3.8035,3.8064,3.8318,3.8978,3.9016,3.9016,3.9016,3.9705,4.0096,4.0096,3.9437,3.9342,4.007,3.9411,3.9368,4.0096,4.0096,4.0096,4.0096,4.0096,4.0096,4.0096,4.0096,4.0096,4.0096,4.0096,4.0096,4.0096,4.0096,4.0096,4.0096,4.0096,4.0196,4.0303,4.0303,3.9895,3.9292,3.9231,3.9501,3.9768,3.8959,3.9462,4.0226,3.9587,3.901,3.8573,3.866,3.8339,3.7942,3.7942,3.7942,3.7732,3.6938,3.682,3.6644,3.5791,3.5644,3.5486,3.4764,3.4537,3.427,3.3626,3.3431,3.3233,3.2863,3.3108,3.3104,3.2448,3.1582,3.0822,3.0269,2.9434,2.8333,2.6884,2.5976,2.5529,2.5617,2.5529,2.5979,2.7091,2.7121,2.7646,2.87,2.873,2.873,2.873,2.8007,2.8026,2.8712,2.8007,2.7273,2.4336,2.5493,2.6889,2.7981,2.9441,3.1207,3.3508,3.4134,3.4531,3.5568,3.6629,3.7193,3.6545,3.7443,3.8183,3.7853,3.8068,3.8104,3.7613,3.7306,3.6943,3.6564,3.6132,3.6512,3.8101,3.8246,3.8246,3.8246,3.8569,3.8778,3.8778,3.8458,3.843,3.875,3.843,3.843,3.8778,3.9183,3.9394,3.9411,3.9876,4.0096,4.0096,4.0096,4.0096,4.0096,4.0096,4.0096,4.0096,4.0096,4.0096,4.0096,4.0096,4.0096,4.0096,4.0096,3.991,3.9588,3.914,3.9166,3.9279,3.8931,3.8906,3.9129,3.9641,3.9358,3.8931,3.9358,3.9013,3.8531,3.8531,3.8531,3.8345,3.7618,3.777,3.7872,3.711,3.6935,3.6721,3.5977,3.5453,3.5047,3.4721,3.432,3.4016,3.3884,3.3284,3.2733,3.2422,3.1334,3.0231,2.9247,2.886,2.8323,2.7466,2.6657,2.6409,2.6879,2.6462,2.6632,2.7567,2.7603,2.783,2.8347,2.8365,2.8469,2.8658,2.8113,2.8126,2.8645,2.8113,2.7682,2.4491,2.6048,2.789,2.9018,3.1345,3.3627,3.4582,3.5364,3.6124,3.6862,3.7426,3.7665,3.7281,3.7358,3.746,3.7229,3.72,3.7042,3.6676,3.6276,3.583,3.5339,3.4651,3.485,3.6458,3.6972,3.7279,3.7469,3.7661,3.7793,3.7793,3.7602,3.7573,3.7777,3.7573,3.7573,3.7793,3.833,3.8608,3.8608,3.9183,3.9454,3.9454,3.9454,3.9601,3.9782,3.9782,3.9901,4.0096,4.0096,4.0096,4.0096,4.0096,4.0096,4.0096,4.0096,3.9977,3.9757,3.9436,3.9157,3.9022,3.9225,3.8937,3.87,3.9791,3.974,3.9394,3.996,3.9723,3.9292,3.9292,3.9292,3.9106,3.8379,3.8616,3.8802,3.8075,3.7905,3.7736,3.7195,3.6637,3.6225,3.6225,3.5791,3.5368,3.5148,3.4032,3.3004,3.2378,3.1004,2.978,2.8956,2.8475,2.8141,2.7882,2.7148,2.6938,2.7525,2.7023,2.7014,2.7704,2.7722,2.7797,2.7897,2.7897,2.802,2.8264,2.8024,2.802,2.8264,2.8006,2.7897,2.4469,2.5873,2.7684,2.9585,3.1704,3.3704,3.5229,3.613,3.689,3.7626,3.7787,3.7364,3.591,3.6295,3.6581,3.5786,3.5653,3.5886,3.6507,3.5413,3.4565,3.4535,3.3949,3.356,3.3606,3.488,3.5932,3.6584,3.7368,3.7793,3.7793,3.707,3.6994,3.7793,3.7024,3.6994,3.7777,3.7822,3.7835,3.7835,3.7863,3.7879,3.7879,3.7879,3.8246,3.8935,3.8935,3.9368,4.0096,4.0096,4.0096,4.0096,4.0096,4.0096,4.0096,4.0096,3.9656,3.9123,3.9842,3.9605,3.9106,3.9842,4.0045,4.0045,4.0096,4.0079,4.0079,4.0096,4.0079,4.0079,4.0079,4.0079,3.9893,3.914,3.8971,3.8802,3.8075,3.7905,3.7905,3.7872,3.7855,3.7838,3.7838,3.7821,3.755,3.6846,3.6028,3.4726,3.2581,3.1004,3.0091,3.004,2.8704,2.7807,2.7808,2.7131,2.6724,2.6741,2.6724,2.6889,2.7303,2.7334,2.75,2.7897,2.7897,2.7911,2.7926,2.7911,2.7911,2.7911,2.7911,2.7897,2.6375,2.8375,3.0362,3.2419,3.4261,3.5824,3.6837,3.7265,3.7218,3.6485,3.5658,3.4628,3.3146,3.2758,3.2813,3.3424,3.3925,3.4607,3.5711,3.5473,3.4831,3.3933,3.3634,3.3499,3.3499,3.4347,3.4955,3.5182,3.5873,3.6258,3.6258,3.6022,3.5975,3.6258,3.6022,3.6006,3.6258,3.6753,3.6994,3.6994,3.7544,3.7793,3.7793,3.7793,3.7921,3.8177,3.8177,3.8318,3.8569,3.8569,3.8569,3.8569,3.8569,3.8569,3.8569,3.8569,3.8722,3.9051,3.9817,3.9943,3.9774,4.0028,4.0096,4.0096,4.0096,4.0096,4.0096,4.0096,4.0096,4.0096,4.0096,4.0096,4.0045,3.9791,3.974,3.9673,3.9394,3.9343,3.9208,3.8717,3.8633,3.8464,3.799,3.7905,3.7652,3.6914,3.569,3.4252,3.2513,3.187,3.1007,2.9516,2.8925,2.8383,2.7858,2.757,2.7672,2.8197,2.8231,2.8302,2.8425,2.793,2.7707,2.7823,2.7357,2.7241,2.75,2.7224,2.7241,2.7502,2.7241,2.7099,2.8105,3.0042,3.1798,3.3889,3.5361,3.6404,3.6871,3.6778,3.6143,3.4478,3.3299,3.2041,3.0396,2.9564,2.9624,3.121,3.1824,3.2721,3.4532,3.4786,3.4547,3.3918,3.3649,3.3499,3.3499,3.4098,3.4608,3.4831,3.525,3.5504,3.5504,3.5504,3.5504,3.5504,3.5504,3.5504,3.5504,3.5975,3.6196,3.6228,3.6738,3.6981,3.6981,3.6981,3.7115,3.7368,3.7368,3.7544,3.7793,3.7793,3.7793,3.7793,3.7793,3.7793,3.7793,3.7793,3.8092,3.8608,3.9411,3.9876,4.0096,4.0096,4.0096,4.0096,4.0096,4.0096,4.0096,4.0096,4.0096,4.0096,4.0096,4.0096,4.0096,4.0096,4.0096,4.0096,4.0096,4.0096,3.996,3.9503,3.9402,3.9225,3.8768,3.8261,3.7736,3.7263,3.5876,3.4353,3.2865,3.2462,3.165,2.9974,2.9533,2.9178,2.8669,2.8365,2.845,2.8976,2.8993,2.8993,2.8993,2.823,2.7942,2.823,2.7486,2.7216,2.7479,2.7216,2.7096,2.7083,2.6808,2.6691,2.9628,3.0976,3.2108,3.4053,3.5026,3.5489,3.5415,3.4846,3.3769,3.1765,3.0733,2.9624,0.0,2.6886,2.7091,2.9092,2.9498,3.047,3.3048,3.3436,3.3675,3.4271,3.3794,3.3406,3.3406,3.3973,3.4629,3.5314,3.5424,3.5504,3.5504,3.5504,3.5504,3.5504,3.5504,3.5504,3.5504,3.5504,3.5504,3.5504,3.5504,3.5504,3.5504,3.5504,3.5894,3.6554,3.6554,3.698,3.7677,3.7677,3.7677,3.7677,3.7677,3.7677,3.7677,3.7677,3.7706,3.7835,3.8553,3.9315,3.9995,4.002,4.0045,4.0045,4.007,4.0096,4.0096,4.0096,4.0096,4.0096,4.0096,4.0096,4.0096,4.0096,4.0096,4.0096,4.0096,4.0096,4.0096,4.0096,4.0096,4.0096,4.0096,3.8903,3.7932,3.7858,3.6567,3.5087,3.3639,3.2797,3.2056,3.1275,3.0548,3.0108,3.0108,2.9448,2.9077,2.9111,2.9111,2.9111,2.9111,2.8349,2.828,2.9044,2.8281,2.7841,2.7807,2.7807,2.7418,2.6691,2.6691,2.6691,3.1336,3.2811,3.3963,3.4996,3.537,3.525,3.4233,3.311,3.169,2.9759,2.7594,2.5785,2.4792,2.4452,2.4926,2.684,2.8268,2.9868,3.1938,3.2583,3.2698,3.2388,0.0,3.2086,3.2086,3.2227,3.2613,3.3282,3.4673,3.5504,3.5504,3.5504,3.5504,3.5504,3.5504,3.5504,3.5504,3.5504,3.5504,3.5504,3.5504,3.5504,3.5504,3.5504,3.5619,3.5782,3.5782,3.591,3.6085,3.6085,3.6085,3.6085,3.6085,3.6085,3.6085,3.6085,3.6446,3.6934,3.7128,3.7716,3.8486,3.9032,3.9209,3.9315,3.9927,4.0096,4.0096,4.0096,4.0096,4.0096,4.0096,4.0096,4.0096,4.0096,4.0096,4.0096,4.0096,4.0096,4.0096,4.0096,4.0096,4.0096,4.0096,3.9326,3.8351,3.7245,3.6281,3.5311,3.4339,3.3575,3.2628,3.1326,3.0548,3.0108,3.0108,2.9939,3.0057,3.0598,3.0632,3.0632,3.0632,2.9922,2.9599,2.982,2.9076,2.8399,2.7807,2.7807,2.7418,2.6691,2.6691,2.6691,3.1751,3.2858,3.3762,3.4139,3.3887,3.3213,3.1936,3.0661,2.9039,2.6593,2.4863,2.341,2.2197,2.1917,2.2475,2.4402,2.5981,2.7828,3.0223,3.1301,3.1875,0.0,3.2026,0.0,3.2026,3.2026,3.2199,3.2579,3.3616,3.424,3.424,3.424,3.424,3.424,3.424,3.424,3.424,3.424,3.4442,3.4839,3.4839,3.5067,3.5504,3.5504,3.5504,3.5504,3.5504,3.5504,3.5504,3.5504,3.5504,3.5504,3.5504,3.5504,3.5504,3.5504,3.575,3.6117,3.6117,3.6415,3.6981,3.8048,3.8414,3.8553,3.9358,3.9358,3.9172,3.9463,3.9584,3.9584,3.9584,3.9833,4.0096,4.0096,4.0096,4.0096,4.0096,4.0096,3.9995,3.9636,3.9584,3.9463,3.9146,3.8481,3.7607,3.6486,3.5691,3.4954,3.4202,3.3466,3.2452,3.1,3.0713,3.0526,3.0212,3.0429,3.0768,3.1173,3.119,3.119,3.119,3.0497,3.026,3.0581,2.9854,2.9262,2.8804,2.8484,2.7943,2.7182,2.7182,2.7182,3.1619,3.2171,3.2593,3.2593,3.173,3.054,2.9341,2.7909,2.6052,2.3115,2.2292,2.16,1.9944,1.9638,2.0245,2.2214,2.3493,2.5295,2.8352,2.973,3.0876,3.2077,3.2213,3.2213,3.2213,3.2213,3.2213,3.2213,3.2213,3.2357,3.2593,3.2593,3.2593,3.2593,3.2593,3.2593,3.2593,3.2593,3.3031,3.3808,3.3808,3.4259,3.5115,3.5115,3.5115,3.5115,3.5115,3.518,3.5294,3.5294,3.5392,3.5504,3.5504,3.5504,3.5504,3.5504,3.5504,3.5504,3.5504,3.5504,3.5733,3.7175,3.7632,3.7777,3.8525,3.8318,3.7921,3.858,3.8745,3.8745,3.8745,3.9262,3.9782,3.9782,3.9782,3.9825,3.9927,3.9927,3.9731,3.9032,3.8827,3.8553,3.7892,3.7265,3.6598,3.5796,3.5068,3.434,3.3562,3.2902,3.202,3.0815,3.107,3.109,3.051,3.0838,3.113,3.1207,3.1142,3.1131,3.119,3.0581,3.0548,3.119,3.0581,3.0159,2.9956,2.9397,2.867,2.7807,2.7908,2.7959,3.2248,3.2524,3.2593,3.2593,3.1425,2.9803,2.8052,2.5603,0.0,0.0,1.9677,1.8801,1.8478,1.8806,1.9678,2.1439,2.2609,2.4343,2.7199,2.817,2.9001,0.0,3.0292,3.0292,3.0292,3.0292,3.0292,3.0292,3.0292,3.0959,3.2536,3.2593,3.2593,3.2593,3.2593,3.2593,3.2593,3.2593,3.2664,3.2855,3.2855,3.2925,3.3101,3.3101,3.3101,3.3101,3.3101,3.3533,3.4245,3.4245,3.4758,3.5504,3.5504,3.5504,3.5504,3.5504,3.5504,3.5504,3.5504,3.5504,3.5636,3.6508,3.6813,3.6964,3.7732,3.7892,3.7822,3.795,3.7978,3.7978,3.7978,3.8092,3.8206,3.8206,3.8206,3.8374,3.8978,3.9113,3.9086,3.8935,3.8414,3.795,3.7822,3.7681,3.716,3.581,3.5081,3.4198,3.2862,3.2591,3.2403,3.2148,3.1662,3.135,3.1221,3.0792,3.0748,3.1264,3.0766,3.0679,3.1171,3.1072,3.1072,3.119,3.1072,3.0395,2.9196,2.9668,2.9176,2.7824,2.8484,2.8807,3.1029,3.1132,3.1053,3.0737,2.9011,2.6882,2.5107,0.0,0.0,0.0,1.8344,1.8007,1.7747,1.8174,1.8947,2.0014,2.0851,2.2443,2.5561,2.6465,2.7431,2.9139,2.9616,2.9792,2.9792,2.9792,2.9792,2.9792,2.9792,3.0177,3.1095,3.1132,3.1132,3.1132,3.1132,3.1132,3.1132,3.1132,3.1378,3.1852,3.1852,3.2141,3.2593,3.2593,3.2593,3.2593,3.2593,3.2855,3.3276,3.3276,3.3567,3.4056,3.4509,3.4725,3.4758,3.5326,3.5504,3.5504,3.5504,3.5504,3.5554,3.5911,3.6023,3.618,3.695,3.6905,3.6677,3.707,3.7189,3.7189,3.7189,3.7485,3.7793,3.7793,3.7793,3.7892,3.8246,3.833,3.8218,3.7787,3.7424,3.704,3.6662,3.66,3.6245,3.5202,3.4485,3.3818,3.3126,3.2399,3.1844,3.15,3.1431,3.1265,3.0961,3.0601,3.0516,3.0814,3.0194,2.9957,3.0251,3.0251,3.0251,3.0251,3.0251,3.0067,2.9685,2.9652,2.942,2.9007,2.9085,2.9271,2.9365,2.9603,2.9654,2.9038,2.6731,2.4211,2.2673,2.0399,0.0,1.7348,1.7463,1.7626,1.7209,1.7517,1.8083,1.8868,1.9346,2.0815,2.4167,2.5096,2.6264,2.8449,2.9264,0.0,2.9779,2.9792,2.9792,2.9792,2.9792,2.9792,2.9792,2.9792,2.9792,2.9792,2.9792,2.9792,2.9792,2.9792,3.0177,3.0895,3.0895,3.1304,3.201,3.201,3.201,3.201,3.201,3.2105,3.2321,3.2321,3.2429,3.2664,3.3415,3.3705,3.3808,3.4591,3.4887,3.4887,3.4887,3.5001,3.518,3.518,3.5311,3.5619,3.6196,3.5943,3.5619,3.6196,3.6353,3.6353,3.6353,3.6844,3.7294,3.7294,3.7442,3.7544,3.7544,3.7544,3.7368,3.6722,3.6477,3.6165,3.5587,3.5504,3.5325,3.4771,3.4128,3.3709,3.3709,3.2677,3.166,3.1016,3.1235,3.1213,3.0749,3.0526,3.0425,3.0426,2.9799,2.9407,2.9406,2.9406,2.9406,2.9406,2.9406,2.9548,2.9856,2.9447,2.9411,2.9711,2.9391,2.9494,2.8133,2.9013,2.9654,2.9038,2.6477,2.3766,2.2585,0.0,1.7365,1.6712,1.6616,1.6637,1.6573,1.6624,1.7169,1.8744,1.9045,2.0236,2.3602,2.4544,2.5678,2.7921,0.0,0.0,2.9741,2.9792,2.9792,2.9792,2.9792,2.9792,2.9792,2.9792,2.9792,2.9792,2.9792,2.9792,2.9792,2.9792,2.9818,2.9934,2.9934,2.9972,3.0075,3.0075,3.0075,3.0075,3.0075,3.0533,3.1315,3.1315,3.1815,3.2593,3.2713,3.2749,3.2749,3.282,3.2855,3.2855,3.2855,3.3415,3.4129,3.4129,3.4758,3.5504,3.5587,3.5554,3.5504,3.5587,3.5619,3.5619,3.5619,3.5651,3.5716,3.5716,3.6228,3.6691,3.6691,3.6691,3.6691,3.66,3.6054,3.5587,3.5504,3.5504,3.5489,3.5429,3.4831,3.4414,3.4414,3.3769,3.3066,3.2407,3.1823,3.1462,3.1402,3.0842,3.0479,3.0494,2.9863,2.9445,2.94,2.9406,2.9406,2.9406,2.9406,2.9108,2.849,2.9089,2.9062,2.848,2.9095,2.9399,2.7193,2.8185,2.8649,2.8072,2.5435,2.2686,2.1609,0.0,1.6798,1.655,1.65,1.65,1.65,1.65,1.6939,1.8293,1.8254,1.9083,2.2058,2.2673,2.3879,2.6801,2.7607,2.8423,2.9679,2.9792,2.9792,2.9792,2.9792,2.9495,2.8806,2.9443,2.9792,2.9792,2.9792,2.9792,2.9792,2.9792,2.9792,2.9792,2.9792,2.9792,2.9792,2.9792,2.9792,2.9792,2.9792,2.9998,3.0343,3.0343,3.0558,3.0959,3.1536,3.1742,3.1815,3.2393,3.2593,3.2593,3.2593,3.2855,3.3171,3.3171,3.3822,3.4725,3.5326,3.5504,3.5504,3.5504,3.5504,3.5504,3.5504,3.5504,3.5504,3.5504,3.5718,3.5943,3.5943,3.5943,3.5943,3.5943,3.5701,3.5504,3.5504,3.5504,3.5504,3.5504,3.4921,3.4653,3.504,3.4158,3.3544,3.3679,3.2751,3.1929,3.154,3.0883,3.0498,3.05,2.9527,2.8941,2.8925,2.8535,2.8328,2.8328,2.8328,2.8356,2.8426,2.8708,2.8877,2.8968,2.8893,2.9042,2.5269,2.633,2.6777,2.5886,2.3668,2.1366,0.0,0.0,1.65,1.65,1.65,1.65,1.65,1.65,1.6864,1.8016,1.7877,1.8492,2.093,2.1531,2.2736,2.5443,0.0,2.7444,2.9126,2.9591,2.9663,2.9326,2.9287,2.8819,2.7683,2.841,2.8831,2.8831,2.8831,2.8831,2.8831,2.8831,2.8831,2.8831,2.8831,2.8831,2.8831,2.8831,2.8831,2.8831,2.8831,2.9,2.9287,2.9287,2.9495,2.9869,3.052,3.0796,3.0871,3.1549,3.1756,3.1756,3.1756,3.196,3.2177,3.2177,3.282,3.3705,3.4442,3.5034,3.5504,3.5504,3.5504,3.5504,3.5504,3.5504,3.5504,3.5504,3.5504,3.5504,3.5504,3.5504,3.5504,3.5504,3.5504,3.5504,3.5504,3.5504,3.5504,3.5504,3.51,3.4966,3.5444,3.4681,3.4188,3.4474,3.3649,3.2751,3.1869,3.1346,3.0926,3.0537,2.9654,2.8996,2.8622,2.8154,2.7809,2.76,2.76,2.781,2.8222,2.8222,2.8448,2.8857,2.8439,2.8463,2.1885,2.3129,2.3946,2.2255,2.1032,1.9852,0.0,1.7284,1.65,1.65,1.65,1.65,1.65,1.65,1.6864,1.8016,1.8204,1.8769,2.0465,2.1606,2.2736,0.0,2.4971,2.6276,2.7959,2.9139,2.9326,2.8215,2.8136,2.7643,2.6554,2.6524,2.6524,2.6524,2.6524,2.6524,2.6524,2.6524,2.6524,2.6524,2.6524,2.6524,2.6524,2.6524,2.6524,2.6524,2.6524,2.7128,2.8136,2.8136,2.8767,2.9792,2.9792,2.983,2.983,2.983,2.983,2.983,2.983,3.0457,3.1217,3.1217,3.1852,3.2629,3.2629,3.3973,3.5504,3.5504,3.5504,3.5504,3.5504,3.5504,3.5504,3.5504,3.5504,3.5504,3.5504,3.5504,3.5504,3.5504,3.5504,3.5504,3.5504,3.5504,3.5504,3.5504,3.5489,3.5489,3.5504,3.5489,3.5235,3.4578,3.4503,3.3918,3.2617,3.2467,3.1928,3.0582,3.0492,2.9924,2.8652,2.8592,2.8263,2.76,2.76,2.76,2.7625,2.7625,2.761,2.7625,2.761,2.761,1.9563,2.0449,2.102,2.0511,1.9247,1.7924,1.7116,1.6078,1.5265,1.5265,1.5599,1.5754,1.5354,1.5599,1.608,1.6723,1.7266,1.7982,1.9155,0.0,0.0,2.3216,2.506,2.6302,2.6508,2.7149,2.7383,2.7046,2.7005,2.6502,2.542,2.5336,2.5714,2.6483,2.6524,2.6524,2.6524,2.6524,2.6524,2.6524,2.6524,2.6524,2.6524,2.6524,2.6524,2.6524,2.6524,2.6678,2.7005,2.7005,2.7209,2.7637,2.8359,2.8636,2.8727,2.9495,2.9792,2.9792,2.9792,2.9998,3.0241,3.0241,3.0871,3.1646,3.1646,3.2536,3.3498,3.3498,3.4491,3.5359,3.4658,3.4986,3.5504,3.5504,3.5504,3.5504,3.5504,3.5504,3.5504,3.5504,3.5504,3.5504,3.5504,3.5504,3.5504,3.5504,3.5504,3.5504,3.5504,3.5504,3.5429,3.5205,3.5175,3.4637,3.3305,3.2766,3.2303,3.1898,3.1016,3.0328,2.9924,2.949,2.8978,2.8293,2.8278,2.8064,2.76,2.76,2.76,2.76,2.76,2.76,0.0,1.7818,1.8153,1.7709,1.6983,0.0,1.5562,1.5063,1.4698,1.4698,1.4994,1.5141,1.4766,1.5017,1.5476,1.6095,1.6589,1.72,1.8162,1.9495,2.0926,2.2463,2.4559,2.5681,2.5228,2.6008,2.6307,2.588,2.585,2.5303,2.4017,2.3922,2.4261,2.4975,2.5135,2.5231,2.5231,2.5231,2.5231,2.5231,2.5231,2.5231,2.5231,2.5231,2.5231,2.5231,2.5231,2.5473,0.0,2.585,2.6099,2.6565,2.725,2.7481,2.7574,2.8291,2.8791,2.9157,2.9157,2.9443,2.9792,2.9792,3.0216,3.0658,3.0658,3.1573,3.2593,3.2593,3.3463,3.4259,3.3636,3.4211,3.4953,3.4953,3.5213,3.5504,3.5504,3.5504,3.5504,3.5504,3.5504,3.5504,3.5504,3.5504,3.5504,3.5504,3.5504,3.5504,3.5504,3.5504,3.5504,3.5504,3.5504,3.516,3.4322,3.3634,3.3155,3.2901,3.1869,3.115,3.0883,3.0268,2.9624,2.8981,2.8966,2.8757,2.8349,2.8349,2.8349,2.8349,2.8349,2.8349,0.0,1.5284,1.5434,1.4291,0.0,0.0,1.393,1.4167,0.0,1.456,1.4617,1.4617,1.4605,1.4662,1.4985,1.595,1.6165,1.6536,1.7445,1.8885,2.0331,2.1651,2.3482,2.4487,2.4017,2.5336,2.5795,2.4703,2.4629,2.3987,2.2533,2.249,2.25,2.2471,2.2838,2.3062,2.3091,2.3091,2.3091,2.3091,2.3091,2.3091,2.3091,2.3091,2.3091,2.3091,2.3091,2.3714,2.467,2.467,2.5294,2.6276,2.6348,2.6389,2.6389,2.6483,2.7128,2.7976,2.7976,2.8727,2.9702,2.9753,2.9792,2.9792,2.9792,3.1057,3.25,3.2429,3.25,3.2558,3.2522,3.3206,3.391,3.391,3.461,3.5279,3.5279,3.5279,3.5279,3.5279,3.5279,3.5326,3.5392,3.5392,3.5439,3.5504,3.5504,3.5472,3.5392,3.5392,3.5359,3.5294,3.5279,3.5326,3.5392,3.4829,3.4249,3.3604,3.2901,3.2213,3.16,3.0941,3.0283,2.9696,2.9636,2.9606,2.9606,2.9606,2.9606,2.9606,2.9606,2.9606,1.2794,0.0,1.3541,1.3243,1.3298,1.3362,0.0,1.3224,1.331,1.331,1.3695,1.3955,1.3819,1.4156,1.4622,1.507,1.5856,1.6637,1.7222,1.8997,2.0434,2.0832,2.2169,2.2735,2.1989,2.2858,2.3317,2.3063,2.2765,2.2411,2.2083,2.2334,2.2363,2.2041,2.2441,2.2769,2.3091,2.3091,2.3091,2.3091,2.3091,2.3091,2.3091,2.3091,2.3091,2.3091,2.3091,2.3256,2.3507,2.3507,2.3637,2.3973,2.4882,2.521,2.5294,2.6182,2.6637,2.6883,2.6883,2.7574,2.8636,2.9534,2.9792,2.9792,2.9792,3.0595,3.1402,3.0671,3.1476,3.2429,3.1706,3.2249,3.2925,3.2925,3.3101,3.329,3.329,3.329,3.329,3.329,3.329,3.3498,3.4245,3.4361,3.461,3.5392,3.5504,3.5213,3.4461,3.4361,3.4075,3.3359,3.329,3.3567,3.4279,3.4431,3.4444,3.4279,3.3155,3.2437,3.2258,3.1615,3.0943,3.0298,2.9846,2.9606,2.9606,2.9606,2.9606,2.9606,2.9606,2.9606,1.1779,1.2373,1.2905,1.2905,1.2905,1.2905,1.2905,1.2905,1.2905,1.2905,1.3152,1.3357,1.3248,1.3501,1.3942,1.4692,1.5139,1.5774,1.682,1.8455,1.9667,1.9961,2.1115,2.1707,2.1239,2.1836,2.2227,2.2227,2.2012,2.1797,2.1592,2.1807,2.1785,2.1592,2.1807,2.2185,2.2799,2.2656,2.2711,2.3091,2.2896,2.2635,2.2306,2.2669,2.2635,2.2296,2.266,2.2916,2.3091,2.3091,2.3091,2.3178,2.38,2.4006,2.4082,2.4723,2.5263,2.5714,2.5714,2.6461,2.7493,2.8091,2.8303,2.8383,2.8858,2.9369,2.9769,2.9805,3.0533,3.1206,3.0696,3.1254,3.196,3.196,3.2285,3.2593,3.2593,3.2593,3.2593,3.2593,3.2593,3.2749,3.3276,3.3345,3.3533,3.409,3.4158,3.3973,3.3429,3.3345,3.3171,3.2629,3.2593,3.282,3.331,3.3527,3.379,3.4247,3.2908,3.1971,3.1714,3.1461,3.1028,3.0425,2.9682,2.9522,2.9925,2.9925,3.011,3.0477,3.0477,3.0477,1.1039,1.1812,1.2589,1.2837,1.2905,1.2905,1.2905,1.2905,1.2905,1.2905,0.0,1.2925,1.2993,1.3027,1.3467,1.4687,1.4795,1.5284,1.695,1.811,1.8939,1.9336,2.0478,2.1171,2.1103,2.1523,2.1787,2.1787,2.1728,2.1523,2.1112,2.1161,2.1161,2.1093,2.1161,2.1541,2.2305,2.2031,2.2152,2.266,2.2312,2.1701,2.0926,2.1586,2.1528,2.0917,2.163,0.0,2.2494,2.2427,2.2475,2.2545,2.2522,2.2629,2.2818,2.2818,2.3531,2.4585,2.4745,2.542,2.6265,2.6431,2.6524,2.6678,2.7562,2.7844,2.8056,2.904,2.9546,2.9792,2.9792,3.0381,3.097,3.097,3.1573,3.2177,3.2177,3.2177,3.2177,3.2177,3.2177,3.2213,3.2357,3.2393,3.2429,3.2558,3.2593,3.2558,3.2393,3.2393,3.2321,3.2177,3.2177,3.2213,3.2393,3.2249,3.2571,3.3518,3.2319,3.1323,3.0654,3.0743,3.0554,3.0117,2.938,2.9348,3.0103,3.0103,3.045,3.1117,3.1248,3.1248,0.9882,1.0346,1.1129,1.2556,1.2905,1.2905,1.2905,1.2905,1.2905,0.0,0.0,1.2988,1.335,1.3701,1.4211,1.5166,1.6494,1.7891,1.9238,1.96,1.9746,1.9814,2.0615,2.1084,2.0742,2.1074,2.1298,2.1298,2.0986,2.0781,2.0713,2.1025,2.1025,2.0684,2.1035,2.1259,2.1395,2.1728,2.1457,2.0649,2.0585,2.0025,1.9005,1.9127,1.9135,1.9005,0.0,1.9401,1.9683,1.941,1.9606,2.0008,1.9783,2.0483,2.1569,2.1569,2.234,2.3507,2.4457,2.4914,2.521,2.6182,2.6524,2.6524,2.6678,2.676,2.676,2.6976,2.8343,2.9792,2.9792,2.9895,2.9998,2.9998,3.0101,3.0216,3.0216,3.0216,3.0216,3.0216,3.0216,3.0495,3.1291,3.1426,3.1669,3.25,3.2593,3.2321,3.1536,3.1426,3.1119,3.0317,3.0216,3.0558,3.1365,3.0709,3.0633,3.1573,3.1619,3.1096,2.9981,2.9554,2.9289,2.9192,2.9066,2.9066,2.9192,2.9192,2.9254,2.9411,3.0133,3.0072,0.8964,0.9312,0.9913,1.1234,1.1663,1.1767,1.1767,1.1767,1.1929,1.2553,1.2676,1.2732,1.292,1.3576,1.4465,1.5586,1.7217,1.8442,1.8838,1.9287,1.958,1.958,2.0137,2.0537,2.0605,2.0752,2.0869,2.0869,2.0684,2.0605,2.0605,2.024,1.982,1.9475,1.9228,1.8999,1.8863,1.9219,1.9673,2.0196,1.9402,1.8515,1.762,1.8089,1.8055,1.7664,0.0,1.8578,1.9085,1.891,1.9107,1.948,1.936,1.9746,2.0395,2.1069,2.1658,2.2296,2.3487,2.3877,2.3963,2.4467,2.4638,2.4766,2.5389,2.5588,2.5714,2.6348,2.7666,2.8897,2.8897,2.9326,2.9792,2.9792,2.9792,2.9792,2.9792,2.9792,2.9792,2.9792,2.9792,2.9934,3.0381,3.0457,3.0595,3.102,3.1095,3.0908,3.0495,3.0457,3.0279,2.9869,2.9792,2.996,3.0419,3.0037,2.996,3.0419,3.0262,2.9975,2.9597,2.8603,2.8153,2.8279,2.7855,2.7855,2.8298,2.8298,2.8524,2.9002,2.9411,2.938,0.815,0.8452,0.887,0.9723,1.0384,1.0812,1.0903,1.092,1.1182,1.2123,1.2316,1.2316,1.2316,1.3303,1.4477,1.551,1.7073,1.8113,1.8008,1.8545,1.9058,1.9287,1.957,1.9941,2.041,2.0168,2.0024,2.0082,1.9792,1.962,1.962,1.8916,1.835,1.8035,1.7488,1.706,1.6804,1.6739,1.7514,1.9113,1.8004,1.7011,1.6191,1.6792,1.673,1.6183,1.6827,1.7437,1.8001,1.7966,1.8136,1.8435,1.8435,1.8712,1.9222,2.044,2.089,2.1069,2.2262,2.2677,2.2731,2.3003,2.3091,2.3266,2.4125,2.4414,2.4585,2.5473,2.6502,2.7389,2.7643,2.8569,2.9404,2.9404,2.9624,2.9792,2.9792,2.9792,2.9792,2.9792,2.9792,2.9792,2.9792,2.9792,2.9792,2.9792,2.9792,2.9792,2.9792,2.9792,2.9792,2.9792,2.9792,2.9792,2.9792,2.9792,2.9792,2.9792,2.9252,2.9022,2.9262,2.814,2.751,2.7592,2.7007,2.6943,2.7417,2.7548,2.7901,2.8427,2.8724,2.8711,0.747,0.7758,0.8068,0.8446,0.9675,1.0878,1.119,1.1272,1.1352,1.1704,1.175,1.175,1.175,1.3076,1.4243,1.4412,1.5716,1.7006,1.7779,1.7971,1.8304,1.9214,1.9316,1.9502,1.9922,1.8798,1.8245,1.861,1.7421,1.6712,1.6712,1.6935,1.6913,1.6573,1.681,1.6788,1.6451,1.5459,1.5319,1.6012,1.5914,1.5305,1.4311,1.4333,1.4333,1.4311,1.4375,1.4545,1.4817,1.4538,1.4813,1.5331,1.5331,1.6344,1.7963,1.9177,1.9633,1.9807,2.1025,2.1426,2.1614,2.2721,2.3091,2.3135,2.3222,2.3222,2.3266,2.3299,2.4178,2.5294,2.6348,2.7412,2.8215,2.8215,2.9028,2.9792,2.9792,2.9792,2.9792,2.9792,2.9792,2.9792,2.9792,2.9792,2.9792,2.9792,2.9792,2.9792,2.9792,2.9792,2.9792,2.9792,2.9792,2.9792,2.9792,2.9792,2.9792,2.9792,2.9252,2.8913,2.8938,2.8372,2.7819,2.7337,2.7253,2.7037,2.6589,2.7072,2.7094,2.6705,2.796,2.7866,0.7161,0.7533,0.7932,0.8045,0.8815,0.9591,0.9722,1.0029,1.0482,1.1074,1.1619,1.2118,1.2451,1.2691,1.3161,1.4129,1.5163,1.6128,1.6851,1.6954,1.7104,1.7441,1.7479,1.7578,1.7721,1.7447,1.7235,1.7216,1.6902,1.6613,1.6426,1.5899,1.5474,1.5174,1.4778,1.4443,1.4144,1.3906,1.3936,1.4167,1.4315,1.431,1.4088,1.4088,1.4088,1.4088,1.4088,1.4255,1.4466,1.4402,1.4596,1.5008,1.5008,1.5522,1.6405,1.7439,1.7934,1.8218,1.9247,1.9763,2.0138,2.1344,2.1826,2.2129,2.2862,2.3091,2.3091,2.3091,2.343,2.4006,2.5136,2.6254,2.7128,2.7128,2.7947,2.8727,2.8727,2.9314,2.9792,2.9792,2.9792,2.9792,2.9792,2.9792,2.9792,2.9792,2.9792,2.9792,2.9792,2.9792,2.9792,2.9792,2.9792,2.9792,2.9792,2.9792,2.9792,2.9792,2.9591,2.9302,2.8913,2.87,2.836,2.7808,2.7795,2.7695,2.7482,2.7695,2.7682,2.7517,2.8028,2.7789,0.7,0.7446,0.7905,0.7905,0.8345,0.8831,0.8898,0.9325,0.9908,1.066,1.1276,1.1819,1.2158,1.1997,1.2104,1.3112,1.3988,1.4757,1.534,1.5421,1.5532,1.5826,1.5863,1.5946,1.618,1.6027,1.5869,1.577,1.5578,1.5356,1.5113,1.45,1.4037,1.3762,1.3324,1.2913,1.2643,1.2819,1.2973,1.3066,1.3267,1.3567,1.3948,1.3948,1.4001,1.4088,1.4088,1.4202,1.4382,1.4382,1.4556,1.4823,1.4823,1.5057,1.5449,1.6024,1.6401,1.6762,1.7711,1.818,1.8583,1.9887,2.0457,2.0873,2.2136,2.245,2.2461,2.2965,2.3003,2.3132,2.4008,2.5094,2.5975,2.5975,2.6789,2.7602,2.7602,2.8199,2.887,2.9197,2.9275,2.9365,2.9753,2.9792,2.9792,2.9792,2.9792,2.9792,2.9792,2.9792,2.9792,2.9792,2.9792,2.9792,2.9792,2.9792,2.9792,2.9792,2.9792,2.9616,2.9214,2.9164,2.8938,2.8373,2.836,2.8285,2.8109,2.8285,2.8285,2.8109,2.8285,2.8072,0.6979,0.7424,0.7882,0.7882,0.8345,0.8884,0.9144,0.9472,0.9883,1.0479,1.06,1.06,1.06,1.0977,1.123,1.1026,1.194,1.2825,1.3215,1.3294,1.3627,1.4542,1.4678,1.496,1.5682,1.4501,1.388,1.4358,1.3091,1.2305,1.2305,1.2616,1.2643,1.2305,1.2616,1.263,1.2291,1.2291,1.2445,1.2777,1.2777,1.3099,1.36,1.36,1.3801,1.4082,1.4082,1.4082,1.4082,1.4088,1.4255,1.4516,1.4516,1.4877,1.5351,1.5109,1.5137,1.5521,1.6433,1.6799,1.7028,1.8571,1.9093,1.9329,2.0811,2.1013,2.1014,2.2596,2.2789,2.2565,2.2984,2.392,2.4787,2.4787,2.563,2.6472,2.6472,2.6472,2.6801,2.7896,2.8084,2.8426,2.9573,2.9792,2.9792,2.9792,2.9792,2.9792,2.9792,2.9792,2.9792,2.9792,2.9792,2.9792,2.9792,2.9792,2.9792,2.9792,2.9792,2.9792,2.9792,2.9792,2.9528,2.8913,2.89,2.8662,2.8122,2.8637,2.8624,2.8134,2.865,2.8599,0.5932,0.6549,0.7338,0.7338,0.8087,0.8884,0.9144,0.9472,0.9967,1.0962,1.1169,1.1169,1.1169,1.1118,1.1134,1.127,1.1397,1.1701,1.2248,1.2096,1.2067,1.2362,1.2396,1.2554,1.3006,1.2838,1.2774,1.2901,1.2764,1.2563,1.2311,1.2228,1.2127,1.2033,1.1884,1.1777,1.1683,1.1891,1.208,1.2167,1.2375,1.2752,1.33,1.33,1.3387,1.348,1.3687,1.3733,1.3753,1.4001,1.4135,1.4215,1.4215,1.4442,1.4743,1.4456,1.4529,1.478,1.4861,1.5024,1.5421,1.6984,1.7479,1.7762,1.9312,1.952,1.9333,1.9791,2.0641,2.141,2.1531,2.2568,2.3584,2.3584,2.4457,2.5294,2.5294,2.5933,2.6595,2.6924,2.6953,2.7087,2.7424,2.8119,2.8597,2.8597,2.9275,2.9792,2.9792,2.9792,2.9792,2.9792,2.9792,2.9792,2.9792,2.9792,2.9792,2.9792,2.9792,2.9792,2.9792,2.9792,2.9716,2.9541,2.9528,2.9453,2.9302,2.9465,2.9453,2.9302,2.9465,2.9227,0.5809,0.6509,0.7416,0.7416,0.7904,0.8444,0.8724,0.9443,1.0291,1.1089,1.1162,1.1116,1.1229,1.0915,1.0775,1.1189,1.1109,1.1116,1.1504,1.1369,1.1249,1.1249,1.1249,1.1369,1.1663,1.185,1.1957,1.1957,1.2124,1.2144,1.1964,1.179,1.169,1.169,1.1516,1.1389,1.1389,1.1724,1.1906,1.1906,1.2164,1.2492,1.2852,1.2973,1.3093,1.3227,1.3473,1.36,1.3626,1.3968,1.4088,1.4088,1.4088,1.4262,1.4482,1.4195,1.4269,1.4476,1.4188,1.4202,1.4525,1.5531,1.5886,1.6162,1.771,1.7917,1.7755,1.8417,1.9153,1.9806,2.0114,2.0852,2.1801,2.2867,2.3637,2.4125,2.4125,2.4681,2.5263,2.5724,2.5797,2.5964,2.6431,2.7046,2.7441,2.7441,2.8039,2.8621,2.9067,2.9106,2.9106,2.9106,2.9534,2.9792,2.9792,2.9792,2.9792,2.9792,2.9792,2.9792,2.9792,2.9792,2.9792,2.9792,2.9792,2.9792,2.9792,2.9792,2.9792,2.9792,2.9792,2.9603,0.6114,0.6787,0.7637,0.7637,0.7645,0.7736,0.803,0.9309,1.0536,1.0889,1.0821,1.0754,1.0982,1.0575,1.0381,1.0942,1.0989,1.0955,1.0955,1.0929,1.0902,1.0875,1.0875,1.0989,1.1242,1.1295,1.1322,1.1349,1.1375,1.1389,1.1389,1.1369,1.1349,1.1349,1.1329,1.1349,1.1349,1.1643,1.1839,1.1866,1.2124,1.2278,1.2311,1.2623,1.2911,1.318,1.3407,1.3553,1.3626,1.3935,1.4019,1.3955,1.3955,1.4028,1.4132,1.4005,1.4078,1.4262,1.4133,1.4088,1.4135,1.4429,1.4502,1.4747,1.6155,1.6276,1.6247,1.7747,1.8025,1.7993,1.8688,1.8955,1.9708,2.2174,2.2833,2.296,2.3091,2.3091,2.343,2.4457,2.467,2.4957,2.6016,2.6265,2.6389,2.6472,2.6524,2.6842,2.7844,2.7964,2.7964,2.7964,2.8858,2.9507,2.9507,2.9507,2.9507,2.9507,2.9585,2.9663,2.9663,2.9753,2.9792,2.9792,2.9792,2.9792,2.9792,2.9792,2.9792,2.9792,2.9792,2.9792,0.4316,0.4926,0.5702,0.5702,0.6466,0.7253,0.7334,0.8218,0.9338,1.0446,1.0969,1.1263,1.1289,1.1042,1.0922,1.1276,1.0949,1.0687,1.0687,1.0448,1.0221,0.9993,0.9997,1.008,1.0336,1.0608,1.0874,1.1069,1.1296,1.1389,1.1389,1.1209,1.1089,1.1089,1.0868,1.078,1.078,1.1035,1.1296,1.1523,1.1817,1.2084,1.2305,1.2365,1.2596,1.2891,1.2951,1.3206,1.3606,1.3673,1.3307,1.2674,1.2674,1.2198,1.1543,1.2394,1.2711,1.2887,1.3799,1.4088,1.4135,1.4429,1.4362,1.4271,1.482,1.4783,1.4606,1.4958,1.5843,1.668,1.6869,1.8001,1.9251,1.9814,2.0855,2.1943,2.2906,2.3091,2.3178,2.343,2.3464,2.3551,2.381,2.4585,2.5462,2.6359,2.6524,2.6595,2.6801,2.6842,2.6842,2.6842,2.7058,2.7221,2.7221,2.7221,2.7221,2.7221,2.7988,2.8466,2.8466,2.9326,2.9792,2.9792,2.9792,2.9792,2.9792,2.9792,2.9792,2.9792,2.9792,2.9792,0.4136,0.4737,0.548,0.534,0.6199,0.7004,0.6653,0.7341,0.8266,0.8961,0.99,1.0675,1.0962,1.0768,1.0668,1.0962,1.0635,1.0347,1.0347,1.0094,0.9853,0.9729,0.9715,0.974,0.9893,1.0174,1.0408,1.0561,1.0848,1.1009,1.1009,1.0868,1.0821,1.0821,1.0673,1.0593,1.0593,1.0881,1.1069,1.1223,1.1516,1.1737,1.1891,1.2171,1.2118,1.1841,1.1986,1.1934,1.1766,1.1891,1.1688,1.1311,1.138,1.1038,1.0587,1.1252,1.1509,1.1601,1.2211,1.2778,1.327,1.3415,1.372,1.4115,1.4269,1.4208,1.4088,1.4088,1.4641,1.529,1.5397,1.6154,1.7102,1.7822,1.9234,2.0621,2.1221,2.181,2.2262,2.2262,2.2677,2.3091,2.3091,2.3594,2.4382,2.5504,2.5221,2.5052,2.5641,2.5683,2.5683,2.5683,2.6182,2.6524,2.6524,2.6524,2.6524,2.6524,2.7005,2.7319,2.7319,2.8398,2.9236,2.9792,2.9792,2.9792,2.9792,2.9792,2.9792,2.9792,2.9792,2.9792,0.4391,0.4941,0.56,0.5331,0.5972,0.6492,0.5888,0.6471,0.7164,0.7234,0.834,0.9466,0.9967,0.9833,0.9749,1.0018,0.9826,0.9622,0.9577,0.9401,0.9234,0.9189,0.9176,0.9176,0.9176,0.9528,0.9781,0.9781,1.0179,1.0466,1.0512,1.034,1.036,1.0586,1.0413,1.0387,1.0512,1.0807,1.0915,1.0922,1.1094,1.1183,1.1203,1.1524,1.1353,1.073,1.0808,1.0412,0.9718,0.9987,1.0044,0.9892,1.0066,0.9979,0.9835,1.0142,1.0278,1.0346,1.0522,1.1219,1.2017,1.1972,1.2644,1.3512,1.372,1.3782,1.3822,1.4039,1.4088,1.4142,1.4382,1.4482,1.4831,1.6104,1.7586,1.887,1.9344,2.0262,2.098,2.098,2.1943,2.2775,2.2775,2.296,2.342,2.4372,2.3714,2.343,2.4372,2.45,2.45,2.45,2.5347,2.5891,2.5891,2.5891,2.5891,2.5891,2.6099,2.6224,2.6224,2.7238,2.8279,2.9209,2.9624,2.9792,2.9792,2.9792,2.9792,2.9792,2.9792,2.9792,0.3733,0.3979,0.4282,0.0,0.4599,0.4823,0.0,0.0,0.5855,0.0,0.7041,0.783,0.789,0.7874,0.7868,0.7895,0.7874,0.7752,0.7524,0.7465,0.7341,0.7055,0.7002,0.7002,0.7002,0.7891,0.8444,0.8444,0.9308,0.9907,1.016,0.9353,0.9417,1.0573,0.9706,0.9518,1.0174,1.0499,1.0646,1.0653,1.0383,1.028,1.0245,0.9565,0.9704,1.0418,0.9694,0.9492,0.9708,0.9739,0.9338,0.8664,0.8866,0.8272,0.7478,0.8551,0.9047,0.9252,1.0134,1.0614,1.079,1.0673,1.0831,1.1225,1.2081,1.2457,1.2766,1.3822,1.4088,1.4095,1.4135,1.4335,1.4529,1.4781,1.5222,1.6244,1.8657,1.9454,1.9716,1.9716,2.0711,2.1525,2.1525,2.2403,2.3135,2.3299,2.3222,2.3135,2.3299,2.3343,2.3343,2.3343,2.3474,2.3551,2.3551,2.3551,2.3551,2.3551,2.4467,2.5041,2.5041,2.6088,2.6801,2.6935,2.8831,2.9792,2.9792,2.9792,2.9792,2.9792,2.9792,2.9792,0.3699,0.3856,0.4031,0.0,0.4355,0.4491,0.4491,0.4732,0.4971,0.5126,0.551,0.6176,0.7284,0.7379,0.7338,0.7462,0.7374,0.7231,0.7105,0.6949,0.6754,0.6625,0.6588,0.6588,0.6588,0.7206,0.757,0.757,0.8143,0.851,0.8651,0.822,0.8265,0.8852,0.8414,0.8321,0.8627,0.8799,0.8858,0.8864,0.8783,0.875,0.8723,0.7951,0.8019,0.8653,0.8265,0.7928,0.763,0.763,0.7467,0.7251,0.7419,0.7159,0.6764,0.7344,0.7632,0.7727,0.8188,0.8789,0.9345,0.9294,0.9783,1.0455,1.0981,1.1611,1.2326,1.2899,1.3561,1.4048,1.3881,1.4055,1.4235,1.4026,1.4382,1.5052,1.6257,1.7421,1.8472,1.9319,1.9943,2.0305,2.0305,2.0719,2.1311,2.1987,2.2076,2.235,2.3003,2.3091,2.3091,2.3091,2.3091,2.3091,2.3091,2.3091,2.3091,2.3091,2.3551,2.3844,2.3844,2.4925,2.5546,2.5546,2.7735,2.8858,2.8858,2.9495,2.9792,2.9792,2.9792,2.9792,0.373,0.0,0.3974,0.4126,0.43,0.4447,0.0,0.0,0.4491,0.4491,0.4491,0.4947,0.6466,0.6573,0.6516,0.6702,0.6563,0.6435,0.6435,0.622,0.6073,0.6073,0.6073,0.6073,0.6073,0.6457,0.6689,0.6689,0.7042,0.7304,0.739,0.7134,0.7154,0.7478,0.7244,0.7214,0.7395,0.7395,0.7426,0.7512,0.737,0.7347,0.7343,0.6615,0.6497,0.6833,0.6846,0.6529,0.5993,0.5993,0.6122,0.6313,0.6457,0.6511,0.6525,0.66,0.6668,0.6695,0.6658,0.7233,0.7947,0.7943,0.853,0.9368,0.9751,1.0481,1.1311,1.1679,1.2662,1.3581,1.3296,1.3653,1.4035,1.3808,1.4088,1.4449,1.4603,1.5709,1.6981,1.8129,1.8656,1.8902,1.8902,1.9248,1.9807,2.0711,2.1114,2.1623,2.2536,2.2819,2.2974,2.3081,2.3003,2.2984,2.3081,2.3091,2.3091,2.3091,2.3091,2.3091,2.3091,2.392,2.4372,2.4372,2.6273,2.7389,2.7683,2.8819,2.9365,2.9365,2.9663,2.9792,0.361,0.3716,0.0,0.3967,0.4122,0.4267,0.0,0.0,0.4491,0.4491,0.4491,0.4522,0.4646,0.4643,0.4639,0.465,0.4643,0.4639,0.4639,0.4632,0.4598,0.4598,0.4598,0.4598,0.4598,0.5199,0.5582,0.5582,0.6255,0.6796,0.7095,0.617,0.6183,0.7467,0.6567,0.6411,0.7105,0.7133,0.7242,0.7478,0.6683,0.6332,0.6446,0.5579,0.5294,0.5493,0.5638,0.5798,0.5993,0.5993,0.6122,0.6313,0.6457,0.6511,0.6515,0.6521,0.6576,0.6678,0.6573,0.662,0.6757,0.665,0.6742,0.7042,0.8013,0.8574,0.9074,1.0049,1.133,1.2354,1.2236,1.314,1.4082,1.4068,1.4088,1.4262,1.4867,1.5053,1.5125,1.5221,1.6368,1.7319,1.7319,1.8533,1.9542,1.9579,2.0576,2.1337,2.1382,2.2063,2.2705,2.3052,2.2783,2.2705,2.3062,2.3091,2.3091,2.3091,2.3091,2.3091,2.3091,2.3178,2.3178,2.3178,2.4372,2.5504,2.6607,2.7643,2.8176,2.8215,2.9287,2.9792,0.0,0.0,0.0,0.3957,0.4109,0.426,0.4457,0.4491,0.4491,0.4491,0.4491,0.4491,0.4491,0.4491,0.4491,0.4491,0.4491,0.4491,0.4491,0.4491,0.4491,0.4491,0.4491,0.4491,0.4491,0.4704,0.4866,0.4866,0.5117,0.5309,0.5429,0.5065,0.5088,0.5547,0.5237,0.515,0.5429,0.5429,0.549,0.5583,0.544,0.5396,0.5428,0.535,0.5341,0.5399,0.5453,0.5559,0.5755,0.5844,0.5973,0.6129,0.6317,0.6375,0.6375,0.6375,0.6412,0.645,0.6395,0.6412,0.645,0.6392,0.6412,0.6543,0.6976,0.7709,0.8489,0.9077,1.0146,1.1047,1.093,1.1339,1.204,1.2772,1.3555,1.4148,1.4398,1.474,1.5008,1.5008,1.5442,1.5829,1.6025,1.6511,1.7126,1.7924,1.8414,1.8909,1.9477,2.0,2.0549,2.1172,2.1308,2.1612,2.2259,2.2334,2.2451,2.2715,2.2691,2.2818,2.3081,2.3091,2.3091,2.3091,2.3507,2.4253,2.542,2.6543,2.7441,2.8096,2.7827,2.8422,0.3604,0.0,0.0,0.0,0.4035,0.4132,0.4433,0.4453,0.4429,0.4481,0.4491,0.4491,0.4491,0.4491,0.4491,0.4491,0.4491,0.4491,0.4491,0.4491,0.4491,0.4491,0.4491,0.4491,0.4491,0.4491,0.4491,0.4491,0.4491,0.4491,0.4491,0.4491,0.4491,0.4491,0.4491,0.4491,0.4491,0.4491,0.4491,0.4491,0.4667,0.4819,0.4894,0.5121,0.53,0.5395,0.5395,0.5481,0.5596,0.5691,0.5847,0.6003,0.6142,0.6252,0.63,0.63,0.63,0.63,0.63,0.63,0.63,0.63,0.63,0.6317,0.6412,0.6987,0.7657,0.7833,0.8785,0.969,0.9545,1.0031,1.0692,1.1422,1.2554,1.3487,1.3439,1.4101,1.4713,1.4713,1.4794,1.4877,1.507,1.5264,1.5626,1.6359,1.6868,1.7438,1.8053,1.8466,1.9038,1.9895,1.9947,2.0397,2.1589,2.1684,2.192,2.2467,2.2646,2.274,2.2877,2.3023,2.3091,2.3091,2.3091,2.3464,2.4211,2.5378,2.6295,2.6971,2.6637,2.7464,0.0,0.0,0.0,0.0,0.0,0.0,0.4382,0.0,0.4257,0.446,0.4487,0.4484,0.4491,0.4491,0.4491,0.4491,0.4491,0.4491,0.4491,0.4491,0.4491,0.4491,0.4491,0.4491,0.4491,0.4491,0.4491,0.4491,0.4491,0.4491,0.4491,0.4491,0.4491,0.4491,0.4491,0.4491,0.4491,0.4491,0.4491,0.4491,0.4494,0.4651,0.4881,0.4891,0.5081,0.5388,0.5392,0.5481,0.5583,0.5589,0.5759,0.5979,0.5983,0.6118,0.6293,0.6293,0.6296,0.63,0.63,0.63,0.63,0.63,0.63,0.63,0.63,0.6399,0.6477,0.6344,0.7295,0.8314,0.8188,0.9258,1.0294,1.0172,1.1205,1.2209,1.2094,1.3104,1.4046,1.4088,1.4315,1.4509,1.4522,1.4997,1.5291,1.5055,1.6218,1.7153,1.7146,1.7593,1.83,1.9303,1.8792,1.9132,2.106,2.1203,2.1544,2.2382,2.2785,2.2877,2.2529,2.2877,2.3091,2.3081,2.3091,2.3091,2.3081,2.42,2.4787,2.483,2.5964,2.7046,0.3604,0.0,0.0,0.0,0.0,0.0,0.0,0.0,0.4129,0.4436,0.4379,0.4338,0.447,0.4491,0.4491,0.4491,0.4491,0.4491,0.4491,0.4491,0.4491,0.4491,0.4491,0.4491,0.4491,0.4491,0.4491,0.0,0.4491,0.4491,0.4491,0.4491,0.4491,0.4491,0.4491,0.4491,0.4491,0.4491,0.4491,0.4491,0.4604,0.467,0.4762,0.4945,0.5086,0.5199,0.5347,0.5419,0.5467,0.5545,0.5637,0.5722,0.5823,0.5959,0.6095,0.6095,0.6166,0.63,0.63,0.63,0.63,0.63,0.63,0.63,0.63,0.6327,0.6371,0.6436,0.6708,0.7027,0.7104,0.8041,0.8955,0.8901,0.9954,1.0936,1.0877,1.1893,1.3069,1.3913,1.4155,1.4275,1.4482,1.483,1.5102,1.5022,1.5516,1.5846,1.5632,1.5718,1.6235,1.7278,1.7221,1.762,1.8958,1.8861,1.9332,2.0622,2.0869,2.1452,2.2457,2.2877,2.2955,2.2685,2.2945,2.2945,2.2685,2.3282,2.4006,2.483,2.5964,2.6224,0.0,0.0,0.0,0.0,0.0,0.0,0.4134,0.4063,0.3978,0.0,0.4185,0.4153,0.4263,0.4328,0.4372,0.4372,0.445,0.4491,0.4491,0.4491,0.4491,0.4491,0.4491,0.4491,0.4491,0.4491,0.4491,0.4491,0.4491,0.4491,0.4491,0.4491,0.4491,0.4491,0.4491,0.4491,0.4491,0.4491,0.4491,0.4491,0.458,0.4658,0.4701,0.4935,0.5042,0.5106,0.5327,0.5395,0.5402,0.5491,0.5566,0.5599,0.5681,0.5803,0.5905,0.5969,0.6088,0.6173,0.6276,0.63,0.63,0.63,0.63,0.63,0.63,0.63,0.6317,0.6402,0.6422,0.6446,0.6495,0.7079,0.7587,0.752,0.8575,0.9533,0.9493,1.0538,1.186,1.3093,1.3779,1.4142,1.4309,1.4583,1.4736,1.466,1.4843,1.497,1.4803,1.4676,1.4946,1.5837,1.5789,1.6287,1.765,1.7624,1.804,1.9264,1.9591,2.0272,2.148,2.1964,2.2337,2.273,2.2799,2.2711,2.251,2.2886,2.343,2.4135,2.4766,2.4967,0.0,0.0,0.0,0.0,0.0,0.0,0.4116,0.3999,0.3816,0.0,0.3961,0.3974,0.3991,0.4119,0.4197,0.4197,0.4368,0.4491,0.4491,0.4491,0.4491,0.4491,0.4491,0.4491,0.4491,0.4491,0.4491,0.4491,0.4491,0.4491,0.4491,0.4491,0.4491,0.4491,0.4491,0.4491,0.4491,0.4491,0.4491,0.4491,0.4491,0.4563,0.467,0.4823,0.4941,0.5083,0.527,0.5378,0.5395,0.5395,0.5477,0.5566,0.5566,0.565,0.5793,0.5895,0.5963,0.601,0.6207,0.6259,0.6276,0.6276,0.6276,0.6276,0.6293,0.63,0.63,0.63,0.63,0.63,0.63,0.6395,0.6457,0.633,0.7255,0.8166,0.8051,0.9155,1.0543,1.1682,1.2966,1.3955,1.4088,1.4329,1.4436,1.4175,1.4382,1.4569,1.4569,1.4315,1.4349,1.4948,1.4696,1.5177,1.6838,1.695,1.7294,1.8129,1.8589,1.9166,1.994,2.0393,2.1302,2.2761,2.259,2.2539,2.2578,2.2916,2.3091,2.3091,2.3091,2.3637,0.0,0.0,0.0,0.0,0.0,0.0,0.4159,0.4002,0.3866,0.0,0.3971,0.3873,0.3971,0.4119,0.4197,0.4197,0.4368,0.4491,0.4491,0.4491,0.4491,0.4491,0.4491,0.4491,0.4491,0.4491,0.4491,0.4491,0.4491,0.4491,0.4491,0.4491,0.4491,0.4491,0.4491,0.4491,0.4491,0.4491,0.4491,0.4491,0.4491,0.4505,0.4539,0.4667,0.4816,0.4938,0.5083,0.5247,0.5395,0.5395,0.5412,0.544,0.544,0.5532,0.5633,0.5664,0.5827,0.5979,0.5922,0.5973,0.6074,0.6074,0.6074,0.6098,0.6262,0.63,0.63,0.63,0.63,0.63,0.63,0.632,0.6334,0.6306,0.6584,0.6863,0.6835,0.7975,0.9119,0.9366,1.1165,1.2942,1.3913,1.4329,1.4502,1.4442,1.4689,1.4877,1.4877,1.4616,1.4569,1.4975,1.4696,1.4838,1.5698,1.5534,1.5847,1.6902,1.7131,1.7616,1.8423,1.8846,1.9582,2.0738,2.193,2.2676,2.2974,2.3052,2.3091,2.3091,2.3091,2.3222,0.0,0.0,0.0,0.3994,0.0,0.0,0.0,0.3992,0.387,0.4148,0.3927,0.3638,0.3489,0.3805,0.398,0.3605,0.3997,0.4328,0.4253,0.4395,0.4464,0.4365,0.4447,0.4491,0.4491,0.4491,0.4491,0.4491,0.4491,0.4491,0.4491,0.4491,0.4491,0.4491,0.4491,0.4491,0.4491,0.4491,0.4491,0.4491,0.4491,0.4491,0.4498,0.4701,0.4847,0.4901,0.5152,0.5324,0.5395,0.5395,0.5395,0.5395,0.5395,0.5443,0.5518,0.5562,0.5684,0.582,0.5891,0.5929,0.6003,0.6122,0.6091,0.602,0.6252,0.63,0.6269,0.6112,0.618,0.6282,0.6166,0.6242,0.63,0.63,0.6354,0.6426,0.6497,0.7137,0.7915,0.859,0.9733,1.1171,1.2899,1.3805,1.4302,1.4302,1.4429,1.4566,1.4566,1.4396,1.4362,1.4509,1.4396,1.4543,1.513,1.491,1.5062,1.577,1.5717,1.611,1.7122,1.7358,1.8302,2.0153,2.133,2.2187,2.2779,2.2779,2.2886,2.3091,2.2877,2.2896,0.0,0.0,0.0,0.0,0.0,0.4073,0.0,0.0,0.0,0.4163,0.3807,0.3353,0.2979,0.0,0.0,0.2934,0.0,0.0,0.0,0.4137,0.0,0.4207,0.4375,0.4491,0.4491,0.4491,0.4491,0.4491,0.4491,0.4491,0.4491,0.4491,0.4491,0.4491,0.4491,0.4491,0.4491,0.4491,0.4491,0.4491,0.4491,0.4491,0.4498,0.4748,0.4874,0.4891,0.5159,0.531,0.531,0.531,0.531,0.5313,0.5371,0.5395,0.5409,0.5535,0.5566,0.562,0.583,0.5885,0.5966,0.6129,0.6067,0.601,0.6173,0.6211,0.6163,0.5908,0.6003,0.6194,0.6091,0.6146,0.6262,0.6293,0.63,0.6337,0.648,0.6593,0.7034,0.8155,0.8634,0.9536,1.1638,1.2942,1.3737,1.3737,1.3955,1.4088,1.4088,1.4088,1.4088,1.4088,1.4088,1.4302,1.4881,1.4656,1.4623,1.4908,1.4656,1.4936,1.5933,1.6301,1.7474,1.9573,2.0483,2.1333,2.2149,2.2149,2.25,2.3081,2.2705,2.2744,0.0,0.0,0.0,0.0,0.3914,0.0,0.0,0.0,0.4153,0.4206,0.0,0.2955,0.0,0.0,0.0,0.0,0.0,0.0,0.2879,0.3537,0.4089,0.418,0.4375,0.4491,0.4491,0.4491,0.4491,0.4491,0.4491,0.4491,0.4491,0.4491,0.4491,0.4491,0.4491,0.4491,0.4491,0.4491,0.4491,0.4491,0.4491,0.4491,0.4494,0.4668,0.4718,0.4724,0.4897,0.4969,0.4969,0.4969,0.4969,0.4996,0.5293,0.5395,0.5395,0.5416,0.5508,0.5576,0.5504,0.5562,0.5644,0.5661,0.5739,0.583,0.585,0.5854,0.5874,0.5939,0.5932,0.5911,0.6207,0.6146,0.6091,0.6269,0.63,0.6337,0.648,0.6593,0.6788,0.7066,0.808,0.9323,1.0567,1.1729,1.2498,1.2498,1.3421,1.4088,1.4088,1.4088,1.4088,1.4088,1.4088,1.4215,1.4543,1.4536,1.4536,1.4569,1.4536,1.4559,1.4683,1.6263,1.7236,1.7543,1.8966,2.0124,2.0898,2.0898,2.1683,2.3081,2.2705,2.2744,0.0,0.0,0.0,0.0,0.0,0.0,0.3398,0.0,0.347,0.0,0.0,0.0,0.0,0.0,0.0,0.0,0.2117,0.0,0.0,0.0,0.2504,0.2876,0.0,0.0,0.4328,0.444,0.4491,0.4491,0.4491,0.4491,0.4491,0.4491,0.4491,0.4491,0.4491,0.4491,0.4491,0.4491,0.4491,0.4491,0.4491,0.4491,0.4494,0.4648,0.4691,0.4701,0.4853,0.4887,0.4894,0.4975,0.5012,0.5032,0.531,0.5341,0.524,0.5361,0.5436,0.5494,0.5521,0.5569,0.5589,0.5589,0.5684,0.5769,0.5631,0.5667,0.5779,0.5674,0.5783,0.5942,0.5983,0.6078,0.6179,0.6282,0.63,0.6337,0.648,0.6593,0.6746,0.6856,0.7433,0.8013,0.8488,1.0086,1.1552,1.22,1.2717,1.3294,1.3997,1.4088,1.4088,1.4088,1.4088,1.4208,1.4496,1.4362,1.4416,1.4756,1.4776,1.4776,1.4776,1.5656,1.6416,1.6966,1.7948,1.887,1.9746,2.0411,2.1067,2.1721,2.2236,2.2744,0.3735,0.0,0.0,0.0,0.0,0.0,0.0,0.0,0.0,0.0,0.0,0.0,0.0,0.0,0.0,0.0,0.0,0.1658,0.0,0.142,0.0,0.0,0.0,0.0,0.0,0.3932,0.4139,0.4202,0.4348,0.445,0.4487,0.4491,0.4491,0.4491,0.4491,0.4491,0.4491,0.4491,0.4491,0.4491,0.4491,0.4491,0.4494,0.4648,0.4667,0.4665,0.4792,0.4833,0.4802,0.4904,0.4972,0.4995,0.5179,0.5196,0.5117,0.5337,0.5395,0.5412,0.5521,0.5562,0.5562,0.5562,0.5596,0.564,0.546,0.5545,0.5644,0.5504,0.563,0.5847,0.5861,0.6,0.6194,0.6279,0.63,0.6337,0.648,0.6559,0.6681,0.6834,0.694,0.7038,0.7038,0.8761,1.0394,1.1252,1.1638,1.2242,1.347,1.3603,1.373,1.4046,1.4088,1.4175,1.4382,1.4208,1.4302,1.481,1.4961,1.5042,1.5122,1.5357,1.5812,1.6511,1.689,1.756,1.8515,1.9284,1.9992,2.0716,2.1812,2.2568,0.0,0.0,0.0,0.1368,0.0,0.0,0.0,0.0,0.2228,0.0,0.0,0.0,0.0,0.0,0.0,0.0,0.0,0.0,0.0,0.0,0.0,0.0,0.0,0.0,0.0,0.2798,0.3222,0.0,0.3904,0.4291,0.4484,0.4491,0.4491,0.4491,0.4491,0.4491,0.4491,0.4491,0.4491,0.4491,0.4491,0.4491,0.4494,0.4648,0.4638,0.4505,0.4658,0.4641,0.4505,0.4508,0.46,0.4721,0.4874,0.4982,0.5117,0.5337,0.5395,0.5395,0.5399,0.5402,0.5402,0.5402,0.5405,0.5405,0.5399,0.5402,0.5436,0.5545,0.5521,0.5515,0.5911,0.5918,0.5891,0.6228,0.63,0.6337,0.648,0.6515,0.6566,0.6678,0.6831,0.6893,0.6893,0.804,0.8978,0.9021,0.9966,1.108,1.22,1.237,1.2808,1.3997,1.4088,1.4088,1.4102,1.4088,1.4215,1.4516,1.4803,1.5135,1.5371,1.5658,1.5812,1.5846,1.5591,1.5982,1.707,1.6972,1.8248,2.0706,2.1526,2.2129,0.0,0.0,0.1535,0.1758,0.0,0.0,0.0,0.0,0.0,0.0,0.0,0.0,0.0,0.0,0.0,0.0,0.0,0.0,0.0,0.0,0.0,0.0,0.0,0.0,0.0,0.0,0.0,0.3761,0.4171,0.4368,0.4297,0.4436,0.4491,0.4491,0.4491,0.4491,0.4491,0.4491,0.4491,0.4491,0.4491,0.4491,0.4491,0.4545,0.4539,0.4494,0.4545,0.4539,0.4505,0.468,0.4796,0.4867,0.5114,0.5272,0.5324,0.5375,0.5395,0.5395,0.5395,0.5463,0.5545,0.5545,0.5545,0.5545,0.5545,0.5477,0.5405,0.5457,0.5576,0.5688,0.584,0.5993,0.617,0.6276,0.63,0.6313,0.6361,0.6446,0.6528,0.6539,0.6671,0.681,0.6869,0.7222,0.7765,0.8765,0.9235,0.9879,1.1037,1.1669,1.2272,1.2838,1.3429,1.3753,1.3753,1.3975,1.4295,1.4783,1.509,1.5297,1.5391,1.5671,1.5651,1.5264,1.5538,1.567,1.567,1.6594,1.7259,1.7661,1.8793,2.0594,0.1284,0.1062,0.0,0.1312,0.1062,0.0,0.0699,0.0,0.0588,0.0,0.0,0.0,0.0,0.0,0.0,0.0,0.0,0.0,0.0,0.0,0.0,0.0,0.0,0.0,0.0,0.0,0.2733,0.3095,0.3863,0.4311,0.0,0.444,0.4491,0.4491,0.4491,0.4491,0.4491,0.4491,0.4491,0.4491,0.4491,0.4491,0.4491,0.4491,0.4491,0.4491,0.4491,0.4491,0.4505,0.4674,0.4819,0.4908,0.5128,0.5303,0.5395,0.5395,0.5395,0.5402,0.5457,0.5542,0.5599,0.5647,0.563,0.5589,0.5589,0.5518,0.5395,0.5395,0.5573,0.5739,0.5789,0.5989,0.6193,0.6286,0.63,0.63,0.63,0.6371,0.6436,0.6436,0.6519,0.6651,0.6749,0.6729,0.7052,0.8098,0.8174,0.8541,0.9757,1.0334,1.0875,1.1492,1.2046,1.2572,1.3048,1.3699,1.4289,1.4776,1.4983,1.513,1.5237,1.5524,1.5504,1.5169,1.5484,1.5491,1.5117,1.5873,1.6272,1.6354,1.6633,1.8445]}]]